VS687 / G-VINE 7700 Squawk Report (23rd of June, 2021)

Aircraft A333 Reg No. G-VINE Age 10 years old
Model A330 Jet engines 2 First flight 06-05-11
Registered 13-08-12 Rollout 14-03-11 Delivered 08-07-11
Construction No. 1231 Line No. N/A Series 343E
ADSHEX 40655D Airline name Virgin Atlantic Airways Owner N/A
Airfield based Heathrow~Gtr London~G First tracked N/A

Flight history for G-VINE

Route Flight No Date Playback
Heathrow (LHR) - Chicago Ohare Intl (ORD) N/A 2021-08-04 17:57:00
John F Kennedy Intl (JFK) - Heathrow (LHR) VS688 2021-08-04 16:23:00
Heathrow (LHR) - John F Kennedy Intl (JFK) VS687 2021-08-03 23:25:00
Chicago Ohare Intl (ORD) - Heathrow (LHR) VS540 2021-08-03 10:23:00
Heathrow (LHR) - Chicago Ohare Intl (ORD) N/A 2021-08-03 00:52:00
Chicago Ohare Intl (ORD) - Heathrow (LHR) VS540 2021-08-02 10:27:00
Heathrow (LHR) - Chicago Ohare Intl (ORD) N/A 2021-08-02 00:52:00
Chicago Ohare Intl (ORD) - Heathrow (LHR) VS540 2021-08-01 15:58:00
Heathrow (LHR) - Chicago Ohare Intl (ORD) VS539 2021-08-01 00:39:00
Brussels Airport (BRU) - Heathrow (LHR) N/A 2021-07-28 18:07:00
Heathrow (LHR) - Brussels Airport (BRU) N/A 2021-07-28 15:30:00
Brussels Airport (BRU) - Heathrow (LHR) N/A 2021-07-27 18:07:00
Heathrow (LHR) - Brussels Airport (BRU) N/A 2021-07-27 16:57:00
Chicago Ohare Intl (ORD) - Heathrow (LHR) VS540 2021-07-27 14:26:00
Heathrow (LHR) - Chicago Ohare Intl (ORD) N/A 2021-07-26 23:52:00
Chicago Ohare Intl (ORD) - Heathrow (LHR) VS540 2021-07-26 10:13:00
Heathrow (LHR) - Chicago Ohare Intl (ORD) N/A 2021-07-26 00:10:00
Ben Gurion (TLV) - Heathrow (LHR) VS454 2021-07-25 08:12:00
Heathrow (LHR) - Ben Gurion (TLV) VS453 2021-07-25 03:10:00
Murtala Muhammed (LOS) - Heathrow (LHR) VS412 2021-07-24 15:24:00
Time Lat Lon Altitude Heading Speed Vertical Rate
2021-06-23 23:12:40 GMT 40.644161 -73.780060 0 230 0 0
2021-06-23 23:12:29 GMT 40.644173 -73.780060 0 230 0 0
2021-06-23 23:12:23 GMT 40.644184 -73.780045 0 230 0 0
2021-06-23 23:12:20 GMT 40.644196 -73.780014 0 230 2 0
2021-06-23 23:12:13 GMT 40.644222 -73.779984 0 230 2 0
2021-06-23 23:12:09 GMT 40.644245 -73.779953 0 233 2 0
2021-06-23 23:12:02 GMT 40.644276 -73.779892 0 233 3 0
2021-06-23 23:11:58 GMT 40.644306 -73.779854 0 233 2 0
2021-06-23 23:11:52 GMT 40.644333 -73.779800 0 233 2 0
2021-06-23 23:11:47 GMT 40.644356 -73.779770 0 233 4 0
2021-06-23 23:11:41 GMT 40.644444 -73.779671 0 244 5 0
2021-06-23 23:11:36 GMT 40.644539 -73.779587 0 261 5 0
2021-06-23 23:11:32 GMT 40.644596 -73.779495 0 275 4 0
2021-06-23 23:11:21 GMT 40.644596 -73.779297 0 281 6 0
2021-06-23 23:11:11 GMT 40.644550 -73.778915 0 284 9 0
2021-06-23 23:11:00 GMT 40.644459 -73.778351 0 295 9 0
2021-06-23 23:10:55 GMT 40.644367 -73.778076 0 300 9 0
2021-06-23 23:10:50 GMT 40.644283 -73.777878 0 300 10 0
2021-06-23 23:10:46 GMT 40.644161 -73.777618 0 303 11 0
2021-06-23 23:10:40 GMT 40.644035 -73.777328 0 315 10 0
2021-06-23 23:10:34 GMT 40.643852 -73.777069 0 326 11 0
2021-06-23 23:10:30 GMT 40.643677 -73.776909 0 329 11 0
2021-06-23 23:10:25 GMT 40.643463 -73.776733 0 331 12 0
2021-06-23 23:10:19 GMT 40.643200 -73.776550 0 331 14 0
2021-06-23 23:10:14 GMT 40.642891 -73.776321 0 331 13 0
2021-06-23 23:10:09 GMT 40.642639 -73.776138 0 331 13 0
2021-06-23 23:10:04 GMT 40.642384 -73.775955 0 331 14 0
2021-06-23 23:09:58 GMT 40.641911 -73.775497 0 324 13 -64
2021-06-23 23:09:56 GMT 40.641811 -73.775421 0 324 13 -64
2021-06-23 23:09:55 GMT 40.641762 -73.775383 0 324 13 -64
2021-06-23 23:09:54 GMT 40.641708 -73.775337 0 322 12 -64
2021-06-23 23:09:53 GMT 40.641651 -73.775307 0 321 12 -64
2021-06-23 23:09:51 GMT 40.641479 -73.775169 0 319 11 -64
2021-06-23 23:09:49 GMT 40.641418 -73.775124 0 320 10 -64
2021-06-23 23:09:48 GMT 40.641411 -73.775093 0 320 11 -64
2021-06-23 23:09:46 GMT 40.641331 -73.775002 0 321 10 -64
2021-06-23 23:09:45 GMT 40.641289 -73.774940 0 322 9 -64
2021-06-23 23:09:44 GMT 40.641178 -73.774902 0 320 7 -64
2021-06-23 23:09:43 GMT 40.641159 -73.774857 0 321 7 -64
2021-06-23 23:09:41 GMT 40.641151 -73.774849 0 319 9 -64
2021-06-23 23:09:39 GMT 40.641121 -73.774849 0 318 9 -64
2021-06-23 23:09:37 GMT 40.641060 -73.774818 0 314 9 -64
2021-06-23 23:09:35 GMT 40.641010 -73.774818 0 307 12 -64
2021-06-23 23:09:34 GMT 40.640980 -73.774757 0 307 13 -64
2021-06-23 23:09:33 GMT 40.640942 -73.774712 0 306 12 -64
2021-06-23 23:09:32 GMT 40.640839 -73.774567 0 301 11 -64
2021-06-23 23:09:30 GMT 40.640808 -73.774521 0 301 10 -64
2021-06-23 23:09:29 GMT 40.640781 -73.774460 0 302 10 -64
2021-06-23 23:09:27 GMT 40.640751 -73.774353 0 311 11 -64
2021-06-23 23:09:26 GMT 40.640709 -73.774300 0 310 10 -64
2021-06-23 23:09:25 GMT 40.640671 -73.774239 0 310 8 -64
2021-06-23 23:09:23 GMT 40.640629 -73.774170 0 308 10 -64
2021-06-23 23:09:22 GMT 40.640591 -73.774132 0 303 10 -64
2021-06-23 23:09:21 GMT 40.640549 -73.774071 0 305 8 -64
2021-06-23 23:09:20 GMT 40.640518 -73.773987 0 308 10 -64
2021-06-23 23:09:18 GMT 40.640499 -73.773949 0 306 11 -64
2021-06-23 23:09:17 GMT 40.640450 -73.773888 0 307 9 -64
2021-06-23 23:09:16 GMT 40.640400 -73.773804 0 310 8 -64
2021-06-23 23:09:14 GMT 40.640388 -73.773750 0 314 7 -64
2021-06-23 23:09:13 GMT 40.640369 -73.773727 0 310 8 -64
2021-06-23 23:09:11 GMT 40.640289 -73.773651 0 301 6 -64
2021-06-23 23:09:10 GMT 40.640282 -73.773621 0 301 6 -64
2021-06-23 23:09:09 GMT 40.640259 -73.773598 0 298 6 -64
2021-06-23 23:09:07 GMT 40.640228 -73.773537 0 302 7 -64
2021-06-23 23:09:06 GMT 40.640228 -73.773491 0 309 6 -64
2021-06-23 23:09:05 GMT 40.640209 -73.773468 0 312 6 -64
2021-06-23 23:09:03 GMT 40.640202 -73.773438 0 324 9 -64
2021-06-23 23:09:02 GMT 40.640179 -73.773392 0 332 9 -64
2021-06-23 23:09:01 GMT 40.640148 -73.773354 0 343 8 -64
2021-06-23 23:08:59 GMT 40.640091 -73.773277 0 19 6 -64
2021-06-23 23:08:58 GMT 40.640049 -73.773262 0 34 4 -64
2021-06-23 23:08:57 GMT 40.640018 -73.773247 0 32 3 -64
2021-06-23 23:08:56 GMT 40.640030 -73.773262 0 30 6 -64
2021-06-23 23:08:54 GMT 40.639992 -73.773300 0 31 6 -64
2021-06-23 23:08:53 GMT 40.639969 -73.773293 0 32 8 -64
2021-06-23 23:08:52 GMT 40.639931 -73.773369 0 21 10 -64
2021-06-23 23:08:50 GMT 40.639881 -73.773376 0 28 11 -64
2021-06-23 23:08:49 GMT 40.639839 -73.773399 0 28 11 -64
2021-06-23 23:08:47 GMT 40.639759 -73.773460 0 27 11 -64
2021-06-23 23:08:46 GMT 40.639721 -73.773491 0 26 13 -64
2021-06-23 23:08:45 GMT 40.639679 -73.773529 0 24 13 -64
2021-06-23 23:08:44 GMT 40.639549 -73.773582 0 34 13 -64
2021-06-23 23:08:42 GMT 40.639511 -73.773621 0 32 13 -64
2021-06-23 23:08:41 GMT 40.639469 -73.773659 0 33 14 -64
2021-06-23 23:08:38 GMT 40.639290 -73.773804 0 36 12 -64
2021-06-23 23:08:37 GMT 40.639240 -73.773849 0 33 11 -64
2021-06-23 23:08:36 GMT 40.639210 -73.773903 0 33 12 -64
2021-06-23 23:08:35 GMT 40.639149 -73.773918 0 36 12 -64
2021-06-23 23:08:33 GMT 40.639069 -73.774002 0 30 13 -64
2021-06-23 23:08:32 GMT 40.639030 -73.774063 0 26 13 -64
2021-06-23 23:08:31 GMT 40.638969 -73.774101 0 28 12 -64
2021-06-23 23:08:30 GMT 40.638870 -73.774162 0 31 11 -64
2021-06-23 23:08:28 GMT 40.638828 -73.774200 0 26 11 -64
2021-06-23 23:08:27 GMT 40.638790 -73.774231 0 28 12 -64
2021-06-23 23:08:25 GMT 40.638680 -73.774277 0 35 11 -64
2021-06-23 23:08:24 GMT 40.638660 -73.774323 0 33 12 -64
2021-06-23 23:08:23 GMT 40.638611 -73.774361 0 30 12 -64
2021-06-23 23:08:21 GMT 40.638531 -73.774452 0 21 14 -64
2021-06-23 23:08:20 GMT 40.638470 -73.774467 0 24 13 -64
2021-06-23 23:08:19 GMT 40.638420 -73.774521 0 25 14 -64
2021-06-23 23:08:18 GMT 40.638329 -73.774498 0 40 13 -64
2021-06-23 23:08:17 GMT 40.638241 -73.774612 0 38 14 -64
2021-06-23 23:08:15 GMT 40.638199 -73.774673 0 31 13 -64
2021-06-23 23:08:14 GMT 40.638149 -73.774712 0 33 14 -64
2021-06-23 23:08:13 GMT 40.638039 -73.774818 0 25 13 -64
2021-06-23 23:08:11 GMT 40.637989 -73.774849 0 26 13 -64
2021-06-23 23:08:10 GMT 40.637932 -73.774887 0 30 12 -64
2021-06-23 23:08:09 GMT 40.637878 -73.774902 0 33 13 -64
2021-06-23 23:08:08 GMT 40.637821 -73.774963 0 32 12 -64
2021-06-23 23:08:06 GMT 40.637730 -73.775032 0 31 13 -64
2021-06-23 23:08:05 GMT 40.637691 -73.775070 0 27 14 -64
2021-06-23 23:08:03 GMT 40.637581 -73.775146 0 30 12 -64
2021-06-23 23:08:02 GMT 40.637531 -73.775192 0 29 13 -64
2021-06-23 23:08:01 GMT 40.637482 -73.775238 0 29 13 -64
2021-06-23 23:07:59 GMT 40.637348 -73.775291 0 31 10 -64
2021-06-23 23:07:58 GMT 40.637341 -73.775368 0 23 10 -64
2021-06-23 23:07:57 GMT 40.637299 -73.775383 0 31 11 -64
2021-06-23 23:07:56 GMT 40.637249 -73.775391 0 40 11 -64
2021-06-23 23:07:54 GMT 40.637199 -73.775490 0 25 11 -64
2021-06-23 23:07:53 GMT 40.637131 -73.775513 0 31 10 -64
2021-06-23 23:07:52 GMT 40.637089 -73.775528 0 32 9 -64
2021-06-23 23:07:51 GMT 40.637020 -73.775589 0 27 9 -64
2021-06-23 23:07:49 GMT 40.636990 -73.775627 0 25 8 -64
2021-06-23 23:07:48 GMT 40.636959 -73.775650 0 25 9 -64
2021-06-23 23:07:47 GMT 40.636929 -73.775688 0 25 10 -64
2021-06-23 23:07:45 GMT 40.636822 -73.775703 0 50 7 -64
2021-06-23 23:07:44 GMT 40.636791 -73.775719 0 41 8 -64
2021-06-23 23:07:43 GMT 40.636799 -73.775787 0 29 8 -64
2021-06-23 23:07:41 GMT 40.636749 -73.775864 0 28 9 -64
2021-06-23 23:07:40 GMT 40.636688 -73.775848 0 30 9 -64
2021-06-23 23:07:39 GMT 40.636650 -73.775871 0 19 9 -64
2021-06-23 23:07:38 GMT 40.636620 -73.775970 0 3 9 -64
2021-06-23 23:07:36 GMT 40.636570 -73.776009 0 349 8 -64
2021-06-23 23:07:35 GMT 40.636509 -73.775978 0 348 6 -64
2021-06-23 23:07:34 GMT 40.636459 -73.775970 0 333 6 -64
2021-06-23 23:07:32 GMT 40.636429 -73.775978 0 320 7 -64
2021-06-23 23:07:31 GMT 40.636410 -73.775970 0 314 8 -64
2021-06-23 23:07:30 GMT 40.636318 -73.775917 0 301 8 -64
2021-06-23 23:07:28 GMT 40.636318 -73.775902 0 303 10 -64
2021-06-23 23:07:27 GMT 40.636311 -73.775864 0 303 13 -64
2021-06-23 23:07:26 GMT 40.636250 -73.775749 0 299 15 -64
2021-06-23 23:07:24 GMT 40.636219 -73.775688 0 300 17 -64
2021-06-23 23:07:23 GMT 40.636189 -73.775589 0 304 16 -64
2021-06-23 23:07:21 GMT 40.636082 -73.775421 0 296 14 -64
2021-06-23 23:07:20 GMT 40.636070 -73.775352 0 299 15 -64
2021-06-23 23:07:19 GMT 40.636009 -73.775261 0 296 12 -64
2021-06-23 23:07:18 GMT 40.635990 -73.775139 0 299 16 -64
2021-06-23 23:07:16 GMT 40.635948 -73.775063 0 296 15 -64
2021-06-23 23:07:15 GMT 40.635921 -73.774986 0 298 16 -64
2021-06-23 23:07:13 GMT 40.635849 -73.774803 0 302 15 -64
2021-06-23 23:07:12 GMT 40.635818 -73.774742 0 302 17 -64
2021-06-23 23:07:11 GMT 40.635769 -73.774643 0 302 16 -64
2021-06-23 23:07:10 GMT 40.635689 -73.774490 0 302 17 -64
2021-06-23 23:07:08 GMT 40.635632 -73.774422 0 294 17 -64
2021-06-23 23:07:07 GMT 40.635590 -73.774300 0 296 15 -64
2021-06-23 23:07:06 GMT 40.635571 -73.774231 0 300 16 -64
2021-06-23 23:07:04 GMT 40.635490 -73.774033 0 300 13 -64
2021-06-23 23:07:02 GMT 40.635422 -73.773888 0 301 14 -64
2021-06-23 23:07:01 GMT 40.635391 -73.773819 0 301 14 -64
2021-06-23 23:07:00 GMT 40.635349 -73.773758 0 296 14 -64
2021-06-23 23:06:59 GMT 40.635288 -73.773590 0 300 13 -64
2021-06-23 23:06:57 GMT 40.635239 -73.773468 0 302 15 -64
2021-06-23 23:06:55 GMT 40.635159 -73.773331 0 298 14 -64
2021-06-23 23:06:53 GMT 40.635139 -73.773247 0 301 14 -64
2021-06-23 23:06:51 GMT 40.635059 -73.773079 0 301 12 -64
2021-06-23 23:06:50 GMT 40.635029 -73.773033 0 302 12 -64
2021-06-23 23:06:49 GMT 40.635021 -73.772972 0 304 13 -64
2021-06-23 23:06:47 GMT 40.634949 -73.772842 0 304 12 -64
2021-06-23 23:06:46 GMT 40.634899 -73.772774 0 301 11 -64
2021-06-23 23:06:45 GMT 40.634880 -73.772720 0 298 12 -64
2021-06-23 23:06:44 GMT 40.634811 -73.772583 0 300 10 -64
2021-06-23 23:06:42 GMT 40.634789 -73.772522 0 300 9 -64
2021-06-23 23:06:41 GMT 40.634769 -73.772491 0 297 11 -64
2021-06-23 23:06:39 GMT 40.634708 -73.772362 0 297 9 -64
2021-06-23 23:06:38 GMT 40.634701 -73.772308 0 302 9 -64
2021-06-23 23:06:37 GMT 40.634689 -73.772270 0 304 10 -64
2021-06-23 23:06:35 GMT 40.634628 -73.772179 0 298 10 -64
2021-06-23 23:06:34 GMT 40.634560 -73.772041 0 293 7 -64
2021-06-23 23:06:32 GMT 40.634548 -73.772003 0 294 8 -64
2021-06-23 23:06:31 GMT 40.634541 -73.771957 0 295 8 -64
2021-06-23 23:06:30 GMT 40.634521 -73.771912 0 299 8 -64
2021-06-23 23:06:29 GMT 40.634510 -73.771858 0 303 7 -64
2021-06-23 23:06:27 GMT 40.634491 -73.771812 0 302 10 -64
2021-06-23 23:06:26 GMT 40.634460 -73.771751 0 302 10 -64
2021-06-23 23:06:24 GMT 40.634411 -73.771652 0 302 9 -64
2021-06-23 23:06:23 GMT 40.634392 -73.771599 0 304 9 -64
2021-06-23 23:06:22 GMT 40.634369 -73.771568 0 302 10 -64
2021-06-23 23:06:21 GMT 40.634338 -73.771523 0 301 10 -64
2021-06-23 23:06:19 GMT 40.634289 -73.771408 0 298 10 -64
2021-06-23 23:06:18 GMT 40.634251 -73.771347 0 297 7 -64
2021-06-23 23:06:17 GMT 40.634270 -73.771332 0 299 11 -64
2021-06-23 23:06:15 GMT 40.634190 -73.771202 0 293 7 -64
2021-06-23 23:06:14 GMT 40.634178 -73.771149 0 305 6 -64
2021-06-23 23:06:12 GMT 40.634178 -73.771111 0 304 7 -64
2021-06-23 23:06:11 GMT 40.634159 -73.771088 0 299 9 -64
2021-06-23 23:06:10 GMT 40.634121 -73.771057 0 297 9 -64
2021-06-23 23:06:09 GMT 40.634109 -73.770988 0 301 7 -64
2021-06-23 23:06:07 GMT 40.634079 -73.770927 0 299 8 -64
2021-06-23 23:06:06 GMT 40.634048 -73.770882 0 299 7 -64
2021-06-23 23:06:05 GMT 40.634048 -73.770859 0 302 10 -64
2021-06-23 23:06:04 GMT 40.634010 -73.770767 0 301 11 -64
2021-06-23 23:06:02 GMT 40.633980 -73.770714 0 300 11 -64
2021-06-23 23:06:01 GMT 40.633942 -73.770653 0 298 10 -64
2021-06-23 23:06:00 GMT 40.633919 -73.770592 0 298 10 -64
2021-06-23 23:05:59 GMT 40.633869 -73.770500 0 294 10 -64
2021-06-23 23:05:57 GMT 40.633862 -73.770447 0 296 12 -64
2021-06-23 23:05:56 GMT 40.633839 -73.770401 0 297 13 -64
2021-06-23 23:05:54 GMT 40.633801 -73.770248 0 307 15 -64
2021-06-23 23:05:53 GMT 40.633770 -73.770180 0 307 15 -64
2021-06-23 23:05:52 GMT 40.633732 -73.770142 0 303 18 -64
2021-06-23 23:05:50 GMT 40.633629 -73.769958 0 300 17 -64
2021-06-23 23:05:49 GMT 40.633579 -73.769867 0 297 16 -64
2021-06-23 23:05:48 GMT 40.633560 -73.769791 0 300 16 -64
2021-06-23 23:05:46 GMT 40.633492 -73.769623 0 303 17 -64
2021-06-23 23:05:45 GMT 40.633430 -73.769531 0 299 15 -64
2021-06-23 23:05:44 GMT 40.633389 -73.769447 0 300 15 -64
2021-06-23 23:05:42 GMT 40.633331 -73.769287 0 303 16 -64
2021-06-23 23:05:41 GMT 40.633282 -73.769211 0 300 16 -64
2021-06-23 23:05:40 GMT 40.633251 -73.769142 0 299 17 -64
2021-06-23 23:05:38 GMT 40.633179 -73.768951 0 301 17 -64
2021-06-23 23:05:37 GMT 40.633141 -73.768860 0 300 17 -64
2021-06-23 23:05:35 GMT 40.633072 -73.768692 0 303 18 -64
2021-06-23 23:05:34 GMT 40.633018 -73.768593 0 303 17 -64
2021-06-23 23:05:33 GMT 40.632969 -73.768501 0 305 15 -64
2021-06-23 23:05:31 GMT 40.632881 -73.768341 0 299 15 -64
2021-06-23 23:05:29 GMT 40.632820 -73.768204 0 299 17 -64
2021-06-23 23:05:28 GMT 40.632771 -73.768097 0 295 17 -64
2021-06-23 23:05:27 GMT 40.632740 -73.767990 0 298 15 -64
2021-06-23 23:05:25 GMT 40.632702 -73.767822 0 310 16 -64
2021-06-23 23:05:24 GMT 40.632690 -73.767769 0 313 19 -64
2021-06-23 23:05:23 GMT 40.632641 -73.767693 0 312 19 -64
2021-06-23 23:05:22 GMT 40.632530 -73.767532 0 309 18 -64
2021-06-23 23:05:20 GMT 40.632462 -73.767441 0 300 16 -64
2021-06-23 23:05:19 GMT 40.632420 -73.767349 0 298 16 -64
2021-06-23 23:05:18 GMT 40.632339 -73.767189 0 283 15 -64
2021-06-23 23:05:16 GMT 40.632339 -73.767097 0 282 15 -64
2021-06-23 23:05:15 GMT 40.632309 -73.767029 0 275 16 -64
2021-06-23 23:05:13 GMT 40.632271 -73.766830 0 256 15 -64
2021-06-23 23:05:12 GMT 40.632278 -73.766724 0 254 14 -64
2021-06-23 23:05:10 GMT 40.632309 -73.766548 0 246 13 -64
2021-06-23 23:05:09 GMT 40.632359 -73.766434 0 249 16 -64
2021-06-23 23:05:07 GMT 40.632370 -73.766350 0 242 17 -64
2021-06-23 23:05:06 GMT 40.632389 -73.766251 0 238 17 -64
2021-06-23 23:05:05 GMT 40.632439 -73.766182 0 242 18 -64
2021-06-23 23:05:03 GMT 40.632500 -73.765991 0 238 19 -64
2021-06-23 23:05:02 GMT 40.632542 -73.765923 0 240 22 -64
2021-06-23 23:05:01 GMT 40.632641 -73.765694 0 240 21 -64
2021-06-23 23:04:59 GMT 40.632690 -73.765579 0 241 22 -64
2021-06-23 23:04:58 GMT 40.632710 -73.765427 0 231 21 -64
2021-06-23 23:04:57 GMT 40.632839 -73.765228 0 234 22 -64
2021-06-23 23:04:55 GMT 40.632900 -73.765129 0 235 22 -64
2021-06-23 23:04:54 GMT 40.632950 -73.764999 0 232 21 -64
2021-06-23 23:04:53 GMT 40.633041 -73.764923 0 241 21 -64
2021-06-23 23:04:51 GMT 40.633099 -73.764679 0 227 23 -64
2021-06-23 23:04:50 GMT 40.633179 -73.764580 0 227 22 -64
2021-06-23 23:04:49 GMT 40.633301 -73.764381 0 222 23 -64
2021-06-23 23:04:47 GMT 40.633381 -73.764282 0 221 23 -64
2021-06-23 23:04:46 GMT 40.633480 -73.764191 0 224 21 -64
2021-06-23 23:04:45 GMT 40.633610 -73.763977 0 215 22 -64
2021-06-23 23:04:43 GMT 40.633678 -73.763893 0 211 23 -64
2021-06-23 23:04:42 GMT 40.633770 -73.763786 0 208 24 -64
2021-06-23 23:04:40 GMT 40.634010 -73.763618 0 208 23 -64
2021-06-23 23:04:39 GMT 40.634090 -73.763573 0 209 26 -64
2021-06-23 23:04:38 GMT 40.634220 -73.763512 0 213 28 -64
2021-06-23 23:04:37 GMT 40.634449 -73.763313 0 210 35 -64
2021-06-23 23:04:35 GMT 40.634579 -73.763184 0 208 38 -64
2021-06-23 23:04:34 GMT 40.634739 -73.763046 0 208 40 -64
2021-06-23 23:04:33 GMT 40.634899 -73.762939 0 209 46 -64
2021-06-23 23:04:32 GMT 40.635281 -73.762650 0 210 55 -64
2021-06-23 23:04:30 GMT 40.635502 -73.762497 0 211 60 -64
2021-06-23 23:04:28 GMT 40.635971 -73.762131 0 210 74 -64
2021-06-23 23:04:27 GMT 40.636238 -73.761902 0 210 80 -64
2021-06-23 23:04:26 GMT 40.636520 -73.761681 0 210 88 -64
2021-06-23 23:04:25 GMT 40.637218 -73.761162 -300 210 97 96
2021-06-23 23:04:23 GMT 40.637562 -73.760887 -300 210 104 96
2021-06-23 23:04:22 GMT 40.637959 -73.760567 -300 210 108 96
2021-06-23 23:04:20 GMT 40.638779 -73.759941 -300 210 117 96
2021-06-23 23:04:19 GMT 40.639229 -73.759583 -300 210 119 96
2021-06-23 23:04:17 GMT 40.640202 -73.758873 -300 210 121 96
2021-06-23 23:04:16 GMT 40.640671 -73.758492 -300 209 122 0
2021-06-23 23:04:15 GMT 40.641178 -73.758133 -300 210 120 -96
2021-06-23 23:04:13 GMT 40.642101 -73.757408 -300 211 127 -96
2021-06-23 23:04:12 GMT 40.642601 -73.756981 -300 210 125 -96
2021-06-23 23:04:11 GMT 40.643639 -73.756203 -250 211 123 -96
2021-06-23 23:04:09 GMT 40.644112 -73.755829 -250 211 126 -96
2021-06-23 23:04:08 GMT 40.644619 -73.755409 -250 210 123 -96
2021-06-23 23:04:05 GMT 40.646069 -73.754288 -200 210 129 -96
2021-06-23 23:04:04 GMT 40.646591 -73.753899 -200 210 128 -96
2021-06-23 23:04:03 GMT 40.647091 -73.753510 -175 210 127 -96
2021-06-23 23:04:02 GMT 40.647629 -73.753113 -175 210 124 -96
2021-06-23 23:04:01 GMT 40.648090 -73.752792 -175 211 128 -96
2021-06-23 23:04:00 GMT 40.648609 -73.752350 -150 211 124 -96
2021-06-23 23:03:59 GMT 40.649601 -73.751534 -125 209 118 -96
2021-06-23 23:03:57 GMT 40.650082 -73.751198 -125 210 118 -96
2021-06-23 23:03:56 GMT 40.650570 -73.750900 -100 212 119 -96
2021-06-23 23:03:55 GMT 40.651051 -73.750450 -100 211 114 -96
2021-06-23 23:03:53 GMT 40.651920 -73.749763 -75 209 119 -96
2021-06-23 23:03:51 GMT 40.652859 -73.749138 -50 213 126 -96
2021-06-23 23:03:50 GMT 40.653320 -73.748711 -50 211 126 -96
2021-06-23 23:03:49 GMT 40.654301 -73.747948 -25 212 127 -96
2021-06-23 23:03:47 GMT 40.654781 -73.747490 0 209 126 -96
2021-06-23 23:03:45 GMT 40.655788 -73.746788 0 213 125 -96
2021-06-23 23:03:44 GMT 40.656261 -73.746429 50 214 126 -96
2021-06-23 23:03:43 GMT 40.656712 -73.745987 50 211 130 -96
2021-06-23 23:03:42 GMT 40.657219 -73.745552 50 210 130 -96
2021-06-23 23:03:41 GMT 40.658298 -73.744713 100 211 120 -96
2021-06-23 23:03:39 GMT 40.658710 -73.744392 125 211 129 -96
2021-06-23 23:03:38 GMT 40.659241 -73.743950 125 210 126 -96
2021-06-23 23:03:37 GMT 40.659779 -73.743553 125 211 121 -96
2021-06-23 23:03:35 GMT 40.660709 -73.742760 125 209 124 -96
2021-06-23 23:03:34 GMT 40.661221 -73.742393 200 210 123 -96
2021-06-23 23:03:33 GMT 40.661701 -73.742058 200 210 125 -96
2021-06-23 23:03:32 GMT 40.662182 -73.741653 200 209 127 -96
2021-06-23 23:03:30 GMT 40.663212 -73.740837 200 209 120 -96
2021-06-23 23:03:29 GMT 40.663689 -73.740509 200 209 123 -96
2021-06-23 23:03:28 GMT 40.664169 -73.740211 225 211 124 -96
2021-06-23 23:03:27 GMT 40.664619 -73.739922 225 213 132 -96
2021-06-23 23:03:25 GMT 40.665680 -73.739021 225 212 127 -96
2021-06-23 23:03:24 GMT 40.666130 -73.738617 300 211 132 -96
2021-06-23 23:03:23 GMT 40.667210 -73.737823 300 213 127 -96
2021-06-23 23:03:21 GMT 40.667709 -73.737381 300 212 125 -96
2021-06-23 23:03:20 GMT 40.668190 -73.736931 300 210 124 -96
2021-06-23 23:03:19 GMT 40.669201 -73.736191 400 209 127 -96
2021-06-23 23:03:17 GMT 40.669739 -73.735771 400 209 123 0
2021-06-23 23:03:16 GMT 40.670219 -73.735420 350 209 126 -288
2021-06-23 23:03:15 GMT 40.670681 -73.735100 400 210 131 -288
2021-06-23 23:03:13 GMT 40.671768 -73.734253 400 212 123 -288
2021-06-23 23:03:12 GMT 40.672291 -73.733818 400 211 120 -288
2021-06-23 23:03:10 GMT 40.673199 -73.733047 500 209 125 -288
2021-06-23 23:03:09 GMT 40.673710 -73.732613 500 207 122 -288
2021-06-23 23:03:08 GMT 40.674191 -73.732246 500 207 124 -288
2021-06-23 23:03:07 GMT 40.674679 -73.731934 500 208 125 -288
2021-06-23 23:03:05 GMT 40.675690 -73.731171 500 209 125 -288
2021-06-23 23:03:04 GMT 40.676220 -73.730797 500 211 124 -288
2021-06-23 23:03:03 GMT 40.676708 -73.730461 500 213 125 -288
2021-06-23 23:03:01 GMT 40.677689 -73.729607 550 214 125 -288
2021-06-23 23:03:00 GMT 40.678181 -73.729179 550 215 124 -288
2021-06-23 23:02:59 GMT 40.678661 -73.728722 550 216 123 -736
2021-06-23 23:02:57 GMT 40.679562 -73.727852 575 217 126 -736
2021-06-23 23:02:55 GMT 40.680500 -73.726898 600 220 126 -736
2021-06-23 23:02:54 GMT 40.680939 -73.726463 600 221 128 -736
2021-06-23 23:02:53 GMT 40.681358 -73.725960 700 221 130 -736
2021-06-23 23:02:51 GMT 40.682232 -73.724922 700 222 131 -736
2021-06-23 23:02:50 GMT 40.682690 -73.724350 700 222 129 -736
2021-06-23 23:02:49 GMT 40.683140 -73.723862 700 224 130 -736
2021-06-23 23:02:48 GMT 40.684052 -73.722794 675 228 127 -736
2021-06-23 23:02:46 GMT 40.684410 -73.722198 675 226 128 -736
2021-06-23 23:02:45 GMT 40.684818 -73.721626 700 227 128 -736
2021-06-23 23:02:43 GMT 40.685650 -73.720512 700 230 127 -736
2021-06-23 23:02:42 GMT 40.686069 -73.719948 700 232 126 -736
2021-06-23 23:02:41 GMT 40.686409 -73.719337 700 231 127 -736
2021-06-23 23:02:40 GMT 40.687168 -73.718140 900 233 126 -736
2021-06-23 23:02:38 GMT 40.687511 -73.717522 900 233 127 -736
2021-06-23 23:02:37 GMT 40.687889 -73.716942 900 234 127 -736
2021-06-23 23:02:36 GMT 40.688240 -73.716278 900 234 125 -736
2021-06-23 23:02:35 GMT 40.688568 -73.715683 900 234 126 -736
2021-06-23 23:02:33 GMT 40.689232 -73.714432 900 234 127 -736
2021-06-23 23:02:32 GMT 40.689548 -73.713814 900 233 128 -736
2021-06-23 23:02:31 GMT 40.689899 -73.713158 900 233 127 -736
2021-06-23 23:02:29 GMT 40.690590 -73.711937 900 233 128 -736
2021-06-23 23:02:28 GMT 40.690948 -73.711311 900 233 128 -736
2021-06-23 23:02:27 GMT 40.691299 -73.710670 900 233 127 -736
2021-06-23 23:02:26 GMT 40.692001 -73.709427 1,000 233 127 -736
2021-06-23 23:02:24 GMT 40.692329 -73.708832 1,000 233 129 -736
2021-06-23 23:02:23 GMT 40.692699 -73.708191 1,000 234 128 -736
2021-06-23 23:02:22 GMT 40.693062 -73.707558 1,000 234 127 -736
2021-06-23 23:02:20 GMT 40.693748 -73.706322 1,000 234 128 -736
2021-06-23 23:02:19 GMT 40.694080 -73.705704 1,000 234 130 -736
2021-06-23 23:02:18 GMT 40.694431 -73.705063 1,000 234 130 -736
2021-06-23 23:02:16 GMT 40.695141 -73.703789 1,100 235 131 -1184
2021-06-23 23:02:15 GMT 40.695511 -73.703171 1,100 235 131 -1184
2021-06-23 23:02:14 GMT 40.696209 -73.701874 1,100 235 132 -1184
2021-06-23 23:02:12 GMT 40.696571 -73.701210 1,100 234 131 -1184
2021-06-23 23:02:11 GMT 40.696911 -73.700562 1,200 233 132 -1184
2021-06-23 23:02:10 GMT 40.697269 -73.699890 1,200 231 132 -1184
2021-06-23 23:02:08 GMT 40.697990 -73.698578 1,200 228 133 -1184
2021-06-23 23:02:07 GMT 40.698349 -73.697960 1,200 226 134 -1184
2021-06-23 23:02:06 GMT 40.698750 -73.697342 1,200 225 135 -1184
2021-06-23 23:02:04 GMT 40.699600 -73.696121 1,200 223 136 -1184
2021-06-23 23:02:03 GMT 40.700062 -73.695541 1,200 223 136 -1184
2021-06-23 23:02:02 GMT 40.700500 -73.694939 1,300 222 136 -1184
2021-06-23 23:02:00 GMT 40.701450 -73.693840 1,300 221 138 -1184
2021-06-23 23:01:59 GMT 40.701931 -73.693298 1,300 221 139 -1184
2021-06-23 23:01:58 GMT 40.702358 -73.692749 1,300 220 142 -1184
2021-06-23 23:01:56 GMT 40.703362 -73.691612 1,300 219 142 -1184
2021-06-23 23:01:55 GMT 40.703861 -73.691032 1,300 218 143 -1184
2021-06-23 23:01:54 GMT 40.704361 -73.690468 1,300 217 144 -1184
2021-06-23 23:01:52 GMT 40.705318 -73.689346 1,400 211 154 -1184
2021-06-23 23:01:49 GMT 40.707512 -73.687241 1,375 215 148 -768
2021-06-23 23:01:46 GMT 40.708603 -73.686218 1,400 214 149 -704
2021-06-23 23:01:43 GMT 40.710571 -73.684448 1,425 213 152 -768
2021-06-23 23:01:38 GMT 40.712959 -73.682434 1,475 212 154 -832
2021-06-23 23:01:35 GMT 40.715706 -73.680122 1,550 212 155 -896
2021-06-23 23:01:32 GMT 40.716961 -73.679184 1,575 211 156 -960
2021-06-23 23:01:28 GMT 40.719131 -73.677490 1,650 210 160 -896
2021-06-23 23:01:25 GMT 40.723206 -73.674500 1,700 209 162 -896
2021-06-23 23:01:22 GMT 40.723206 -73.674500 1,725 208 168 -832
2021-06-23 23:01:18 GMT 40.726318 -73.672256 1,775 208 168 -768
2021-06-23 23:01:15 GMT 40.727760 -73.671257 1,825 208 169 -960
2021-06-23 23:01:12 GMT 40.730347 -73.669495 1,875 208 169 -960
2021-06-23 23:01:07 GMT 40.733368 -73.667480 1,925 208 171 -960
2021-06-23 23:01:03 GMT 40.735931 -73.665771 2,025 209 174 -896
2021-06-23 23:01:00 GMT 40.738037 -73.664246 2,050 209 174 -896
2021-06-23 23:00:57 GMT 40.740425 -73.662582 2,125 210 173 -960
2021-06-23 23:00:54 GMT 40.743172 -73.660522 2,150 212 173 -896
2021-06-23 23:00:50 GMT 40.745361 -73.658813 2,200 214 174 -960
2021-06-23 23:00:47 GMT 40.747826 -73.656586 2,275 219 175 -896
2021-06-23 23:00:43 GMT 40.750153 -73.654343 2,300 223 176 -704
2021-06-23 23:00:40 GMT 40.751724 -73.652527 2,350 230 178 -1024
2021-06-23 23:00:36 GMT 40.754250 -73.649101 2,525 236 180 -960
2021-06-23 23:00:32 GMT 40.756073 -73.646118 2,475 241 179 -1152
2021-06-23 23:00:29 GMT 40.757629 -73.642578 2,550 247 180 -1344
2021-06-23 23:00:26 GMT 40.758858 -73.638672 2,650 252 180 -896
2021-06-23 23:00:23 GMT 40.759644 -73.635620 2,675 254 183 -192
2021-06-23 23:00:19 GMT 40.760254 -73.632927 2,675 254 183 -192
2021-06-23 23:00:16 GMT 40.761185 -73.628494 2,700 254 183 -192
2021-06-23 23:00:12 GMT 40.761978 -73.624939 2,700 254 182 0
2021-06-23 23:00:09 GMT 40.762756 -73.621399 2,700 254 181 256
2021-06-23 23:00:05 GMT 40.763794 -73.616638 2,725 255 187 -256
2021-06-23 23:00:01 GMT 40.764629 -73.612770 2,725 256 176 -128
2021-06-23 22:59:57 GMT 40.765411 -73.608887 2,725 256 175 -64
2021-06-23 22:59:54 GMT 40.765915 -73.606201 2,725 256 175 -128
2021-06-23 22:59:51 GMT 40.767517 -73.598663 2,750 255 176 -768
2021-06-23 22:59:48 GMT 40.767517 -73.598663 2,775 254 179 -448
2021-06-23 22:59:44 GMT 40.768307 -73.594917 2,800 254 180 -320
2021-06-23 22:59:41 GMT 40.768936 -73.592224 2,800 254 183 -320
2021-06-23 22:59:38 GMT 40.769577 -73.589233 2,825 255 186 -64
2021-06-23 22:59:35 GMT 40.770355 -73.585800 2,850 255 189 -448
2021-06-23 22:59:32 GMT 40.771008 -73.582619 2,850 255 189 -64
2021-06-23 22:59:29 GMT 40.771866 -73.578613 2,875 254 190 -192
2021-06-23 22:59:26 GMT 40.772453 -73.575813 2,875 255 188 -384
2021-06-23 22:59:23 GMT 40.773102 -73.572998 3,225 256 190 -384
2021-06-23 22:59:20 GMT 40.774128 -73.568199 2,950 255 188 -256
2021-06-23 22:59:17 GMT 40.774502 -73.566513 2,950 255 188 -192
2021-06-23 22:59:14 GMT 40.775433 -73.562202 2,975 255 190 -512
2021-06-23 22:59:11 GMT 40.776176 -73.558769 3,000 254 190 -768
2021-06-23 22:59:08 GMT 40.776829 -73.555840 3,025 255 189 -512
2021-06-23 22:59:03 GMT 40.777954 -73.550476 3,125 255 188 -640
2021-06-23 22:59:00 GMT 40.778732 -73.546936 3,075 255 188 -512
2021-06-23 22:58:57 GMT 40.779575 -73.543045 3,125 255 188 -576
2021-06-23 22:58:53 GMT 40.780289 -73.539673 3,150 255 186 -448
2021-06-23 22:58:50 GMT 40.781296 -73.534805 3,175 256 187 -512
2021-06-23 22:58:47 GMT 40.781708 -73.532776 3,175 256 187 -448
2021-06-23 22:58:43 GMT 40.782646 -73.528252 3,250 256 190 -448
2021-06-23 22:58:40 GMT 40.783440 -73.524254 3,250 256 191 -384
2021-06-23 22:58:37 GMT 40.783997 -73.521484 3,275 256 190 -448
2021-06-23 22:58:33 GMT 40.784821 -73.517212 3,350 257 191 -576
2021-06-23 22:58:30 GMT 40.785461 -73.513855 3,350 257 191 -576
2021-06-23 22:58:27 GMT 40.786186 -73.510017 3,375 257 191 -640
2021-06-23 22:58:23 GMT 40.786880 -73.506165 3,575 257 189 -640
2021-06-23 22:58:19 GMT 40.787842 -73.500854 3,475 258 187 -704
2021-06-23 22:58:16 GMT 40.788326 -73.498222 3,475 258 187 -704
2021-06-23 22:58:13 GMT 40.788883 -73.494980 3,625 260 187 -704
2021-06-23 22:58:08 GMT 40.789948 -73.488098 3,600 263 186 -576
2021-06-23 22:58:04 GMT 40.790359 -73.484375 3,650 274 185 -768
2021-06-23 22:58:01 GMT 40.790405 -73.481812 3,725 282 184 -384
2021-06-23 22:57:58 GMT 40.790222 -73.477783 3,725 282 184 -256
2021-06-23 22:57:55 GMT 40.789581 -73.473190 3,725 286 185 -64
2021-06-23 22:57:51 GMT 40.788940 -73.470459 3,700 307 202 -128
2021-06-23 22:57:48 GMT 40.787567 -73.465942 3,700 303 191 -128
2021-06-23 22:57:41 GMT 40.785023 -73.460335 3,700 306 196 192
2021-06-23 22:57:38 GMT 40.783310 -73.457214 3,700 307 200 -256
2021-06-23 22:57:35 GMT 40.781670 -73.454277 3,700 307 202 -128
2021-06-23 22:57:31 GMT 40.779758 -73.450905 3,700 307 216 -512
2021-06-23 22:57:27 GMT 40.777153 -73.446289 3,700 307 210 128
2021-06-23 22:57:24 GMT 40.774872 -73.442291 3,700 307 213 128
2021-06-23 22:57:21 GMT 40.773743 -73.440247 3,700 307 215 -256
2021-06-23 22:57:17 GMT 40.771290 -73.435860 3,775 307 216 -832
2021-06-23 22:57:14 GMT 40.769566 -73.432800 3,800 307 219 -576
2021-06-23 22:57:10 GMT 40.764538 -73.423882 3,925 307 218 -576
2021-06-23 22:57:06 GMT 40.764538 -73.423882 3,875 307 220 -576
2021-06-23 22:57:00 GMT 40.761463 -73.418320 4,000 307 223 -384
2021-06-23 22:56:57 GMT 40.758949 -73.413887 3,950 307 224 -384
2021-06-23 22:56:53 GMT 40.757080 -73.410522 3,975 307 226 -448
2021-06-23 22:56:50 GMT 40.754993 -73.406715 3,975 307 226 -384
2021-06-23 22:56:46 GMT 40.752155 -73.401527 4,025 306 229 -448
2021-06-23 22:56:42 GMT 40.749966 -73.397598 4,050 307 231 -384
2021-06-23 22:56:39 GMT 40.748150 -73.394287 4,100 307 239 -320
2021-06-23 22:56:34 GMT 40.744308 -73.387329 4,100 307 241 -320
2021-06-23 22:56:31 GMT 40.743027 -73.385010 4,100 307 236 -320
2021-06-23 22:56:27 GMT 40.740051 -73.379623 4,125 307 241 -384
2021-06-23 22:56:24 GMT 40.738724 -73.377197 4,125 307 239 -256
2021-06-23 22:56:21 GMT 40.736187 -73.372627 4,150 307 242 -320
2021-06-23 22:56:15 GMT 40.732136 -73.365326 4,175 307 245 -384
2021-06-23 22:56:12 GMT 40.730392 -73.362122 4,200 307 246 -384
2021-06-23 22:56:08 GMT 40.728180 -73.358208 4,225 307 247 -448
2021-06-23 22:56:05 GMT 40.725853 -73.353905 4,250 307 250 -448
2021-06-23 22:56:00 GMT 40.722382 -73.347717 4,275 307 252 -320
2021-06-23 22:55:57 GMT 40.720360 -73.344040 4,500 307 254 -320
2021-06-23 22:55:53 GMT 40.717758 -73.339355 4,325 307 257 -320
2021-06-23 22:55:50 GMT 40.715286 -73.334862 4,350 307 258 -384
2021-06-23 22:55:47 GMT 40.713501 -73.331665 4,350 306 259 -448
2021-06-23 22:55:42 GMT 40.709465 -73.324249 4,450 306 260 -1088
2021-06-23 22:55:39 GMT 40.707886 -73.321442 4,550 306 260 -1344
2021-06-23 22:55:36 GMT 40.705307 -73.316772 4,550 306 260 -1344
2021-06-23 22:55:33 GMT 40.703568 -73.313538 4,750 306 259 -1408
2021-06-23 22:55:29 GMT 40.698853 -73.304932 4,725 306 259 -1472
2021-06-23 22:55:26 GMT 40.698853 -73.304932 4,775 306 258 -1408
2021-06-23 22:55:23 GMT 40.696384 -73.300407 4,850 306 258 -1408
2021-06-23 22:55:19 GMT 40.693501 -73.295227 4,950 306 257 -1408
2021-06-23 22:55:14 GMT 40.689789 -73.288391 5,125 306 257 -1280
2021-06-23 22:55:11 GMT 40.687634 -73.284492 5,150 306 257 -1280
2021-06-23 22:55:08 GMT 40.686283 -73.281929 5,200 306 256 -1344
2021-06-23 22:55:04 GMT 40.683472 -73.276794 5,275 306 257 -1280
2021-06-23 22:55:01 GMT 40.681862 -73.273811 5,325 306 257 -1280
2021-06-23 22:54:58 GMT 40.679031 -73.268616 5,425 306 258 -1088
2021-06-23 22:54:55 GMT 40.677750 -73.266235 5,450 306 258 -1088
2021-06-23 22:54:52 GMT 40.674454 -73.260193 5,525 306 258 -1088
2021-06-23 22:54:49 GMT 40.672943 -73.257385 5,625 305 259 -1152
2021-06-23 22:54:46 GMT 40.670883 -73.253540 5,700 303 259 -896
2021-06-23 22:54:43 GMT 40.668594 -73.249084 5,700 301 260 -832
2021-06-23 22:54:40 GMT 40.666718 -73.245056 5,725 298 261 -896
2021-06-23 22:54:35 GMT 40.664200 -73.238464 5,825 285 262 -1344
2021-06-23 22:54:32 GMT 40.663101 -73.234177 5,900 279 263 -1472
2021-06-23 22:54:29 GMT 40.662094 -73.228943 5,950 277 263 -1472
2021-06-23 22:54:24 GMT 40.661545 -73.221375 6,100 263 266 -1728
2021-06-23 22:54:21 GMT 40.661797 -73.215637 6,225 258 266 -1664
2021-06-23 22:54:18 GMT 40.662140 -73.212341 6,225 258 266 -1664
2021-06-23 22:54:15 GMT 40.662918 -73.207397 6,275 256 268 -1536
2021-06-23 22:54:12 GMT 40.664169 -73.201340 6,425 254 268 -1280
2021-06-23 22:54:09 GMT 40.665344 -73.195923 6,475 254 268 -1280
2021-06-23 22:54:04 GMT 40.667057 -73.188545 6,575 254 268 -1088
2021-06-23 22:54:01 GMT 40.667896 -73.184799 6,625 254 269 -896
2021-06-23 22:53:58 GMT 40.668964 -73.180244 6,750 254 270 -704
2021-06-23 22:53:55 GMT 40.670013 -73.175598 6,675 254 275 -448
2021-06-23 22:53:52 GMT 40.670975 -73.171509 6,725 254 272 -576
2021-06-23 22:53:49 GMT 40.672256 -73.166138 6,750 254 275 -448
2021-06-23 22:53:45 GMT 40.673805 -73.159271 6,775 254 277 -512
2021-06-23 22:53:41 GMT 40.675095 -73.153564 6,825 254 278 -960
2021-06-23 22:53:38 GMT 40.676193 -73.148499 6,900 254 277 -1472
2021-06-23 22:53:35 GMT 40.677475 -73.142639 6,950 254 277 -1472
2021-06-23 22:53:32 GMT 40.678463 -73.138168 7,050 254 277 -1152
2021-06-23 22:53:29 GMT 40.679722 -73.132362 7,100 254 278 -1024
2021-06-23 22:53:23 GMT 40.681629 -73.123878 7,175 254 278 -960
2021-06-23 22:53:20 GMT 40.682739 -73.118774 7,250 251 282 -1408
2021-06-23 22:53:17 GMT 40.683632 -73.114578 7,275 254 280 -896
2021-06-23 22:53:14 GMT 40.685028 -73.108276 7,350 253 281 -1024
2021-06-23 22:53:10 GMT 40.686401 -73.102417 7,425 251 282 -1408
2021-06-23 22:53:07 GMT 40.687260 -73.099030 7,500 249 282 -1536
2021-06-23 22:53:04 GMT 40.689560 -73.091125 7,575 245 284 -1408
2021-06-23 22:53:00 GMT 40.691620 -73.085754 7,650 238 286 -1344
2021-06-23 22:52:57 GMT 40.693680 -73.081299 7,700 234 288 -1280
2021-06-23 22:52:53 GMT 40.696426 -73.076355 7,775 229 290 -1280
2021-06-23 22:52:50 GMT 40.698948 -73.072624 7,825 226 291 -1152
2021-06-23 22:52:47 GMT 40.701736 -73.068970 7,950 224 290 -1152
2021-06-23 22:52:43 GMT 40.705883 -73.063766 7,975 224 290 -1280
2021-06-23 22:52:40 GMT 40.708817 -73.060143 8,275 224 287 -2368
2021-06-23 22:52:37 GMT 40.712173 -73.055969 8,250 224 287 -2496
2021-06-23 22:52:34 GMT 40.714691 -73.052856 8,325 224 285 -2752
2021-06-23 22:52:31 GMT 40.717148 -73.049782 8,425 224 285 -2688
2021-06-23 22:52:29 GMT 40.720036 -73.046158 8,525 224 284 -2560
2021-06-23 22:52:26 GMT 40.722931 -73.042542 8,675 224 282 -2560
2021-06-23 22:52:22 GMT 40.725620 -73.039169 8,800 224 282 -2240
2021-06-23 22:52:19 GMT 40.728516 -73.035522 8,975 224 282 -1920
2021-06-23 22:52:16 GMT 40.731346 -73.031868 9,050 225 282 -1856
2021-06-23 22:52:13 GMT 40.735153 -73.027039 9,125 225 282 -1792
2021-06-23 22:52:10 GMT 40.737579 -73.023865 9,200 225 283 -1728
2021-06-23 22:52:06 GMT 40.741470 -73.018982 9,350 225 284 -1728
2021-06-23 22:52:03 GMT 40.743622 -73.016174 9,450 225 284 -1728
2021-06-23 22:52:00 GMT 40.746429 -73.012642 9,550 225 284 -1856
2021-06-23 22:51:58 GMT 40.748291 -73.010208 9,550 225 284 -1856
2021-06-23 22:51:55 GMT 40.751781 -73.005775 9,725 225 285 -1984
2021-06-23 22:51:52 GMT 40.754974 -73.001709 9,775 225 285 -1920
2021-06-23 22:51:47 GMT 40.759232 -72.996284 9,925 225 286 -1600
2021-06-23 22:51:44 GMT 40.761700 -72.993164 9,950 225 287 -1472
2021-06-23 22:51:39 GMT 40.768589 -72.984428 10,075 224 288 -1280
2021-06-23 22:51:37 GMT 40.768589 -72.984428 10,125 224 289 -1216
2021-06-23 22:51:34 GMT 40.771473 -72.980743 10,200 224 290 -1280
2021-06-23 22:51:31 GMT 40.774406 -72.977058 10,250 224 291 -1344
2021-06-23 22:51:27 GMT 40.778969 -72.971313 10,350 224 291 -1536
2021-06-23 22:51:24 GMT 40.782135 -72.967445 10,425 224 292 -1536
2021-06-23 22:51:21 GMT 40.786331 -72.962219 10,550 224 291 -1472
2021-06-23 22:51:16 GMT 40.788803 -72.959229 10,650 223 291 -1600
2021-06-23 22:51:11 GMT 40.794563 -72.952156 10,750 223 290 -1600
2021-06-23 22:51:08 GMT 40.796940 -72.949280 10,825 223 290 -1536
2021-06-23 22:51:05 GMT 40.799313 -72.946350 10,925 223 290 -1472
2021-06-23 22:51:02 GMT 40.802944 -72.941917 10,975 223 290 -1344
2021-06-23 22:50:58 GMT 40.806202 -72.937920 11,025 223 291 -1216
2021-06-23 22:50:56 GMT 40.808670 -72.934921 11,100 223 292 -1152
2021-06-23 22:50:53 GMT 40.812286 -72.930481 11,150 223 292 -1216
2021-06-23 22:50:49 GMT 40.816177 -72.925781 11,225 223 293 -1344
2021-06-23 22:50:46 GMT 40.819153 -72.922119 11,350 224 292 -1408
2021-06-23 22:50:43 GMT 40.822128 -72.918457 11,400 224 292 -1472
2021-06-23 22:50:40 GMT 40.825516 -72.914307 11,450 224 292 -1408
2021-06-23 22:50:37 GMT 40.828079 -72.911133 11,550 224 292 -1344
2021-06-23 22:50:34 GMT 40.830139 -72.908569 11,575 224 292 -1216
2021-06-23 22:50:31 GMT 40.833576 -72.904335 11,625 224 292 -960
2021-06-23 22:50:28 GMT 40.836136 -72.901215 11,650 224 292 -704
2021-06-23 22:50:25 GMT 40.840137 -72.896347 11,700 224 292 -320
2021-06-23 22:50:21 GMT 40.843582 -72.892036 11,700 224 292 -64
2021-06-23 22:50:17 GMT 40.846748 -72.888168 11,700 224 292 0
2021-06-23 22:50:15 GMT 40.850464 -72.883545 11,700 223 293 0
2021-06-23 22:50:12 GMT 40.852894 -72.880615 11,700 223 293 0
2021-06-23 22:50:09 GMT 40.856049 -72.876770 11,700 223 293 0
2021-06-23 22:50:06 GMT 40.858479 -72.873749 11,700 223 293 -64
2021-06-23 22:50:03 GMT 40.861462 -72.870132 11,700 223 293 -64
2021-06-23 22:50:00 GMT 40.863647 -72.867447 11,700 224 292 -64
2021-06-23 22:49:57 GMT 40.866718 -72.863640 11,700 224 292 64
2021-06-23 22:49:54 GMT 40.871468 -72.857834 11,700 224 291 0
2021-06-23 22:49:51 GMT 40.873890 -72.854774 11,700 224 291 0
2021-06-23 22:49:48 GMT 40.876495 -72.851593 11,700 223 291 -64
2021-06-23 22:49:44 GMT 40.880360 -72.846909 11,700 222 292 0
2021-06-23 22:49:41 GMT 40.883835 -72.842834 11,700 221 292 0
2021-06-23 22:49:38 GMT 40.886993 -72.839294 11,700 220 292 0
2021-06-23 22:49:35 GMT 40.890106 -72.835876 11,700 218 292 0
2021-06-23 22:49:32 GMT 40.892670 -72.833252 11,700 217 293 -64
2021-06-23 22:49:27 GMT 40.897888 -72.828247 11,700 215 293 64
2021-06-23 22:49:23 GMT 40.902287 -72.824188 11,700 214 295 -192
2021-06-23 22:49:20 GMT 40.906475 -72.820442 11,700 214 295 -192
2021-06-23 22:49:16 GMT 40.910751 -72.816711 11,725 214 296 -256
2021-06-23 22:49:13 GMT 40.913818 -72.813965 11,725 216 296 0
2021-06-23 22:49:10 GMT 40.916718 -72.811264 11,725 218 295 64
2021-06-23 22:49:07 GMT 40.921185 -72.806648 11,725 225 295 64
2021-06-23 22:49:03 GMT 40.924866 -72.801903 11,725 232 297 -128
2021-06-23 22:49:00 GMT 40.926678 -72.799095 11,725 236 298 -256
2021-06-23 22:48:57 GMT 40.929337 -72.794006 11,775 244 301 -576
2021-06-23 22:48:55 GMT 40.931473 -72.788918 11,800 249 304 -1088
2021-06-23 22:48:52 GMT 40.932953 -72.784790 11,875 251 305 -1472
2021-06-23 22:48:49 GMT 40.934685 -72.778809 11,925 251 305 -1536
2021-06-23 22:48:46 GMT 40.935425 -72.776062 11,975 252 307 -1536
2021-06-23 22:48:43 GMT 40.937027 -72.769836 12,100 252 308 -1344
2021-06-23 22:48:39 GMT 40.938877 -72.762634 12,150 252 308 -1344
2021-06-23 22:48:36 GMT 40.940598 -72.755836 12,225 252 308 -1344
2021-06-23 22:48:33 GMT 40.941761 -72.751213 12,275 252 309 -1344
2021-06-23 22:48:30 GMT 40.942646 -72.747780 12,325 252 309 -1344
2021-06-23 22:48:27 GMT 40.945534 -72.736549 12,575 252 311 -1344
2021-06-23 22:48:24 GMT 40.947556 -72.728516 12,575 252 311 -1344
2021-06-23 22:48:21 GMT 40.947556 -72.728516 12,575 252 311 -1344
2021-06-23 22:48:18 GMT 40.948696 -72.723938 12,625 252 311 -1344
2021-06-23 22:48:15 GMT 40.949844 -72.719543 12,700 252 312 -1344
2021-06-23 22:48:12 GMT 40.951214 -72.714012 12,775 252 312 -1344
2021-06-23 22:48:09 GMT 40.952454 -72.709229 12,850 252 313 -1344
2021-06-23 22:48:06 GMT 40.953773 -72.704086 12,875 252 313 -1344
2021-06-23 22:48:02 GMT 40.955978 -72.695251 12,975 252 313 -1344
2021-06-23 22:47:58 GMT 40.957626 -72.688721 13,050 252 314 -1344
2021-06-23 22:47:55 GMT 40.958817 -72.684021 13,100 252 314 -1344
2021-06-23 22:47:52 GMT 40.960709 -72.676498 13,225 252 314 -1344
2021-06-23 22:47:49 GMT 40.962296 -72.670166 13,275 252 314 -1344
2021-06-23 22:47:46 GMT 40.963165 -72.666748 13,325 252 314 -1344
2021-06-23 22:47:42 GMT 40.965504 -72.657516 13,450 252 314 -1344
2021-06-23 22:47:38 GMT 40.967178 -72.650963 13,525 252 314 -1344
2021-06-23 22:47:35 GMT 40.968018 -72.647644 13,575 252 314 -1344
2021-06-23 22:47:31 GMT 40.970020 -72.639732 13,700 252 315 -1344
2021-06-23 22:47:28 GMT 40.971497 -72.633789 13,775 252 315 -1344
2021-06-23 22:47:25 GMT 40.972626 -72.629303 13,800 252 315 -1344
2021-06-23 22:47:23 GMT 40.973930 -72.624184 13,850 252 315 -1344
2021-06-23 22:47:20 GMT 40.975479 -72.618042 13,975 252 316 -1344
2021-06-23 22:47:17 GMT 40.976910 -72.612450 14,000 252 316 -1344
2021-06-23 22:47:14 GMT 40.977840 -72.608833 14,050 252 317 -1344
2021-06-23 22:47:11 GMT 40.979050 -72.603943 14,100 252 317 -1344
2021-06-23 22:47:08 GMT 40.981247 -72.595093 14,200 252 318 -1344
2021-06-23 22:47:05 GMT 40.981983 -72.592224 14,250 252 318 -1344
2021-06-23 22:47:02 GMT 40.983673 -72.585510 14,375 252 319 -1408
2021-06-23 22:46:59 GMT 40.984589 -72.581741 14,375 252 319 -1408
2021-06-23 22:46:56 GMT 40.986420 -72.574585 14,500 252 320 -1344
2021-06-23 22:46:53 GMT 40.987976 -72.568298 14,550 252 320 -1344
2021-06-23 22:46:50 GMT 40.989338 -72.562828 14,625 252 320 -1344
2021-06-23 22:46:47 GMT 40.990265 -72.559204 14,650 252 320 -1344
2021-06-23 22:46:44 GMT 40.991867 -72.552673 14,700 252 321 -1408
2021-06-23 22:46:40 GMT 40.993973 -72.544250 14,850 252 322 -1408
2021-06-23 22:46:37 GMT 40.994926 -72.540413 15,625 252 322 -1408
2021-06-23 22:46:34 GMT 40.996834 -72.532799 14,975 252 322 -1408
2021-06-23 22:46:30 GMT 40.998230 -72.527184 15,050 252 322 -1408
2021-06-23 22:46:27 GMT 40.999813 -72.521004 15,175 252 322 -1408
2021-06-23 22:46:24 GMT 41.000977 -72.516235 15,175 252 322 -1408
2021-06-23 22:46:21 GMT 41.002853 -72.508728 15,275 252 322 -1344
2021-06-23 22:46:17 GMT 41.004822 -72.500916 15,375 252 322 -1408
2021-06-23 22:46:13 GMT 41.006748 -72.493347 15,450 252 323 -1408
2021-06-23 22:46:10 GMT 41.007587 -72.489914 15,550 252 323 -1344
2021-06-23 22:46:07 GMT 41.010754 -72.477371 15,600 252 323 -1344
2021-06-23 22:46:04 GMT 41.010754 -72.477371 15,650 252 323 -1344
2021-06-23 22:45:59 GMT 41.013035 -72.468193 15,775 252 323 -1408
2021-06-23 22:45:56 GMT 41.014336 -72.462952 15,850 252 322 -1408
2021-06-23 22:45:53 GMT 41.015808 -72.457092 15,875 252 322 -1408
2021-06-23 22:45:49 GMT 41.017780 -72.449280 16,150 252 322 -1344
2021-06-23 22:45:46 GMT 41.018665 -72.445717 16,150 252 322 -1344
2021-06-23 22:45:43 GMT 41.020157 -72.439728 16,125 252 322 -1344
2021-06-23 22:45:40 GMT 41.021599 -72.433983 16,225 252 322 -1344
2021-06-23 22:45:37 GMT 41.023407 -72.426758 16,275 252 322 -1408
2021-06-23 22:45:33 GMT 41.025558 -72.418152 16,375 252 321 -1344
2021-06-23 22:45:29 GMT 41.026932 -72.412598 16,525 252 320 -1344
2021-06-23 22:45:25 GMT 41.028954 -72.404457 16,550 252 320 -1344
2021-06-23 22:45:22 GMT 41.030319 -72.398987 16,600 252 320 -1344
2021-06-23 22:45:18 GMT 41.031784 -72.393250 16,675 252 320 -1344
2021-06-23 22:45:15 GMT 41.033752 -72.385254 16,775 252 320 -1344
2021-06-23 22:45:12 GMT 41.035099 -72.379990 16,875 252 320 -1344
2021-06-23 22:45:09 GMT 41.036545 -72.374084 17,100 252 320 -1728
2021-06-23 22:45:06 GMT 41.037891 -72.368629 16,975 252 320 -1216
2021-06-23 22:45:02 GMT 41.039104 -72.363823 17,025 252 320 -1216
2021-06-23 22:44:58 GMT 41.041103 -72.355835 17,300 252 320 -1856
2021-06-23 22:44:55 GMT 41.042782 -72.349091 17,275 252 320 -1984
2021-06-23 22:44:52 GMT 41.043900 -72.344475 17,325 252 320 -2048
2021-06-23 22:44:49 GMT 41.045155 -72.339478 17,475 252 318 -1984
2021-06-23 22:44:46 GMT 41.046879 -72.332611 17,525 252 318 -1984
2021-06-23 22:44:42 GMT 41.048676 -72.325256 17,725 252 318 -2048
2021-06-23 22:44:39 GMT 41.050278 -72.318787 17,775 252 318 -2112
2021-06-23 22:44:35 GMT 41.052135 -72.311325 17,975 252 318 -1472
2021-06-23 22:44:32 GMT 41.053253 -72.306892 18,150 252 318 -1792
2021-06-23 22:44:28 GMT 41.055397 -72.298401 18,150 252 318 -1472
2021-06-23 22:44:25 GMT 41.058380 -72.286499 18,275 252 318 -1344
2021-06-23 22:44:21 GMT 41.058380 -72.286499 18,300 252 317 -1344
2021-06-23 22:44:17 GMT 41.060211 -72.279358 18,375 252 317 -1344
2021-06-23 22:44:13 GMT 41.061821 -72.272995 18,500 252 317 -1344
2021-06-23 22:44:10 GMT 41.063587 -72.266197 18,500 252 317 -1344
2021-06-23 22:44:07 GMT 41.065033 -72.260452 18,625 252 317 -1344
2021-06-23 22:44:04 GMT 41.066666 -72.254089 18,700 252 317 -1344
2021-06-23 22:44:01 GMT 41.068104 -72.248466 18,775 252 318 -1408
2021-06-23 22:43:57 GMT 41.069828 -72.241852 19,050 252 318 -1344
2021-06-23 22:43:54 GMT 41.071518 -72.235291 18,925 252 318 -1344
2021-06-23 22:43:51 GMT 41.073086 -72.229118 19,000 252 318 -1344
2021-06-23 22:43:48 GMT 41.074127 -72.224976 19,050 252 319 -1344
2021-06-23 22:43:45 GMT 41.077286 -72.212524 19,675 220 338 -1472
2021-06-23 22:43:41 GMT 41.077286 -72.212524 19,200 252 320 -1344
2021-06-23 22:43:36 GMT 41.079941 -72.201965 20,975 220 340 -1408
2021-06-23 22:43:33 GMT 41.081360 -72.196167 19,400 253 320 -1344
2021-06-23 22:43:30 GMT 41.081978 -72.193657 19,450 253 321 -1344
2021-06-23 22:43:28 GMT 41.083511 -72.187378 19,525 253 320 -1344
2021-06-23 22:43:25 GMT 41.084446 -72.183357 19,550 253 321 -1344
2021-06-23 22:43:22 GMT 41.085796 -72.177551 19,625 254 320 -1280
2021-06-23 22:43:19 GMT 41.087082 -72.172058 19,675 254 320 -1344
2021-06-23 22:43:16 GMT 41.088680 -72.164818 19,875 255 320 -1472
2021-06-23 22:43:13 GMT 41.089520 -72.161011 19,875 255 320 -1408
2021-06-23 22:43:10 GMT 41.090836 -72.155090 20,300 249 322 -1280
2021-06-23 22:43:08 GMT 41.091988 -72.149712 20,000 251 321 -1216
2021-06-23 22:43:05 GMT 41.093216 -72.144409 20,050 220 338 -1472
2021-06-23 22:43:02 GMT 41.094734 -72.138916 20,100 246 323 -1344
2021-06-23 22:42:59 GMT 41.096500 -72.133484 20,150 241 326 -1344
2021-06-23 22:42:56 GMT 41.098736 -72.127930 20,250 236 329 -1344
2021-06-23 22:42:53 GMT 41.101227 -72.122742 20,300 233 331 -1344
2021-06-23 22:42:50 GMT 41.103577 -72.118439 20,350 229 334 -1408
2021-06-23 22:42:48 GMT 41.105255 -72.115814 20,400 228 335 -1472
2021-06-23 22:42:44 GMT 41.109535 -72.109886 20,500 222 338 -1536
2021-06-23 22:42:40 GMT 41.118706 -72.099403 20,625 220 338 -1472
2021-06-23 22:42:37 GMT 41.118706 -72.099403 20,700 220 338 -1472
2021-06-23 22:42:34 GMT 41.121735 -72.096092 20,750 220 338 -1472
2021-06-23 22:42:30 GMT 41.126575 -72.090790 20,850 220 338 -1472
2021-06-23 22:42:28 GMT 41.129517 -72.087585 20,900 220 338 -1472
2021-06-23 22:42:24 GMT 41.134441 -72.082176 21,100 220 340 -1408
2021-06-23 22:42:19 GMT 41.138718 -72.077515 21,075 220 340 -1408
2021-06-23 22:42:17 GMT 41.141739 -72.074158 21,150 220 340 -1472
2021-06-23 22:42:13 GMT 41.146591 -72.068848 21,250 220 340 -1472
2021-06-23 22:42:09 GMT 41.153137 -72.061646 21,525 220 340 -1472
2021-06-23 22:42:06 GMT 41.156067 -72.058472 21,475 220 340 -1472
2021-06-23 22:42:03 GMT 41.159302 -72.054893 21,500 220 341 -1472
2021-06-23 22:41:59 GMT 41.163116 -72.050720 21,575 220 340 -1472
2021-06-23 22:41:56 GMT 41.167007 -72.046448 21,700 220 340 -1472
2021-06-23 22:41:53 GMT 41.172226 -72.040771 21,775 220 340 -1472
2021-06-23 22:41:49 GMT 41.175919 -72.036667 21,825 220 340 -1472
2021-06-23 22:41:47 GMT 41.178341 -72.034042 21,875 220 340 -1472
2021-06-23 22:41:44 GMT 41.181507 -72.030609 21,950 220 340 -1408
2021-06-23 22:41:41 GMT 41.190445 -72.020813 22,075 220 341 -1408
2021-06-23 22:41:38 GMT 41.190445 -72.020813 22,125 220 343 -1472
2021-06-23 22:41:34 GMT 41.193466 -72.017456 22,175 220 342 -1472
2021-06-23 22:41:31 GMT 41.197800 -72.012695 22,375 220 344 -1472
2021-06-23 22:41:28 GMT 41.200928 -72.009277 22,325 220 343 -1472
2021-06-23 22:41:25 GMT 41.204727 -72.005127 22,425 220 344 -1472
2021-06-23 22:41:22 GMT 41.210045 -71.999275 22,525 220 345 -1472
2021-06-23 22:41:19 GMT 41.212372 -71.996719 22,550 220 346 -1472
2021-06-23 22:41:17 GMT 41.215027 -71.993774 22,775 220 348 -1472
2021-06-23 22:41:14 GMT 41.218872 -71.989563 22,700 220 348 -1472
2021-06-23 22:41:11 GMT 41.222519 -71.985542 22,775 220 349 -1472
2021-06-23 22:41:08 GMT 41.231918 -71.975220 22,875 220 350 -1472
2021-06-23 22:41:04 GMT 41.231918 -71.975220 22,950 220 351 -1472
2021-06-23 22:41:01 GMT 41.234940 -71.971924 23,000 220 353 -1536
2021-06-23 22:40:57 GMT 41.239792 -71.966629 23,075 220 354 -1536
2021-06-23 22:40:54 GMT 41.243328 -71.962761 23,275 220 355 -1536
2021-06-23 22:40:51 GMT 41.247940 -71.957703 23,600 220 357 -1472
2021-06-23 22:40:48 GMT 41.252518 -71.952698 23,350 220 357 -1472
2021-06-23 22:40:44 GMT 41.260574 -71.943848 23,475 220 359 -1472
2021-06-23 22:40:41 GMT 41.260574 -71.943848 23,550 220 360 -1536
2021-06-23 22:40:38 GMT 41.264648 -71.939415 23,600 220 362 -1472
2021-06-23 22:40:36 GMT 41.266418 -71.937416 23,700 220 363 -1408
2021-06-23 22:40:33 GMT 41.275356 -71.927612 23,800 220 365 -1344
2021-06-23 22:40:30 GMT 41.275356 -71.927612 23,800 220 365 -1408
2021-06-23 22:40:27 GMT 41.277237 -71.925537 23,825 220 366 -1536
2021-06-23 22:40:24 GMT 41.282959 -71.919250 23,950 220 367 -1920
2021-06-23 22:40:21 GMT 41.285751 -71.916199 24,025 220 367 -2048
2021-06-23 22:40:18 GMT 41.293510 -71.907639 24,225 220 369 -2112
2021-06-23 22:40:12 GMT 41.296875 -71.903931 24,325 220 370 -2112
2021-06-23 22:40:09 GMT 41.302917 -71.897278 24,500 220 370 -2112
2021-06-23 22:40:06 GMT 41.305435 -71.894531 24,625 220 371 -2112
2021-06-23 22:40:03 GMT 41.310642 -71.888847 24,700 220 371 -2112
2021-06-23 22:39:59 GMT 41.315159 -71.883858 24,825 220 372 -2112
2021-06-23 22:39:56 GMT 41.318527 -71.880188 24,900 220 372 -2112
2021-06-23 22:39:53 GMT 41.323975 -71.874207 25,050 220 373 -2112
2021-06-23 22:39:50 GMT 41.327957 -71.869812 25,175 220 373 -2112
2021-06-23 22:39:47 GMT 41.334011 -71.863136 25,325 220 374 -2112
2021-06-23 22:39:42 GMT 41.337456 -71.859322 25,475 220 375 -2176
2021-06-23 22:39:39 GMT 41.342880 -71.853333 25,550 220 375 -2176
2021-06-23 22:39:36 GMT 41.345032 -71.851013 25,625 220 376 -2176
2021-06-23 22:39:34 GMT 41.353283 -71.841911 25,750 220 377 -2176
2021-06-23 22:39:30 GMT 41.353283 -71.841911 25,800 220 377 -2176
2021-06-23 22:39:27 GMT 41.359634 -71.834900 26,000 220 378 -2112
2021-06-23 22:39:22 GMT 41.365665 -71.828300 26,150 220 379 -2176
2021-06-23 22:39:18 GMT 41.370647 -71.822807 26,300 220 379 -2176
2021-06-23 22:39:15 GMT 41.373413 -71.819702 26,375 220 379 -2176
2021-06-23 22:39:12 GMT 41.377167 -71.815552 26,625 220 379 -2176
2021-06-23 22:39:09 GMT 41.382656 -71.809509 26,700 220 379 -2176
2021-06-23 22:39:05 GMT 41.388199 -71.803383 26,800 220 380 -2176
2021-06-23 22:39:01 GMT 41.393970 -71.796928 26,950 220 379 -2176
2021-06-23 22:38:58 GMT 41.396671 -71.793930 27,125 220 379 -2176
2021-06-23 22:38:55 GMT 41.400208 -71.790031 27,075 220 379 -2176
2021-06-23 22:38:53 GMT 41.403561 -71.786331 27,625 220 380 -2176
2021-06-23 22:38:50 GMT 41.408730 -71.780647 27,325 220 380 -2176
2021-06-23 22:38:47 GMT 41.413239 -71.775620 27,450 220 380 -2176
2021-06-23 22:38:44 GMT 41.416077 -71.772499 27,525 220 380 -2176
2021-06-23 22:38:41 GMT 41.418736 -71.769592 27,575 220 380 -2176
2021-06-23 22:38:38 GMT 41.424416 -71.763336 27,775 220 381 -2176
2021-06-23 22:38:35 GMT 41.427200 -71.760262 27,850 220 380 -2176
2021-06-23 22:38:33 GMT 41.431583 -71.755348 27,975 220 380 -2176
2021-06-23 22:38:30 GMT 41.435852 -71.750648 28,050 220 380 -2176
2021-06-23 22:38:27 GMT 41.439964 -71.746086 28,150 220 380 -2176
2021-06-23 22:38:24 GMT 41.442902 -71.742905 28,200 220 380 -2240
2021-06-23 22:38:21 GMT 41.447067 -71.738228 28,375 220 380 -2112
2021-06-23 22:38:18 GMT 41.451042 -71.733826 28,525 220 380 -2112
2021-06-23 22:38:15 GMT 41.459282 -71.724693 28,575 220 380 -2112
2021-06-23 22:38:13 GMT 41.459282 -71.724693 28,675 220 380 -2112
2021-06-23 22:38:09 GMT 41.463821 -71.719688 28,775 220 380 -2112
2021-06-23 22:38:05 GMT 41.468639 -71.714340 28,900 220 381 -2240
2021-06-23 22:38:03 GMT 41.472832 -71.709747 29,025 220 380 -2304
2021-06-23 22:37:59 GMT 41.478088 -71.703865 29,200 220 380 -2304
2021-06-23 22:37:56 GMT 41.480789 -71.700867 29,325 220 380 -2304
2021-06-23 22:37:53 GMT 41.484051 -71.697289 29,325 220 380 -2304
2021-06-23 22:37:51 GMT 41.487534 -71.693466 29,700 220 380 -2304
2021-06-23 22:37:47 GMT 41.492935 -71.687477 29,650 220 381 -2304
2021-06-23 22:37:44 GMT 41.497036 -71.682915 29,725 220 380 -2304
2021-06-23 22:37:41 GMT 41.501087 -71.678444 29,900 220 380 -2304
2021-06-23 22:37:36 GMT 41.508728 -71.669937 30,050 220 380 -2304
2021-06-23 22:37:33 GMT 41.511375 -71.667015 30,100 220 380 -2304
2021-06-23 22:37:30 GMT 41.516914 -71.660881 30,275 220 380 -2368
2021-06-23 22:37:26 GMT 41.522175 -71.655006 30,425 220 380 -2368
2021-06-23 22:37:23 GMT 41.525345 -71.651459 30,625 220 380 -2240
2021-06-23 22:37:20 GMT 41.529007 -71.647400 30,875 220 380 -2432
2021-06-23 22:37:16 GMT 41.535816 -71.639801 30,825 220 380 -2304
2021-06-23 22:37:13 GMT 41.539124 -71.636101 30,925 220 380 -2240
2021-06-23 22:37:10 GMT 41.542706 -71.632133 31,025 220 380 -2240
2021-06-23 22:37:06 GMT 41.548103 -71.626137 31,225 220 380 -2240
2021-06-23 22:37:03 GMT 41.552715 -71.621086 31,300 220 380 -2240
2021-06-23 22:37:00 GMT 41.556152 -71.617249 31,400 220 380 -2240
2021-06-23 22:36:55 GMT 41.564304 -71.608185 31,625 220 379 -2304
2021-06-23 22:36:52 GMT 41.568214 -71.603844 31,725 220 379 -2304
2021-06-23 22:36:48 GMT 41.573685 -71.597778 31,900 220 379 -2240
2021-06-23 22:36:45 GMT 41.576454 -71.594704 32,050 220 379 -2304
2021-06-23 22:36:42 GMT 41.580276 -71.590408 32,050 220 379 -2240
2021-06-23 22:36:39 GMT 41.585403 -71.584732 32,225 221 378 -2304
2021-06-23 22:36:35 GMT 41.590256 -71.579300 32,350 221 378 -2304
2021-06-23 22:36:32 GMT 41.599174 -71.569351 32,700 221 378 -2304
2021-06-23 22:36:28 GMT 41.599174 -71.569351 32,825 221 377 -2304
2021-06-23 22:36:25 GMT 41.603531 -71.564445 32,775 220 378 -2304
2021-06-23 22:36:22 GMT 41.608295 -71.559128 32,950 221 378 -2304
2021-06-23 22:36:19 GMT 41.611679 -71.555328 33,175 221 376 -2368
2021-06-23 22:36:15 GMT 41.617516 -71.548782 33,750 221 376 -2240
2021-06-23 22:36:11 GMT 41.622822 -71.542778 33,325 221 376 -2304
2021-06-23 22:36:08 GMT 41.625412 -71.539848 34,250 221 376 -2304
2021-06-23 22:36:04 GMT 41.632233 -71.532234 33,575 221 376 -2304
2021-06-23 22:36:01 GMT 41.638649 -71.524956 33,825 221 376 -2240
2021-06-23 22:35:58 GMT 41.638649 -71.524956 33,750 221 376 -2240
2021-06-23 22:35:54 GMT 41.644794 -71.518059 33,925 221 376 -2368
2021-06-23 22:35:51 GMT 41.649960 -71.512184 34,100 221 376 -2368
2021-06-23 22:35:48 GMT 41.652145 -71.509697 34,250 221 376 -2304
2021-06-23 22:35:45 GMT 41.655968 -71.505478 34,350 221 376 -2304
2021-06-23 22:35:42 GMT 41.661133 -71.499596 34,400 221 376 -2304
2021-06-23 22:35:39 GMT 41.665276 -71.495003 34,500 221 376 -2432
2021-06-23 22:35:35 GMT 41.670864 -71.488678 34,725 220 376 -2176
2021-06-23 22:35:32 GMT 41.679428 -71.479156 34,775 220 375 -1984
2021-06-23 22:35:29 GMT 41.679428 -71.479156 35,200 220 375 -1792
2021-06-23 22:35:26 GMT 41.683502 -71.474678 34,975 220 373 -1344
2021-06-23 22:35:22 GMT 41.687622 -71.470123 35,050 220 373 -1408
2021-06-23 22:35:20 GMT 41.691101 -71.466377 35,125 220 373 -1280
2021-06-23 22:35:16 GMT 41.696732 -71.460258 35,200 222 371 -960
2021-06-23 22:35:13 GMT 41.703636 -71.452713 35,250 221 373 -960
2021-06-23 22:35:10 GMT 41.703636 -71.452713 35,325 224 372 -1024
2021-06-23 22:35:07 GMT 41.707581 -71.448090 35,325 224 372 -1024
2021-06-23 22:35:04 GMT 41.711967 -71.442368 35,400 228 372 -1024
2021-06-23 22:35:01 GMT 41.715088 -71.438026 35,425 230 371 -1024
2021-06-23 22:34:57 GMT 41.719322 -71.431381 35,500 232 372 -1024
2021-06-23 22:34:54 GMT 41.723003 -71.424995 35,575 237 372 -960
2021-06-23 22:34:51 GMT 41.725563 -71.420074 35,600 239 373 -960
2021-06-23 22:34:47 GMT 41.728401 -71.414009 35,700 243 373 -1024
2021-06-23 22:34:44 GMT 41.731567 -71.406281 35,750 246 375 -1024
2021-06-23 22:34:41 GMT 41.733765 -71.400146 35,750 247 375 -1024
2021-06-23 22:34:37 GMT 41.739075 -71.384041 35,850 247 373 -1024
2021-06-23 22:34:34 GMT 41.739075 -71.384041 35,925 247 373 -1024
2021-06-23 22:34:31 GMT 41.740631 -71.379173 35,925 247 373 -960
2021-06-23 22:34:27 GMT 41.743378 -71.370682 36,025 247 372 -1024
2021-06-23 22:34:24 GMT 41.745438 -71.364380 36,075 247 371 -1024
2021-06-23 22:34:20 GMT 41.747955 -71.356575 36,100 247 370 -1024
2021-06-23 22:34:18 GMT 41.749329 -71.352394 36,175 247 370 -960
2021-06-23 22:34:15 GMT 41.751583 -71.345535 36,200 247 370 -1024
2021-06-23 22:34:12 GMT 41.755447 -71.333588 36,250 247 369 -960
2021-06-23 22:34:09 GMT 41.755447 -71.333588 36,300 247 369 -1024
2021-06-23 22:34:07 GMT 41.757660 -71.326797 36,350 247 369 -1024
2021-06-23 22:34:03 GMT 41.760361 -71.318436 36,425 247 368 -1024
2021-06-23 22:34:00 GMT 41.761688 -71.314362 36,450 247 368 -960
2021-06-23 22:33:58 GMT 41.763702 -71.308197 36,525 247 367 -960
2021-06-23 22:33:55 GMT 41.765133 -71.303764 36,525 247 367 -960
2021-06-23 22:33:52 GMT 41.767086 -71.297691 36,600 247 367 -1024
2021-06-23 22:33:49 GMT 41.769787 -71.289391 36,650 247 366 -1024
2021-06-23 22:33:45 GMT 41.771881 -71.282936 36,700 247 365 -960
2021-06-23 22:33:42 GMT 41.773510 -71.277954 36,775 247 365 -960
2021-06-23 22:33:39 GMT 41.776154 -71.269806 36,800 247 365 -1024
2021-06-23 22:33:35 GMT 41.778816 -71.261604 36,875 247 365 -960
2021-06-23 22:33:31 GMT 41.781509 -71.253204 36,950 247 365 -1024
2021-06-23 22:33:28 GMT 41.783569 -71.246773 37,050 247 366 -960
2021-06-23 22:33:25 GMT 41.786179 -71.238663 37,075 247 365 -1024
2021-06-23 22:33:21 GMT 41.788548 -71.231331 37,125 247 365 -960
2021-06-23 22:33:18 GMT 41.789658 -71.227859 37,150 247 365 -960
2021-06-23 22:33:15 GMT 41.792313 -71.219559 37,225 247 366 -960
2021-06-23 22:33:12 GMT 41.794415 -71.212997 37,275 247 366 -960
2021-06-23 22:33:09 GMT 41.796276 -71.207184 37,300 247 366 -1024
2021-06-23 22:33:07 GMT 41.797256 -71.204201 37,425 247 368 -960
2021-06-23 22:33:04 GMT 41.799255 -71.197792 37,375 247 367 -960
2021-06-23 22:33:00 GMT 41.802280 -71.188400 37,450 247 368 -960
2021-06-23 22:32:57 GMT 41.804283 -71.182144 37,500 247 369 -1024
2021-06-23 22:32:54 GMT 41.806099 -71.176460 37,550 247 369 -960
2021-06-23 22:32:51 GMT 41.807831 -71.171120 37,600 247 370 -960
2021-06-23 22:32:48 GMT 41.811684 -71.159019 37,675 247 370 -1024
2021-06-23 22:32:45 GMT 41.811684 -71.159019 37,725 247 370 -1024
2021-06-23 22:32:41 GMT 41.814571 -71.149956 37,750 247 370 -1024
2021-06-23 22:32:38 GMT 41.816940 -71.142654 37,800 247 371 -960
2021-06-23 22:32:36 GMT 41.818497 -71.137787 37,850 247 371 -960
2021-06-23 22:32:33 GMT 41.820190 -71.132545 37,950 247 371 -960
2021-06-23 22:32:29 GMT 41.822937 -71.123863 37,950 247 370 -832
2021-06-23 22:32:26 GMT 41.825272 -71.116684 38,000 247 370 -320
2021-06-23 22:32:23 GMT 41.828842 -71.105576 38,000 247 370 0
2021-06-23 22:32:17 GMT 41.830536 -71.100197 38,000 247 370 0
2021-06-23 22:32:15 GMT 41.832214 -71.094894 38,000 247 369 0
2021-06-23 22:32:12 GMT 41.834354 -71.088188 38,000 247 369 0
2021-06-23 22:32:09 GMT 41.836487 -71.081543 38,000 247 369 0
2021-06-23 22:32:06 GMT 41.838318 -71.075867 38,000 247 369 0
2021-06-23 22:32:03 GMT 41.840973 -71.067497 38,000 247 368 0
2021-06-23 22:31:59 GMT 41.843155 -71.060654 38,000 247 368 0
2021-06-23 22:31:56 GMT 41.845200 -71.054138 38,000 247 368 0
2021-06-23 22:31:53 GMT 41.847198 -71.047958 38,000 247 367 0
2021-06-23 22:31:50 GMT 41.849121 -71.041908 38,000 247 367 0
2021-06-23 22:31:47 GMT 41.851273 -71.035225 38,000 247 367 0
2021-06-23 22:31:45 GMT 41.852966 -71.029984 38,000 247 367 0
2021-06-23 22:31:42 GMT 41.856606 -71.018623 38,000 247 367 0
2021-06-23 22:31:39 GMT 41.856606 -71.018623 38,000 247 366 0
2021-06-23 22:31:36 GMT 41.858608 -71.012367 38,000 247 366 0
2021-06-23 22:31:34 GMT 41.859924 -71.008263 38,000 247 366 0
2021-06-23 22:31:31 GMT 41.861588 -71.002975 38,000 247 366 0
2021-06-23 22:31:28 GMT 41.864502 -70.993904 38,000 247 366 0
2021-06-23 22:31:25 GMT 41.865826 -70.989822 38,000 247 365 0
2021-06-23 22:31:22 GMT 41.868576 -70.981232 38,000 247 365 0
2021-06-23 22:31:19 GMT 41.870667 -70.974686 38,000 247 365 0
2021-06-23 22:31:16 GMT 41.871872 -70.970802 38,000 247 364 0
2021-06-23 22:31:14 GMT 41.873611 -70.965439 38,000 247 364 0
2021-06-23 22:31:11 GMT 41.875599 -70.959099 38,000 247 364 0
2021-06-23 22:31:08 GMT 41.877277 -70.953926 38,000 247 364 0
2021-06-23 22:31:05 GMT 41.880955 -70.942360 38,000 247 363 0
2021-06-23 22:30:59 GMT 41.883141 -70.935524 38,000 247 363 0
2021-06-23 22:30:55 GMT 41.886120 -70.926201 38,000 247 362 0
2021-06-23 22:30:52 GMT 41.887146 -70.922943 38,000 247 362 0
2021-06-23 22:30:48 GMT 41.890778 -70.911575 38,000 247 362 0
2021-06-23 22:30:45 GMT 41.892197 -70.907135 38,000 247 362 0
2021-06-23 22:30:42 GMT 41.894806 -70.898895 38,000 247 361 0
2021-06-23 22:30:39 GMT 41.896408 -70.893883 38,000 247 361 0
2021-06-23 22:30:35 GMT 41.898735 -70.886665 38,000 247 361 0
2021-06-23 22:30:32 GMT 41.900738 -70.880341 38,000 247 360 0
2021-06-23 22:30:28 GMT 41.903275 -70.872429 38,000 247 359 0
2021-06-23 22:30:24 GMT 41.906509 -70.862267 38,000 247 359 0
2021-06-23 22:30:21 GMT 41.907627 -70.858810 38,000 247 359 0
2021-06-23 22:30:18 GMT 41.909817 -70.851852 38,000 247 359 -64
2021-06-23 22:30:14 GMT 41.912888 -70.842209 38,000 247 358 0
2021-06-23 22:30:11 GMT 41.914192 -70.838120 38,000 247 358 64
2021-06-23 22:30:08 GMT 41.916473 -70.830963 38,000 247 358 64
2021-06-23 22:30:05 GMT 41.918896 -70.823425 38,000 247 358 -64
2021-06-23 22:30:02 GMT 41.920944 -70.816933 38,000 247 358 0
2021-06-23 22:29:58 GMT 41.923409 -70.809311 38,000 247 359 64
2021-06-23 22:29:54 GMT 41.927399 -70.796707 38,000 247 359 64
2021-06-23 22:29:51 GMT 41.927399 -70.796707 38,000 247 359 64
2021-06-23 22:29:47 GMT 41.930161 -70.787979 38,000 247 359 0
2021-06-23 22:29:43 GMT 41.932674 -70.779991 38,000 248 359 0
2021-06-23 22:29:40 GMT 41.934265 -70.774986 38,000 248 359 0
2021-06-23 22:29:36 GMT 41.937561 -70.764603 38,000 248 360 0
2021-06-23 22:29:33 GMT 41.939190 -70.759491 38,000 248 360 0
2021-06-23 22:29:31 GMT 41.940857 -70.754265 38,000 248 360 0
2021-06-23 22:29:28 GMT 41.942780 -70.748085 38,000 248 360 0
2021-06-23 22:29:25 GMT 41.944336 -70.743149 38,000 248 360 0
2021-06-23 22:29:22 GMT 41.946964 -70.734833 38,000 248 360 0
2021-06-23 22:29:19 GMT 41.951477 -70.720558 38,000 248 360 0
2021-06-23 22:29:15 GMT 41.951477 -70.720558 38,000 248 360 0
2021-06-23 22:29:11 GMT 41.954136 -70.711967 38,000 248 361 0
2021-06-23 22:29:08 GMT 41.955437 -70.707878 38,000 248 361 0
2021-06-23 22:29:05 GMT 41.957394 -70.701683 38,000 248 361 0
2021-06-23 22:29:02 GMT 41.959999 -70.693443 38,000 248 361 0
2021-06-23 22:28:59 GMT 41.960999 -70.690216 38,000 248 361 0
2021-06-23 22:28:56 GMT 41.963654 -70.681793 38,000 248 361 0
2021-06-23 22:28:52 GMT 41.965492 -70.675880 38,000 248 361 0
2021-06-23 22:28:50 GMT 41.967632 -70.669106 38,000 248 361 0
2021-06-23 22:28:47 GMT 41.969101 -70.664436 38,000 248 361 0
2021-06-23 22:28:44 GMT 41.971081 -70.658188 38,000 248 361 0
2021-06-23 22:28:41 GMT 41.974339 -70.647903 38,000 248 360 0
2021-06-23 22:28:39 GMT 41.974339 -70.647903 38,000 248 360 0
2021-06-23 22:28:35 GMT 41.976700 -70.640404 38,000 248 360 0
2021-06-23 22:28:31 GMT 41.979858 -70.630295 38,000 248 359 0
2021-06-23 22:28:28 GMT 41.981133 -70.626312 38,000 248 359 0
2021-06-23 22:28:25 GMT 41.983509 -70.618713 38,000 248 358 0
2021-06-23 22:28:21 GMT 41.986023 -70.610725 38,000 248 358 0
2021-06-23 22:28:18 GMT 41.987961 -70.604698 38,000 248 357 0
2021-06-23 22:28:15 GMT 41.989792 -70.598770 38,000 248 357 0
2021-06-23 22:28:12 GMT 41.991840 -70.592400 38,000 248 356 0
2021-06-23 22:28:10 GMT 41.993702 -70.586456 38,000 248 356 0
2021-06-23 22:28:06 GMT 41.995472 -70.580772 38,000 248 356 0
2021-06-23 22:28:03 GMT 41.997070 -70.575798 38,000 247 355 0
2021-06-23 22:28:00 GMT 41.999039 -70.569496 38,000 248 354 0
2021-06-23 22:27:57 GMT 42.003990 -70.553818 38,000 248 354 0
2021-06-23 22:27:54 GMT 42.003990 -70.553818 38,000 248 354 0
2021-06-23 22:27:49 GMT 42.006042 -70.547272 38,000 247 353 0
2021-06-23 22:27:46 GMT 42.008274 -70.540276 38,000 247 353 0
2021-06-23 22:27:43 GMT 42.010345 -70.533722 38,000 247 353 0
2021-06-23 22:27:40 GMT 42.012039 -70.528297 38,000 247 353 0
2021-06-23 22:27:37 GMT 42.013962 -70.522240 38,000 248 351 64
2021-06-23 22:27:34 GMT 42.018051 -70.509293 38,000 248 351 0
2021-06-23 22:27:31 GMT 42.018982 -70.506294 38,000 248 351 0
2021-06-23 22:27:26 GMT 42.020798 -70.500420 38,000 248 351 0
2021-06-23 22:27:23 GMT 42.023403 -70.492241 38,000 248 351 0
2021-06-23 22:27:19 GMT 42.025265 -70.486176 38,000 248 351 0
2021-06-23 22:27:15 GMT 42.027832 -70.478043 38,000 248 351 0
2021-06-23 22:27:11 GMT 42.030258 -70.470238 38,000 248 350 0
2021-06-23 22:27:08 GMT 42.032017 -70.464523 38,000 248 350 0
2021-06-23 22:27:05 GMT 42.034286 -70.457191 38,000 248 350 0
2021-06-23 22:27:02 GMT 42.036530 -70.449890 38,000 248 350 0
2021-06-23 22:26:59 GMT 42.037674 -70.446213 38,000 248 350 -64
2021-06-23 22:26:57 GMT 42.038773 -70.442589 38,000 248 349 64
2021-06-23 22:26:54 GMT 42.040512 -70.436974 38,000 246 348 0
2021-06-23 22:26:50 GMT 42.043808 -70.426857 38,000 245 348 -64
2021-06-23 22:26:48 GMT 42.047241 -70.417122 38,000 245 347 0
2021-06-23 22:26:45 GMT 42.052032 -70.403839 38,000 245 346 0
2021-06-23 22:26:39 GMT 42.052032 -70.403839 38,000 245 346 0
2021-06-23 22:26:35 GMT 42.053848 -70.398796 38,000 245 346 0
2021-06-23 22:26:32 GMT 42.056259 -70.392090 38,000 245 346 0
2021-06-23 22:26:29 GMT 42.057770 -70.387840 38,000 245 346 0
2021-06-23 22:26:27 GMT 42.059200 -70.383911 38,000 245 346 0
2021-06-23 22:26:24 GMT 42.061577 -70.377266 38,000 245 346 0
2021-06-23 22:26:21 GMT 42.063629 -70.371613 38,000 245 346 0
2021-06-23 22:26:17 GMT 42.066101 -70.364624 38,000 245 346 0
2021-06-23 22:26:14 GMT 42.068939 -70.356697 38,000 245 345 0
2021-06-23 22:26:11 GMT 42.070839 -70.351402 38,000 245 345 0
2021-06-23 22:26:08 GMT 42.072235 -70.347565 38,000 245 345 0
2021-06-23 22:26:06 GMT 42.074379 -70.341560 38,000 245 345 0
2021-06-23 22:26:03 GMT 42.075806 -70.337593 38,000 245 345 0
2021-06-23 22:25:59 GMT 42.078754 -70.329430 38,000 245 345 0
2021-06-23 22:25:57 GMT 42.081081 -70.322845 38,000 245 345 0
2021-06-23 22:25:53 GMT 42.082897 -70.317863 38,000 245 344 0
2021-06-23 22:25:49 GMT 42.086063 -70.308990 38,000 245 344 0
2021-06-23 22:25:47 GMT 42.087845 -70.304070 38,000 245 344 0
2021-06-23 22:25:44 GMT 42.089741 -70.298767 38,000 245 344 0
2021-06-23 22:25:41 GMT 42.091881 -70.292824 38,000 245 344 0
2021-06-23 22:25:38 GMT 42.093292 -70.288841 38,000 245 343 0
2021-06-23 22:25:35 GMT 42.095467 -70.282799 38,000 245 343 0
2021-06-23 22:25:32 GMT 42.097366 -70.277542 38,000 245 343 0
2021-06-23 22:25:28 GMT 42.100773 -70.267982 38,000 245 343 -64
2021-06-23 22:25:25 GMT 42.102402 -70.263435 38,000 245 343 0
2021-06-23 22:25:22 GMT 42.104591 -70.257378 38,000 245 343 0
2021-06-23 22:25:17 GMT 42.110046 -70.242088 38,000 245 344 0
2021-06-23 22:25:14 GMT 42.110046 -70.242088 38,000 245 344 0
2021-06-23 22:25:11 GMT 42.111786 -70.237282 38,000 245 344 -64
2021-06-23 22:25:07 GMT 42.115528 -70.226715 38,000 245 344 0
2021-06-23 22:25:04 GMT 42.117580 -70.220970 38,000 245 344 0
2021-06-23 22:25:01 GMT 42.121719 -70.209442 38,000 245 344 0
2021-06-23 22:24:57 GMT 42.121719 -70.209442 38,000 245 344 0
2021-06-23 22:24:54 GMT 42.124237 -70.202377 38,000 245 344 0
2021-06-23 22:24:51 GMT 42.125866 -70.197784 38,000 245 346 64
2021-06-23 22:24:48 GMT 42.130428 -70.185005 38,000 245 345 0
2021-06-23 22:24:44 GMT 42.130428 -70.185005 38,000 245 345 0
2021-06-23 22:24:41 GMT 42.132568 -70.179001 38,000 245 346 64
2021-06-23 22:24:38 GMT 42.135082 -70.172043 38,000 245 346 0
2021-06-23 22:24:34 GMT 42.137085 -70.166420 38,000 245 346 0
2021-06-23 22:24:31 GMT 42.140167 -70.157814 38,000 245 345 0
2021-06-23 22:24:27 GMT 42.142250 -70.151855 38,000 245 347 0
2021-06-23 22:24:25 GMT 42.146812 -70.139084 38,000 245 346 0
2021-06-23 22:24:21 GMT 42.146812 -70.139084 38,000 245 346 -64
2021-06-23 22:24:18 GMT 42.148590 -70.134094 38,000 245 346 0
2021-06-23 22:24:16 GMT 42.149654 -70.131096 38,000 245 346 0
2021-06-23 22:24:11 GMT 42.153332 -70.120811 38,000 245 346 64
2021-06-23 22:24:08 GMT 42.155563 -70.114616 38,000 245 346 0
2021-06-23 22:24:06 GMT 42.156876 -70.110809 38,000 245 346 0
2021-06-23 22:24:03 GMT 42.158569 -70.106194 38,000 245 346 0
2021-06-23 22:24:00 GMT 42.161572 -70.097755 38,000 245 346 0
2021-06-23 22:23:57 GMT 42.162689 -70.094627 38,000 245 346 0
2021-06-23 22:23:54 GMT 42.165482 -70.086639 38,000 245 346 0
2021-06-23 22:23:51 GMT 42.167763 -70.080254 38,000 245 346 0
2021-06-23 22:23:47 GMT 42.169739 -70.074730 38,000 245 346 0
2021-06-23 22:23:44 GMT 42.172485 -70.066933 38,000 245 346 0
2021-06-23 22:23:40 GMT 42.174683 -70.060753 38,000 245 346 0
2021-06-23 22:23:37 GMT 42.176834 -70.054695 38,000 245 346 0
2021-06-23 22:23:33 GMT 42.179810 -70.046333 38,000 245 346 64
2021-06-23 22:23:30 GMT 42.181213 -70.042374 38,000 245 346 -64
2021-06-23 22:23:27 GMT 42.183681 -70.035355 38,000 245 346 -64
2021-06-23 22:23:23 GMT 42.186939 -70.026215 38,000 245 346 64
2021-06-23 22:23:20 GMT 42.190666 -70.015739 38,000 245 346 64
2021-06-23 22:23:17 GMT 42.190666 -70.015739 38,000 245 347 -64
2021-06-23 22:23:13 GMT 42.193832 -70.006798 38,000 245 347 0
2021-06-23 22:23:10 GMT 42.196114 -70.000351 38,000 245 347 64
2021-06-23 22:23:06 GMT 42.197937 -69.995209 38,000 245 347 64
2021-06-23 22:23:04 GMT 42.199696 -69.990257 38,000 245 347 -64
2021-06-23 22:23:00 GMT 42.202816 -69.981506 38,000 245 347 64
2021-06-23 22:22:57 GMT 42.204865 -69.975822 38,000 245 347 0
2021-06-23 22:22:54 GMT 42.206585 -69.970963 38,000 245 347 0
2021-06-23 22:22:49 GMT 42.210030 -69.961189 38,000 245 347 0
2021-06-23 22:22:45 GMT 42.212173 -69.955193 38,000 245 347 0
2021-06-23 22:22:42 GMT 42.215195 -69.946709 38,000 245 347 0
2021-06-23 22:22:38 GMT 42.217300 -69.940651 38,000 245 347 0
2021-06-23 22:22:35 GMT 42.219818 -69.933594 38,000 245 347 0
2021-06-23 22:22:32 GMT 42.221970 -69.927544 38,000 245 347 0
2021-06-23 22:22:29 GMT 42.224350 -69.920677 38,000 245 347 -64
2021-06-23 22:22:26 GMT 42.226044 -69.915993 38,000 245 347 -64
2021-06-23 22:22:22 GMT 42.228470 -69.909126 38,000 245 347 0
2021-06-23 22:22:19 GMT 42.230942 -69.902138 38,000 245 348 -64
2021-06-23 22:22:16 GMT 42.235474 -69.889214 38,000 245 348 0
2021-06-23 22:22:13 GMT 42.235474 -69.889214 38,000 245 348 0
2021-06-23 22:22:08 GMT 42.237991 -69.882164 38,000 245 348 0
2021-06-23 22:22:05 GMT 42.241268 -69.872856 38,000 245 348 0
2021-06-23 22:22:02 GMT 42.242340 -69.869804 38,000 245 348 0
2021-06-23 22:21:58 GMT 42.245552 -69.860718 38,000 245 348 0
2021-06-23 22:21:55 GMT 42.247181 -69.855995 38,000 245 348 0
2021-06-23 22:21:52 GMT 42.249508 -69.849350 38,000 245 347 0
2021-06-23 22:21:47 GMT 42.252731 -69.840279 38,000 245 347 0
2021-06-23 22:21:44 GMT 42.255707 -69.831848 38,000 245 347 0
2021-06-23 22:21:40 GMT 42.257721 -69.826164 38,000 245 347 0
2021-06-23 22:21:35 GMT 42.261471 -69.815559 38,000 245 347 0
2021-06-23 22:21:31 GMT 42.263985 -69.808281 38,000 245 347 0
2021-06-23 22:21:27 GMT 42.268410 -69.795822 38,000 245 347 0
2021-06-23 22:21:24 GMT 42.268410 -69.795822 38,000 245 347 0
2021-06-23 22:21:21 GMT 42.270493 -69.789841 38,000 245 347 0
2021-06-23 22:21:18 GMT 42.273376 -69.781662 38,000 245 347 0
2021-06-23 22:21:15 GMT 42.275112 -69.776665 38,000 245 347 0
2021-06-23 22:21:13 GMT 42.276230 -69.773529 38,000 245 347 0
2021-06-23 22:21:10 GMT 42.278557 -69.766891 38,000 245 347 -64
2021-06-23 22:21:05 GMT 42.281342 -69.759003 38,000 245 347 0
2021-06-23 22:21:02 GMT 42.283722 -69.752258 38,000 245 347 0
2021-06-23 22:20:59 GMT 42.285446 -69.747406 38,000 245 347 0
2021-06-23 22:20:56 GMT 42.287888 -69.740463 38,000 245 347 0
2021-06-23 22:20:53 GMT 42.293289 -69.725044 38,000 245 347 0
2021-06-23 22:20:49 GMT 42.293289 -69.725044 38,000 245 347 -64
2021-06-23 22:20:46 GMT 42.295349 -69.719177 38,000 245 347 0
2021-06-23 22:20:43 GMT 42.297363 -69.713364 38,000 245 347 0
2021-06-23 22:20:40 GMT 42.299503 -69.707291 38,000 245 348 64
2021-06-23 22:20:35 GMT 42.302353 -69.699203 38,000 245 348 0
2021-06-23 22:20:31 GMT 42.304779 -69.692337 38,000 245 348 0
2021-06-23 22:20:28 GMT 42.306839 -69.686401 38,000 245 349 -64
2021-06-23 22:20:25 GMT 42.309608 -69.678490 38,000 245 349 -128
2021-06-23 22:20:21 GMT 42.312378 -69.670486 38,000 245 349 64
2021-06-23 22:20:16 GMT 42.314960 -69.663155 38,000 245 349 0
2021-06-23 22:20:12 GMT 42.318546 -69.652939 38,000 245 349 -64
2021-06-23 22:20:08 GMT 42.321011 -69.645844 38,000 245 349 -64
2021-06-23 22:20:05 GMT 42.323433 -69.638947 38,000 245 349 0
2021-06-23 22:20:01 GMT 42.325562 -69.632973 38,000 245 349 -64
2021-06-23 22:19:57 GMT 42.328217 -69.625290 38,000 245 349 0
2021-06-23 22:19:53 GMT 42.330963 -69.617424 38,000 245 349 0
2021-06-23 22:19:50 GMT 42.333801 -69.609375 38,000 245 349 0
2021-06-23 22:19:46 GMT 42.335770 -69.603752 38,000 245 349 0
2021-06-23 22:19:43 GMT 42.338470 -69.596092 38,000 245 349 0
2021-06-23 22:19:40 GMT 42.339935 -69.591835 38,000 245 349 64
2021-06-23 22:19:36 GMT 42.343357 -69.582100 38,000 245 349 -64
2021-06-23 22:19:32 GMT 42.345264 -69.576607 38,000 245 349 -192
2021-06-23 22:19:29 GMT 42.347305 -69.570801 38,000 245 349 64
2021-06-23 22:19:26 GMT 42.349365 -69.564865 38,000 245 350 128
2021-06-23 22:19:22 GMT 42.352619 -69.555527 38,000 245 350 0
2021-06-23 22:19:20 GMT 42.354435 -69.550423 38,000 245 350 -64
2021-06-23 22:19:17 GMT 42.356689 -69.543953 38,000 245 350 -64
2021-06-23 22:19:12 GMT 42.359436 -69.536026 38,000 245 351 0
2021-06-23 22:19:08 GMT 42.361652 -69.529594 38,000 245 351 0
2021-06-23 22:19:05 GMT 42.364197 -69.522362 38,000 245 351 0
2021-06-23 22:19:02 GMT 42.366531 -69.515617 38,000 245 352 0
2021-06-23 22:18:58 GMT 42.368587 -69.509796 38,000 245 352 64
2021-06-23 22:18:55 GMT 42.373383 -69.495872 38,000 245 352 128
2021-06-23 22:18:52 GMT 42.373383 -69.495872 38,000 245 352 64
2021-06-23 22:18:49 GMT 42.375523 -69.489677 38,000 245 352 -64
2021-06-23 22:18:46 GMT 42.377945 -69.482712 38,000 245 352 -64
2021-06-23 22:18:43 GMT 42.379669 -69.477730 38,000 245 352 128
2021-06-23 22:18:40 GMT 42.381042 -69.473854 38,000 245 352 128
2021-06-23 22:18:38 GMT 42.386490 -69.458122 38,000 245 352 -64
2021-06-23 22:18:33 GMT 42.386490 -69.458122 38,000 245 352 0
2021-06-23 22:18:30 GMT 42.388699 -69.451859 38,000 246 352 -64
2021-06-23 22:18:27 GMT 42.390839 -69.445663 38,000 245 352 0
2021-06-23 22:18:24 GMT 42.393261 -69.438705 38,000 245 352 0
2021-06-23 22:18:20 GMT 42.394981 -69.433723 38,000 245 352 0
2021-06-23 22:18:18 GMT 42.397430 -69.426666 38,000 245 352 -64
2021-06-23 22:18:13 GMT 42.402199 -69.412834 38,000 245 352 0
2021-06-23 22:18:10 GMT 42.402199 -69.412834 38,000 245 352 0
2021-06-23 22:18:07 GMT 42.404526 -69.406189 38,000 245 351 64
2021-06-23 22:18:03 GMT 42.407043 -69.398888 38,000 245 351 0
2021-06-23 22:18:00 GMT 42.410431 -69.389153 38,000 245 351 0
2021-06-23 22:17:54 GMT 42.413727 -69.379601 38,000 245 351 0
2021-06-23 22:17:49 GMT 42.418762 -69.365112 38,000 245 351 0
2021-06-23 22:17:46 GMT 42.418762 -69.365112 38,000 245 351 0
2021-06-23 22:17:43 GMT 42.420586 -69.359886 38,000 245 351 0
2021-06-23 22:17:39 GMT 42.423332 -69.351959 38,000 245 351 0
2021-06-23 22:17:37 GMT 42.425659 -69.345192 38,000 245 351 0
2021-06-23 22:17:34 GMT 42.426910 -69.341583 38,000 245 350 0
2021-06-23 22:17:31 GMT 42.429153 -69.335098 38,000 245 350 0
2021-06-23 22:17:28 GMT 42.430481 -69.331284 38,000 245 350 0
2021-06-23 22:17:26 GMT 42.435066 -69.318108 38,000 245 349 0
2021-06-23 22:17:23 GMT 42.435066 -69.318108 38,000 245 349 0
2021-06-23 22:17:19 GMT 42.437164 -69.312057 38,000 245 349 0
2021-06-23 22:17:16 GMT 42.439255 -69.306038 38,000 245 349 0
2021-06-23 22:17:13 GMT 42.441376 -69.299759 38,000 245 349 0
2021-06-23 22:17:10 GMT 42.443630 -69.293327 38,000 245 349 0
2021-06-23 22:17:07 GMT 42.445084 -69.289085 38,000 245 349 0
2021-06-23 22:17:04 GMT 42.447144 -69.283157 38,000 245 349 0
2021-06-23 22:17:01 GMT 42.449310 -69.276909 38,000 245 349 0
2021-06-23 22:16:58 GMT 42.451813 -69.269676 38,000 245 349 0
2021-06-23 22:16:55 GMT 42.454151 -69.262856 38,000 245 349 0
2021-06-23 22:16:52 GMT 42.456161 -69.257065 38,000 245 349 0
2021-06-23 22:16:48 GMT 42.458633 -69.249886 38,000 245 349 0
2021-06-23 22:16:45 GMT 42.460327 -69.244957 38,000 245 349 0
2021-06-23 22:16:42 GMT 42.462341 -69.239212 38,000 246 350 0
2021-06-23 22:16:38 GMT 42.465820 -69.229095 38,000 246 350 0
2021-06-23 22:16:34 GMT 42.468258 -69.222046 38,000 246 350 0
2021-06-23 22:16:31 GMT 42.470211 -69.216293 38,000 246 350 0
2021-06-23 22:16:27 GMT 42.472866 -69.208565 38,000 246 351 64
2021-06-23 22:16:24 GMT 42.475330 -69.201408 38,000 246 351 0
2021-06-23 22:16:19 GMT 42.480080 -69.187675 38,000 246 351 -64
2021-06-23 22:16:13 GMT 42.484360 -69.175224 38,000 246 350 0
2021-06-23 22:16:10 GMT 42.484360 -69.175224 38,000 246 350 0
2021-06-23 22:16:07 GMT 42.487156 -69.167175 38,000 246 350 0
2021-06-23 22:16:03 GMT 42.489532 -69.160210 38,000 246 350 0
2021-06-23 22:15:59 GMT 42.492874 -69.150574 38,000 246 350 0
2021-06-23 22:15:56 GMT 42.494278 -69.146477 38,000 246 350 0
2021-06-23 22:15:50 GMT 42.498734 -69.133530 38,000 246 350 0
2021-06-23 22:15:45 GMT 42.501251 -69.126167 38,000 245 349 64
2021-06-23 22:15:39 GMT 42.505875 -69.112679 38,000 245 349 0
2021-06-23 22:15:36 GMT 42.508060 -69.106430 38,000 245 349 0
2021-06-23 22:15:32 GMT 42.510853 -69.098320 38,000 246 350 0
2021-06-23 22:15:28 GMT 42.513474 -69.090645 38,000 246 350 -64
2021-06-23 22:15:25 GMT 42.515087 -69.085991 38,000 246 350 -64
2021-06-23 22:15:20 GMT 42.518253 -69.076668 38,000 246 350 0
2021-06-23 22:15:17 GMT 42.520863 -69.069130 38,000 246 350 0
2021-06-23 22:15:15 GMT 42.522163 -69.065361 38,000 246 350 0
2021-06-23 22:15:08 GMT 42.526932 -69.051384 38,000 246 350 0
2021-06-23 22:15:05 GMT 42.529099 -69.045113 38,000 246 350 -64
2021-06-23 22:15:00 GMT 42.532780 -69.034378 38,000 246 350 0
2021-06-23 22:14:56 GMT 42.534779 -69.028442 38,000 246 350 0
2021-06-23 22:14:54 GMT 42.536224 -69.024353 38,000 246 350 -64
2021-06-23 22:14:49 GMT 42.539795 -69.013802 38,000 246 350 0
2021-06-23 22:14:46 GMT 42.541809 -69.007935 38,000 246 350 64
2021-06-23 22:14:42 GMT 42.544510 -69.000069 38,000 246 350 0
2021-06-23 22:14:39 GMT 42.546890 -68.993080 38,000 246 351 -64
2021-06-23 22:14:36 GMT 42.548584 -68.988152 38,000 246 351 -64
2021-06-23 22:14:32 GMT 42.551353 -68.980087 38,000 246 351 0
2021-06-23 22:14:27 GMT 42.554424 -68.971085 38,000 246 351 0
2021-06-23 22:14:24 GMT 42.556137 -68.966049 38,000 246 351 0
2021-06-23 22:14:22 GMT 42.558105 -68.960243 38,000 246 351 -64
2021-06-23 22:14:17 GMT 42.561447 -68.950508 38,000 246 351 0
2021-06-23 22:14:14 GMT 42.562866 -68.946327 38,000 246 351 0
2021-06-23 22:14:11 GMT 42.565338 -68.939148 38,000 246 351 64
2021-06-23 22:14:08 GMT 42.568176 -68.930779 38,000 246 351 0
2021-06-23 22:14:05 GMT 42.569366 -68.927261 38,000 246 351 0
2021-06-23 22:14:02 GMT 42.572163 -68.919090 38,000 246 351 0
2021-06-23 22:13:58 GMT 42.574219 -68.912994 38,000 246 351 0
2021-06-23 22:13:55 GMT 42.576920 -68.905067 38,000 246 351 0
2021-06-23 22:13:51 GMT 42.579144 -68.898582 38,000 246 351 -64
2021-06-23 22:13:47 GMT 42.581985 -68.890221 38,000 246 351 64
2021-06-23 22:13:41 GMT 42.586079 -68.878212 38,000 246 351 -64
2021-06-23 22:13:37 GMT 42.589279 -68.868797 38,000 246 351 0
2021-06-23 22:13:34 GMT 42.590595 -68.864861 38,000 246 350 0
2021-06-23 22:13:31 GMT 42.593536 -68.856186 38,000 246 350 -64
2021-06-23 22:13:26 GMT 42.596088 -68.848763 38,000 246 350 0
2021-06-23 22:13:23 GMT 42.598114 -68.842888 38,000 246 350 64
2021-06-23 22:13:20 GMT 42.600311 -68.836273 38,000 246 350 -64
2021-06-23 22:13:17 GMT 42.602280 -68.830528 38,000 246 350 64
2021-06-23 22:13:13 GMT 42.604797 -68.823166 38,000 246 350 64
2021-06-23 22:13:09 GMT 42.607727 -68.814613 38,000 246 350 0
2021-06-23 22:13:06 GMT 42.609962 -68.807945 38,000 246 350 0
2021-06-23 22:13:03 GMT 42.611343 -68.803818 38,000 246 349 0
2021-06-23 22:12:59 GMT 42.614456 -68.794640 38,000 246 349 0
2021-06-23 22:12:53 GMT 42.619125 -68.780907 38,000 246 349 0
2021-06-23 22:12:48 GMT 42.621601 -68.773651 38,000 246 349 0
2021-06-23 22:12:45 GMT 42.624020 -68.766495 38,000 246 349 0
2021-06-23 22:12:42 GMT 42.625900 -68.761055 38,000 246 349 0
2021-06-23 22:12:36 GMT 42.630432 -68.747513 38,000 246 348 0
2021-06-23 22:12:29 GMT 42.635147 -68.733650 38,000 246 348 -64
2021-06-23 22:12:24 GMT 42.637573 -68.726540 38,000 246 347 0
2021-06-23 22:12:21 GMT 42.640549 -68.717613 38,000 246 347 0
2021-06-23 22:12:18 GMT 42.641850 -68.713737 38,000 246 347 0
2021-06-23 22:12:12 GMT 42.645527 -68.702873 38,000 246 347 0
2021-06-23 22:12:09 GMT 42.648132 -68.695145 38,000 246 347 64
2021-06-23 22:12:05 GMT 42.651299 -68.685883 38,000 246 347 0
2021-06-23 22:12:00 GMT 42.653595 -68.679031 38,000 246 347 64
2021-06-23 22:11:57 GMT 42.655975 -68.672104 38,000 246 346 0
2021-06-23 22:11:54 GMT 42.658035 -68.665985 38,000 246 346 -64
2021-06-23 22:11:48 GMT 42.662521 -68.652756 38,000 246 347 64
2021-06-23 22:11:41 GMT 42.667053 -68.639267 38,000 246 347 0
2021-06-23 22:11:36 GMT 42.670029 -68.630409 38,000 246 348 0
2021-06-23 22:11:33 GMT 42.672043 -68.624413 38,000 246 348 0
2021-06-23 22:11:30 GMT 42.674194 -68.618111 38,000 246 348 64
2021-06-23 22:11:25 GMT 42.677181 -68.609238 38,000 246 348 -64
2021-06-23 22:11:22 GMT 42.680115 -68.600487 38,000 246 348 -64
2021-06-23 22:11:17 GMT 42.683304 -68.591080 38,000 246 348 64
2021-06-23 22:11:12 GMT 42.686874 -68.580528 38,000 246 348 -64
2021-06-23 22:11:09 GMT 42.688820 -68.574677 38,000 246 348 -64
2021-06-23 22:11:06 GMT 42.690262 -68.570419 38,000 246 348 0
2021-06-23 22:11:02 GMT 42.692825 -68.562798 38,000 246 349 0
2021-06-23 22:10:58 GMT 42.695385 -68.555199 38,000 246 349 0
2021-06-23 22:10:54 GMT 42.698086 -68.547279 38,000 246 349 64
2021-06-23 22:10:49 GMT 42.700878 -68.538910 38,000 246 349 -128
2021-06-23 22:10:46 GMT 42.704407 -68.528404 38,000 246 349 64
2021-06-23 22:10:42 GMT 42.706512 -68.522179 38,000 246 350 0
2021-06-23 22:10:38 GMT 42.708481 -68.516235 38,000 246 350 0
2021-06-23 22:10:35 GMT 42.711044 -68.508682 38,000 246 350 0
2021-06-23 22:10:29 GMT 42.715393 -68.495697 38,000 246 350 -64
2021-06-23 22:10:25 GMT 42.717777 -68.488579 38,000 246 350 0
2021-06-23 22:10:18 GMT 42.722443 -68.474663 38,000 246 351 -64
2021-06-23 22:10:15 GMT 42.724854 -68.467560 38,000 246 351 0
2021-06-23 22:10:11 GMT 42.727844 -68.458618 38,000 246 351 0
2021-06-23 22:10:08 GMT 42.729218 -68.454376 38,000 246 351 0
2021-06-23 22:10:04 GMT 42.731873 -68.446571 38,000 246 351 0
2021-06-23 22:10:00 GMT 42.734444 -68.438820 38,000 246 352 0
2021-06-23 22:09:57 GMT 42.736259 -68.433388 38,000 246 352 0
2021-06-23 22:09:53 GMT 42.738785 -68.425850 38,000 246 352 64
2021-06-23 22:09:47 GMT 42.743427 -68.412056 38,000 246 352 -64
2021-06-23 22:09:44 GMT 42.745880 -68.404747 38,000 246 352 0
2021-06-23 22:09:40 GMT 42.748215 -68.397697 38,000 246 352 64
2021-06-23 22:09:36 GMT 42.750828 -68.389893 38,000 246 352 0
2021-06-23 22:09:33 GMT 42.752785 -68.384079 38,000 246 352 0
2021-06-23 22:09:29 GMT 42.755219 -68.376724 38,000 246 352 0
2021-06-23 22:09:26 GMT 42.757599 -68.369667 38,000 246 352 0
2021-06-23 22:09:22 GMT 42.759720 -68.363319 38,000 246 352 64
2021-06-23 22:09:19 GMT 42.762142 -68.356041 38,000 246 352 64
2021-06-23 22:09:11 GMT 42.768127 -68.338020 38,000 246 352 64
2021-06-23 22:09:08 GMT 42.769821 -68.333023 38,000 246 352 0
2021-06-23 22:09:02 GMT 42.773712 -68.321350 38,000 246 352 0
2021-06-23 22:08:58 GMT 42.776199 -68.314011 38,000 246 352 64
2021-06-23 22:08:55 GMT 42.777832 -68.309059 38,000 246 351 -64
2021-06-23 22:08:52 GMT 42.780437 -68.301300 38,000 246 351 -64
2021-06-23 22:08:48 GMT 42.783005 -68.293571 38,000 246 351 0
2021-06-23 22:08:45 GMT 42.785706 -68.285522 38,000 246 351 0
2021-06-23 22:08:42 GMT 42.787170 -68.281090 38,000 246 351 0
2021-06-23 22:08:38 GMT 42.789234 -68.274986 38,000 246 351 0
2021-06-23 22:08:35 GMT 42.791382 -68.268478 38,000 246 351 0
2021-06-23 22:08:25 GMT 42.798405 -68.247452 38,000 246 350 0
2021-06-23 22:08:20 GMT 42.801041 -68.239517 38,000 246 350 0
2021-06-23 22:08:17 GMT 42.803665 -68.231552 38,000 246 350 0
2021-06-23 22:08:14 GMT 42.805664 -68.225410 38,000 246 351 0
2021-06-23 22:08:07 GMT 42.811020 -68.209320 38,000 246 350 0
2021-06-23 22:08:03 GMT 42.813068 -68.203194 38,000 246 350 0
2021-06-23 22:07:57 GMT 42.816978 -68.191353 38,000 246 350 0
2021-06-23 22:07:54 GMT 42.818981 -68.185341 38,000 246 350 0
2021-06-23 22:07:51 GMT 42.820953 -68.179428 38,000 246 349 0
2021-06-23 22:07:45 GMT 42.826847 -68.161667 38,000 246 349 64
2021-06-23 22:07:42 GMT 42.826847 -68.161667 38,000 246 349 64
2021-06-23 22:07:33 GMT 42.832760 -68.143875 38,000 246 349 64
2021-06-23 22:07:27 GMT 42.836998 -68.131058 38,000 246 349 0
2021-06-23 22:07:23 GMT 42.839977 -68.122032 38,000 246 349 0
2021-06-23 22:07:13 GMT 42.846085 -68.103546 38,000 246 348 0
2021-06-23 22:07:04 GMT 42.852631 -68.083740 38,000 246 348 -64
2021-06-23 22:06:56 GMT 42.857849 -68.067970 38,000 246 347 0
2021-06-23 22:06:53 GMT 42.859806 -68.062134 38,000 246 347 0
2021-06-23 22:06:47 GMT 42.863903 -68.049774 38,000 246 347 0
2021-06-23 22:06:43 GMT 42.866047 -68.043167 38,000 246 347 0
2021-06-23 22:06:33 GMT 42.873001 -68.022171 38,000 246 347 0
2021-06-23 22:06:21 GMT 42.880196 -68.000336 38,000 246 347 -64
2021-06-23 22:06:11 GMT 42.886597 -67.980843 38,000 246 348 -64
2021-06-23 22:06:03 GMT 42.891930 -67.964760 38,000 247 349 -64
2021-06-23 22:06:00 GMT 42.894535 -67.956718 38,000 246 349 0
2021-06-23 22:05:51 GMT 42.900146 -67.939583 38,000 246 350 0
2021-06-23 22:05:46 GMT 42.904312 -67.926933 38,000 246 350 0
2021-06-23 22:05:38 GMT 42.908360 -67.914604 38,000 246 350 0
2021-06-23 22:05:34 GMT 42.910969 -67.906754 38,000 246 350 0
2021-06-23 22:05:28 GMT 42.918777 -67.882927 38,000 246 350 0
2021-06-23 22:05:24 GMT 42.918777 -67.882927 38,000 246 350 0
2021-06-23 22:05:18 GMT 42.925964 -67.860954 38,000 246 350 0
2021-06-23 22:05:12 GMT 42.925964 -67.860954 38,000 246 350 64
2021-06-23 22:05:08 GMT 42.929306 -67.850861 38,000 246 351 0
2021-06-23 22:05:04 GMT 42.931412 -67.844406 38,000 246 351 0
2021-06-23 22:04:59 GMT 42.934616 -67.834625 38,000 246 350 64
2021-06-23 22:04:54 GMT 42.938713 -67.822136 38,000 246 350 0
2021-06-23 22:04:50 GMT 42.939972 -67.818153 38,000 246 350 -64
2021-06-23 22:04:47 GMT 42.942486 -67.810623 38,000 246 351 -64
2021-06-23 22:04:43 GMT 42.945145 -67.802444 38,000 246 350 0
2021-06-23 22:04:38 GMT 42.948212 -67.793182 38,000 246 350 0
2021-06-23 22:04:32 GMT 42.952259 -67.780807 38,000 246 351 0
2021-06-23 22:04:28 GMT 42.954941 -67.772614 38,000 246 351 0
2021-06-23 22:04:17 GMT 42.962265 -67.750191 38,000 247 351 -64
2021-06-23 22:04:12 GMT 42.965248 -67.740982 38,000 247 352 0
2021-06-23 22:04:08 GMT 42.968399 -67.731415 38,000 247 352 0
2021-06-23 22:03:57 GMT 42.975349 -67.709984 38,000 246 352 -64
2021-06-23 22:03:49 GMT 42.980621 -67.693924 38,000 246 352 0
2021-06-23 22:03:46 GMT 42.982334 -67.688728 38,000 247 352 0
2021-06-23 22:03:41 GMT 42.985840 -67.677887 38,000 247 352 0
2021-06-23 22:03:37 GMT 42.989456 -67.666901 38,000 247 352 0
2021-06-23 22:03:29 GMT 42.993973 -67.653023 38,000 247 353 0
2021-06-23 22:03:26 GMT 42.996067 -67.646484 38,000 247 353 0
2021-06-23 22:03:18 GMT 43.001560 -67.629677 38,000 247 353 0
2021-06-23 22:03:15 GMT 43.002914 -67.625511 38,000 247 353 0
2021-06-23 22:03:06 GMT 43.009781 -67.604370 38,000 247 353 0
2021-06-23 22:02:55 GMT 43.016548 -67.583511 38,000 247 353 0
2021-06-23 22:02:45 GMT 43.023113 -67.563103 38,000 247 354 0
2021-06-23 22:02:38 GMT 43.028000 -67.548164 38,000 247 354 0
2021-06-23 22:02:35 GMT 43.030281 -67.541130 38,000 247 354 0
2021-06-23 22:02:30 GMT 43.033306 -67.531715 38,000 247 354 0
2021-06-23 22:02:26 GMT 43.035187 -67.525871 38,000 247 354 0
2021-06-23 22:02:23 GMT 43.037403 -67.519028 38,000 247 355 0
2021-06-23 22:02:20 GMT 43.039082 -67.513931 38,000 247 355 0
2021-06-23 22:02:17 GMT 43.041828 -67.505363 38,000 247 355 0
2021-06-23 22:02:13 GMT 43.043884 -67.499107 38,000 247 355 0
2021-06-23 22:02:09 GMT 43.047413 -67.488167 38,000 247 355 0
2021-06-23 22:02:03 GMT 43.050797 -67.477646 38,000 247 355 0
2021-06-23 22:02:00 GMT 43.053589 -67.469025 38,000 247 355 0
2021-06-23 22:01:57 GMT 43.054581 -67.466057 38,000 247 355 0
2021-06-23 22:01:53 GMT 43.057468 -67.457039 38,000 247 355 0
2021-06-23 22:01:47 GMT 43.061520 -67.444542 38,000 247 355 0
2021-06-23 22:01:43 GMT 43.064499 -67.435326 38,000 247 355 0
2021-06-23 22:01:37 GMT 43.068130 -67.424080 38,000 247 355 0
2021-06-23 22:01:31 GMT 43.071712 -67.413025 38,000 247 355 0
2021-06-23 22:01:28 GMT 43.074646 -67.403931 38,000 247 355 0
2021-06-23 22:01:22 GMT 43.078045 -67.393341 38,000 247 355 0
2021-06-23 22:01:12 GMT 43.085026 -67.371696 38,000 247 355 0
2021-06-23 22:01:07 GMT 43.088470 -67.361038 38,000 247 355 0
2021-06-23 22:01:01 GMT 43.091858 -67.350471 38,000 247 354 0
2021-06-23 22:00:58 GMT 43.094238 -67.343124 38,000 247 354 0
2021-06-23 22:00:49 GMT 43.099689 -67.326248 38,000 247 355 0
2021-06-23 22:00:38 GMT 43.106861 -67.303947 38,000 247 355 0
2021-06-23 22:00:28 GMT 43.114029 -67.281578 38,000 247 354 0
2021-06-23 22:00:19 GMT 43.119289 -67.265236 38,000 247 354 0
2021-06-23 22:00:10 GMT 43.129997 -67.231819 38,000 247 354 0
2021-06-23 22:00:04 GMT 43.129997 -67.231819 38,000 247 354 0
2021-06-23 21:59:59 GMT 43.132744 -67.223251 38,000 247 354 0
2021-06-23 21:59:54 GMT 43.135769 -67.213829 38,000 247 354 0
2021-06-23 21:59:48 GMT 43.139492 -67.202126 38,000 247 354 0
2021-06-23 21:59:43 GMT 43.143082 -67.190979 38,000 247 354 0
2021-06-23 21:59:39 GMT 43.146011 -67.181717 38,000 247 354 0
2021-06-23 21:59:32 GMT 43.150681 -67.167152 38,000 247 353 0
2021-06-23 21:59:27 GMT 43.153198 -67.159164 38,000 247 354 0
2021-06-23 21:59:23 GMT 43.155788 -67.151115 38,000 247 354 0
2021-06-23 21:59:17 GMT 43.160069 -67.137779 38,000 247 354 0
2021-06-23 21:59:14 GMT 43.161743 -67.132416 38,000 247 354 0
2021-06-23 21:59:08 GMT 43.166656 -67.117142 38,000 247 355 0
2021-06-23 21:59:02 GMT 43.170685 -67.104492 38,000 247 355 0
2021-06-23 21:58:57 GMT 43.173065 -67.096954 38,000 247 355 0
2021-06-23 21:58:47 GMT 43.179886 -67.075554 38,000 247 355 0
2021-06-23 21:58:35 GMT 43.188400 -67.048859 38,000 247 355 0
2021-06-23 21:58:26 GMT 43.196915 -67.022095 38,000 247 355 -64
2021-06-23 21:58:21 GMT 43.196915 -67.022095 38,000 247 355 0
2021-06-23 21:58:16 GMT 43.199547 -67.013725 38,000 247 356 0
2021-06-23 21:58:12 GMT 43.202759 -67.003654 38,000 247 355 0
2021-06-23 21:58:04 GMT 43.208530 -66.985542 38,000 247 356 0
2021-06-23 21:57:51 GMT 43.219143 -66.952057 38,000 247 356 0
2021-06-23 21:57:47 GMT 43.219143 -66.952057 38,000 247 356 0
2021-06-23 21:57:26 GMT 43.232693 -66.909225 38,000 247 356 0
2021-06-23 21:57:22 GMT 43.235321 -66.900864 38,000 247 356 0
2021-06-23 21:57:14 GMT 43.240494 -66.884506 38,000 247 356 0
2021-06-23 21:57:06 GMT 43.246376 -66.865799 38,000 247 356 0
2021-06-23 21:57:03 GMT 43.247772 -66.861389 38,000 247 356 0
2021-06-23 21:56:50 GMT 43.255920 -66.835396 38,000 247 356 -64
2021-06-23 21:56:41 GMT 43.261780 -66.816933 38,000 247 356 0
2021-06-23 21:56:30 GMT 43.269058 -66.793747 38,000 247 356 0
2021-06-23 21:56:21 GMT 43.274826 -66.775352 38,000 247 356 0
2021-06-23 21:56:11 GMT 43.281898 -66.752930 38,000 247 356 0
2021-06-23 21:56:00 GMT 43.288322 -66.732529 38,000 247 355 0
2021-06-23 21:55:51 GMT 43.294922 -66.711540 38,000 247 354 0
2021-06-23 21:55:39 GMT 43.302017 -66.689056 38,000 247 355 0
2021-06-23 21:55:30 GMT 43.308334 -66.668808 38,000 247 354 0
2021-06-23 21:55:20 GMT 43.315155 -66.647156 38,000 247 354 0
2021-06-23 21:55:09 GMT 43.321655 -66.626266 38,000 247 355 0
2021-06-23 21:54:59 GMT 43.328384 -66.604744 38,000 247 355 -64
2021-06-23 21:54:52 GMT 43.332779 -66.590630 38,000 247 355 0
2021-06-23 21:54:49 GMT 43.335293 -66.582642 38,000 247 355 0
2021-06-23 21:54:38 GMT 43.341763 -66.561913 38,000 247 356 0
2021-06-23 21:54:27 GMT 43.348663 -66.539848 38,000 247 356 0
2021-06-23 21:54:18 GMT 43.355404 -66.518166 38,000 247 356 0
2021-06-23 21:54:07 GMT 43.361965 -66.497169 38,000 247 356 0
2021-06-23 21:54:03 GMT 43.364456 -66.489197 38,000 247 356 0
2021-06-23 21:53:56 GMT 43.368713 -66.475464 38,000 247 356 0
2021-06-23 21:53:52 GMT 43.371460 -66.466774 38,000 247 356 0
2021-06-23 21:53:47 GMT 43.375607 -66.453354 38,000 247 355 0
2021-06-23 21:53:43 GMT 43.378029 -66.445702 38,000 247 355 0
2021-06-23 21:53:35 GMT 43.382217 -66.432343 38,000 247 355 64
2021-06-23 21:53:25 GMT 43.388920 -66.410851 38,000 247 356 64
2021-06-23 21:53:16 GMT 43.395355 -66.390121 38,000 247 357 0
2021-06-23 21:53:05 GMT 43.402176 -66.368279 38,000 247 357 -128
2021-06-23 21:52:58 GMT 43.406982 -66.352715 38,000 248 358 0
2021-06-23 21:52:55 GMT 43.408813 -66.346756 38,000 248 358 0
2021-06-23 21:52:44 GMT 43.415642 -66.324661 38,000 248 359 -64
2021-06-23 21:52:36 GMT 43.421040 -66.307198 38,000 248 360 -64
2021-06-23 21:52:33 GMT 43.422363 -66.302872 38,000 248 360 -64
2021-06-23 21:52:24 GMT 43.429092 -66.280968 38,000 248 361 0
2021-06-23 21:52:20 GMT 43.431423 -66.273521 38,000 248 361 0
2021-06-23 21:52:10 GMT 43.438248 -66.251198 38,000 248 361 0
2021-06-23 21:52:02 GMT 43.442642 -66.237083 38,000 248 361 64
2021-06-23 21:51:56 GMT 43.447083 -66.222710 38,000 247 362 0
2021-06-23 21:51:52 GMT 43.449718 -66.214142 38,000 248 361 0
2021-06-23 21:51:49 GMT 43.451672 -66.207802 38,000 248 361 0
2021-06-23 21:51:42 GMT 43.456009 -66.193710 38,000 248 362 -64
2021-06-23 21:51:38 GMT 43.458656 -66.185173 38,000 248 362 0
2021-06-23 21:51:31 GMT 43.462738 -66.171928 38,000 248 361 0
2021-06-23 21:51:27 GMT 43.465870 -66.161697 38,000 248 361 64
2021-06-23 21:51:22 GMT 43.469559 -66.149704 38,000 248 362 -64
2021-06-23 21:51:18 GMT 43.471619 -66.142937 38,000 248 362 -64
2021-06-23 21:51:16 GMT 43.472622 -66.139656 38,000 248 362 -64
2021-06-23 21:51:10 GMT 43.476746 -66.126259 38,000 248 362 0
2021-06-23 21:51:07 GMT 43.478439 -66.120705 38,000 248 362 0
2021-06-23 21:51:00 GMT 43.483932 -66.102837 38,000 248 362 0
2021-06-23 21:50:58 GMT 43.485260 -66.098480 38,000 248 362 0
2021-06-23 21:50:49 GMT 43.490433 -66.081741 38,000 248 362 0
2021-06-23 21:50:46 GMT 43.492310 -66.075546 38,000 248 362 0
2021-06-23 21:50:40 GMT 43.496315 -66.062492 38,000 248 363 0
2021-06-23 21:50:37 GMT 43.498505 -66.055298 38,000 248 363 0
2021-06-23 21:50:29 GMT 43.503952 -66.037643 38,000 248 363 0
2021-06-23 21:50:27 GMT 43.505253 -66.033394 38,000 248 363 -64
2021-06-23 21:50:20 GMT 43.509933 -66.017929 38,000 248 364 64
2021-06-23 21:50:15 GMT 43.512268 -66.010269 38,000 248 364 -64
2021-06-23 21:50:09 GMT 43.516521 -65.996315 38,000 248 364 64
2021-06-23 21:49:59 GMT 43.523361 -65.973885 38,000 248 364 0
2021-06-23 21:49:52 GMT 43.528107 -65.958405 38,000 248 364 0
2021-06-23 21:49:48 GMT 43.530258 -65.951378 38,000 248 364 -128
2021-06-23 21:49:44 GMT 43.532547 -65.943901 38,000 248 364 0
2021-06-23 21:49:40 GMT 43.535843 -65.932976 38,000 248 364 0
2021-06-23 21:49:38 GMT 43.536816 -65.929871 38,000 248 364 0
2021-06-23 21:49:34 GMT 43.538910 -65.922951 38,000 248 364 0
2021-06-23 21:49:28 GMT 43.542870 -65.909988 38,000 248 365 -64
2021-06-23 21:49:25 GMT 43.545616 -65.901031 38,000 248 365 0
2021-06-23 21:49:17 GMT 43.550411 -65.885208 38,000 248 365 -64
2021-06-23 21:49:14 GMT 43.552414 -65.878685 38,000 248 364 0
2021-06-23 21:49:08 GMT 43.555855 -65.867485 38,000 248 365 64
2021-06-23 21:49:04 GMT 43.559052 -65.856842 38,000 248 364 -64
2021-06-23 21:48:58 GMT 43.562328 -65.846031 38,000 248 365 0
2021-06-23 21:48:54 GMT 43.565865 -65.834526 38,000 248 365 64
2021-06-23 21:48:48 GMT 43.568844 -65.824654 38,000 248 365 -64
2021-06-23 21:48:43 GMT 43.572601 -65.812065 38,000 248 364 0
2021-06-23 21:48:38 GMT 43.575829 -65.801437 38,000 248 365 -64
2021-06-23 21:48:36 GMT 43.577133 -65.797058 38,000 248 365 128
2021-06-23 21:48:33 GMT 43.579178 -65.790321 38,000 248 365 128
2021-06-23 21:48:29 GMT 43.581757 -65.781853 38,000 248 365 -64
2021-06-23 21:48:23 GMT 43.585693 -65.768692 38,000 248 365 0
2021-06-23 21:48:18 GMT 43.588303 -65.760139 38,000 248 366 128
2021-06-23 21:48:12 GMT 43.592514 -65.746208 38,000 248 366 -64
2021-06-23 21:48:07 GMT 43.595703 -65.735580 38,000 248 365 64
2021-06-23 21:47:59 GMT 43.601074 -65.717850 38,000 248 365 -64
2021-06-23 21:47:52 GMT 43.605946 -65.701904 38,000 248 366 64
2021-06-23 21:47:49 GMT 43.607483 -65.696739 38,000 248 366 0
2021-06-23 21:47:41 GMT 43.612701 -65.679466 38,000 248 366 64
2021-06-23 21:47:38 GMT 43.614326 -65.674179 38,000 248 366 0
2021-06-23 21:47:28 GMT 43.621124 -65.651680 38,000 248 367 64
2021-06-23 21:47:21 GMT 43.626251 -65.634621 38,000 248 368 0
2021-06-23 21:47:18 GMT 43.628338 -65.627876 38,000 248 368 0
2021-06-23 21:47:09 GMT 43.633804 -65.609589 38,000 248 368 0
2021-06-23 21:47:04 GMT 43.636532 -65.600609 38,000 248 369 0
2021-06-23 21:46:58 GMT 43.640533 -65.587135 38,000 248 369 0
2021-06-23 21:46:56 GMT 43.641792 -65.583015 38,000 248 369 -64
2021-06-23 21:46:49 GMT 43.647007 -65.565689 38,000 248 369 64
2021-06-23 21:46:47 GMT 43.648270 -65.561424 38,000 248 369 0
2021-06-23 21:46:39 GMT 43.653522 -65.543976 38,000 248 371 0
2021-06-23 21:46:29 GMT 43.659992 -65.522392 38,000 248 372 64
2021-06-23 21:46:18 GMT 43.666512 -65.500687 38,000 248 374 -64
2021-06-23 21:46:08 GMT 43.673401 -65.477623 38,000 248 375 0
2021-06-23 21:45:57 GMT 43.680290 -65.454453 38,000 248 376 0
2021-06-23 21:45:49 GMT 43.686996 -65.431953 38,000 248 377 64
2021-06-23 21:45:39 GMT 43.693314 -65.410812 38,025 248 377 -128
2021-06-23 21:45:37 GMT 43.694000 -65.408638 38,025 248 377 -64
2021-06-23 21:45:28 GMT 43.699795 -65.389122 38,000 248 378 0
2021-06-23 21:45:26 GMT 43.700912 -65.385330 38,000 248 378 128
2021-06-23 21:45:18 GMT 43.706734 -65.365906 38,000 248 379 64
2021-06-23 21:45:16 GMT 43.707687 -65.362648 38,000 248 379 64
2021-06-23 21:45:07 GMT 43.714554 -65.339745 37,975 248 380 -192
2021-06-23 21:45:03 GMT 43.717159 -65.331047 38,000 248 380 -128
2021-06-23 21:44:58 GMT 43.720230 -65.320976 38,000 248 380 192
2021-06-23 21:44:54 GMT 43.722748 -65.312416 38,000 248 381 0
2021-06-23 21:44:47 GMT 43.727051 -65.297943 38,000 248 381 0
2021-06-23 21:44:45 GMT 43.728657 -65.292404 38,000 248 381 -64
2021-06-23 21:44:36 GMT 43.735363 -65.269646 38,000 248 382 -64
2021-06-23 21:44:28 GMT 43.740097 -65.253746 38,000 248 382 -64
2021-06-23 21:44:25 GMT 43.742020 -65.247162 38,000 248 382 64
2021-06-23 21:44:17 GMT 43.747055 -65.230301 38,000 248 382 -128
2021-06-23 21:44:12 GMT 43.750717 -65.217850 38,000 248 382 0
2021-06-23 21:44:08 GMT 43.753418 -65.208900 38,000 248 381 0
2021-06-23 21:44:05 GMT 43.755844 -65.200790 38,000 248 381 0
2021-06-23 21:43:58 GMT 43.760239 -65.185905 38,000 248 382 -128
2021-06-23 21:43:54 GMT 43.762733 -65.177437 38,000 248 381 0
2021-06-23 21:43:47 GMT 43.767151 -65.162468 38,000 248 381 -64
2021-06-23 21:43:43 GMT 43.769897 -65.153206 38,000 248 382 64
2021-06-23 21:43:37 GMT 43.773998 -65.139313 38,000 248 382 -64
2021-06-23 21:43:34 GMT 43.776855 -65.129509 38,000 248 382 -64
2021-06-23 21:43:30 GMT 43.778595 -65.123634 38,000 248 382 0
2021-06-23 21:43:27 GMT 43.780376 -65.117668 38,000 248 382 0
2021-06-23 21:43:23 GMT 43.783539 -65.106964 38,000 248 382 64
2021-06-23 21:43:18 GMT 43.786987 -65.095299 38,000 248 382 -64
2021-06-23 21:43:12 GMT 43.790497 -65.083458 38,000 249 382 0
2021-06-23 21:43:08 GMT 43.793694 -65.072479 38,000 248 382 0
2021-06-23 21:43:03 GMT 43.797089 -65.060966 38,000 248 382 0
2021-06-23 21:42:58 GMT 43.800568 -65.049088 38,000 248 382 0
2021-06-23 21:42:52 GMT 43.804138 -65.037079 38,000 248 382 0
2021-06-23 21:42:47 GMT 43.807240 -65.026573 38,000 248 382 64
2021-06-23 21:42:40 GMT 43.812592 -65.008263 38,000 249 382 -64
2021-06-23 21:42:37 GMT 43.814209 -65.002716 38,000 249 382 0
2021-06-23 21:42:32 GMT 43.817871 -64.990326 38,000 248 382 0
2021-06-23 21:42:28 GMT 43.820251 -64.982147 38,000 248 382 -64
2021-06-23 21:42:21 GMT 43.824554 -64.967583 38,000 248 382 0
2021-06-23 21:42:17 GMT 43.827209 -64.958565 38,000 248 382 -64
2021-06-23 21:42:11 GMT 43.831467 -64.943954 38,000 249 381 0
2021-06-23 21:42:08 GMT 43.833847 -64.935844 38,000 249 381 -64
2021-06-23 21:42:01 GMT 43.838516 -64.920067 38,000 249 381 0
2021-06-23 21:41:58 GMT 43.840523 -64.913177 38,000 249 381 0
2021-06-23 21:41:50 GMT 43.845245 -64.897011 38,000 249 381 0
2021-06-23 21:41:46 GMT 43.847134 -64.890549 38,000 249 381 0
2021-06-23 21:41:36 GMT 43.853790 -64.867661 38,000 249 381 -64
2021-06-23 21:41:30 GMT 43.859161 -64.849228 38,000 249 382 0
2021-06-23 21:41:26 GMT 43.860397 -64.844948 38,000 249 382 0
2021-06-23 21:41:17 GMT 43.867081 -64.822021 38,000 249 382 0
2021-06-23 21:41:06 GMT 43.873947 -64.798347 38,000 249 382 0
2021-06-23 21:40:57 GMT 43.880676 -64.775330 38,000 249 382 0
2021-06-23 21:40:45 GMT 43.887680 -64.751198 38,000 249 382 0
2021-06-23 21:40:35 GMT 43.894501 -64.727737 38,000 249 382 0
2021-06-23 21:40:26 GMT 43.901039 -64.705223 38,000 249 381 0
2021-06-23 21:40:17 GMT 43.906628 -64.685997 38,000 249 381 0
2021-06-23 21:40:14 GMT 43.908325 -64.680222 38,000 249 380 0
2021-06-23 21:40:07 GMT 43.913471 -64.662453 38,000 249 380 -64
2021-06-23 21:40:05 GMT 43.914413 -64.659203 38,000 249 380 -64
2021-06-23 21:39:57 GMT 43.919895 -64.640350 38,000 249 379 0
2021-06-23 21:39:54 GMT 43.921280 -64.635506 38,000 249 376 0
2021-06-23 21:39:47 GMT 43.926361 -64.618004 38,000 249 379 0
2021-06-23 21:39:44 GMT 43.928368 -64.611122 38,000 249 379 -64
2021-06-23 21:39:37 GMT 43.933090 -64.594818 38,000 249 378 64
2021-06-23 21:39:34 GMT 43.934784 -64.589005 38,000 249 378 64
2021-06-23 21:39:27 GMT 43.939362 -64.573036 38,000 249 377 0
2021-06-23 21:39:23 GMT 43.941467 -64.565887 38,000 249 376 0
2021-06-23 21:39:17 GMT 43.946182 -64.549530 38,000 249 376 64
2021-06-23 21:39:13 GMT 43.948620 -64.541145 38,000 249 376 0
2021-06-23 21:39:07 GMT 43.952682 -64.527115 38,000 249 376 0
2021-06-23 21:39:02 GMT 43.954926 -64.519257 38,000 249 377 0
2021-06-23 21:38:57 GMT 43.958817 -64.505775 38,000 249 377 64
2021-06-23 21:38:53 GMT 43.961288 -64.497284 38,000 249 377 0
2021-06-23 21:38:46 GMT 43.965866 -64.481316 38,000 249 378 0
2021-06-23 21:38:42 GMT 43.967892 -64.474251 38,000 249 378 0
2021-06-23 21:38:39 GMT 43.969986 -64.467056 38,000 249 378 0
2021-06-23 21:38:36 GMT 43.972000 -64.459984 38,000 249 378 0
2021-06-23 21:38:32 GMT 43.974701 -64.450722 38,000 249 379 0
2021-06-23 21:38:26 GMT 43.978737 -64.436646 38,000 249 379 0
2021-06-23 21:38:22 GMT 43.981293 -64.427727 38,000 249 379 0
2021-06-23 21:38:16 GMT 43.985184 -64.414185 38,000 249 380 0
2021-06-23 21:38:11 GMT 43.988434 -64.402878 38,000 249 380 -64
2021-06-23 21:38:06 GMT 43.991776 -64.391319 38,000 249 380 64
2021-06-23 21:38:02 GMT 43.994888 -64.380455 38,000 249 380 0
2021-06-23 21:37:56 GMT 43.998055 -64.369225 38,000 249 381 0
2021-06-23 21:37:51 GMT 44.001453 -64.357452 38,000 249 382 0
2021-06-23 21:37:45 GMT 44.004898 -64.345421 38,000 249 381 -64
2021-06-23 21:37:40 GMT 44.008301 -64.333443 38,000 249 382 64
2021-06-23 21:37:36 GMT 44.011002 -64.324120 38,000 249 382 -64
2021-06-23 21:37:31 GMT 44.014801 -64.310646 38,000 249 382 0
2021-06-23 21:37:26 GMT 44.017700 -64.300560 38,000 249 382 0
2021-06-23 21:37:19 GMT 44.021988 -64.285606 38,000 249 382 64
2021-06-23 21:37:16 GMT 44.024406 -64.277016 38,000 249 383 64
2021-06-23 21:37:09 GMT 44.028595 -64.262436 38,000 249 383 0
2021-06-23 21:37:06 GMT 44.030823 -64.254501 38,000 249 383 0
2021-06-23 21:36:59 GMT 44.035080 -64.239677 38,000 249 384 -64
2021-06-23 21:36:55 GMT 44.037643 -64.230736 38,000 249 384 0
2021-06-23 21:36:50 GMT 44.041630 -64.216591 38,000 249 384 0
2021-06-23 21:36:46 GMT 44.043823 -64.208893 38,000 249 384 0
2021-06-23 21:36:39 GMT 44.048286 -64.193184 38,000 249 385 -64
2021-06-23 21:36:36 GMT 44.050369 -64.185959 38,000 249 385 -64
2021-06-23 21:36:29 GMT 44.054897 -64.170029 38,000 249 385 0
2021-06-23 21:36:26 GMT 44.056915 -64.162964 38,000 249 385 64
2021-06-23 21:36:19 GMT 44.062019 -64.144920 38,000 249 386 -64
2021-06-23 21:36:16 GMT 44.063602 -64.139427 38,000 249 385 -64
2021-06-23 21:36:08 GMT 44.068451 -64.122276 38,000 249 385 64
2021-06-23 21:36:05 GMT 44.070740 -64.114227 38,000 249 386 0
2021-06-23 21:35:55 GMT 44.077007 -64.092018 38,000 249 386 128
2021-06-23 21:35:47 GMT 44.082035 -64.074226 38,000 249 386 0
2021-06-23 21:35:44 GMT 44.083786 -64.068115 38,000 249 386 0
2021-06-23 21:35:37 GMT 44.088867 -64.050102 38,000 249 386 -64
2021-06-23 21:35:34 GMT 44.090324 -64.044930 38,000 249 386 0
2021-06-23 21:35:24 GMT 44.097912 -64.018120 38,000 249 386 0
2021-06-23 21:35:17 GMT 44.102509 -64.001816 38,000 249 387 0
2021-06-23 21:35:14 GMT 44.104939 -63.993401 38,000 249 387 0
2021-06-23 21:35:05 GMT 44.109875 -63.975807 38,000 249 387 0
2021-06-23 21:34:55 GMT 44.116379 -63.952759 38,000 249 388 0
2021-06-23 21:34:53 GMT 44.117706 -63.948093 38,000 249 388 64
2021-06-23 21:34:44 GMT 44.123840 -63.926250 38,000 249 388 0
2021-06-23 21:34:34 GMT 44.129837 -63.904854 38,000 249 389 64
2021-06-23 21:34:25 GMT 44.135899 -63.883339 38,000 249 389 0
2021-06-23 21:34:22 GMT 44.137619 -63.877193 38,000 249 389 0
2021-06-23 21:34:14 GMT 44.142742 -63.858883 38,000 249 390 0
2021-06-23 21:34:04 GMT 44.149338 -63.835423 38,000 249 390 0
2021-06-23 21:33:54 GMT 44.156250 -63.810703 38,000 249 389 0
2021-06-23 21:33:45 GMT 44.162106 -63.789825 38,000 249 389 0
2021-06-23 21:33:34 GMT 44.170029 -63.761520 38,000 249 389 0
2021-06-23 21:33:25 GMT 44.175568 -63.741653 38,000 249 389 0
2021-06-23 21:33:22 GMT 44.176529 -63.738205 38,000 249 389 0
2021-06-23 21:33:13 GMT 44.182983 -63.715080 38,000 249 389 0
2021-06-23 21:33:03 GMT 44.189899 -63.690228 38,000 249 389 0
2021-06-23 21:32:59 GMT 44.192047 -63.682632 38,000 249 389 0
2021-06-23 21:32:52 GMT 44.196442 -63.666817 38,000 249 389 0
2021-06-23 21:32:44 GMT 44.201397 -63.648956 38,000 249 389 64
2021-06-23 21:32:41 GMT 44.203213 -63.642460 38,000 249 389 0
2021-06-23 21:32:32 GMT 44.209728 -63.619148 38,000 249 389 0
2021-06-23 21:32:24 GMT 44.214523 -63.601864 38,000 249 389 0
2021-06-23 21:32:21 GMT 44.216400 -63.595013 38,000 249 389 0
2021-06-23 21:32:14 GMT 44.221180 -63.577881 38,000 249 389 0
2021-06-23 21:32:11 GMT 44.223221 -63.570492 38,000 249 389 0
2021-06-23 21:32:03 GMT 44.228073 -63.553032 38,000 249 389 -64
2021-06-23 21:32:00 GMT 44.229935 -63.546394 38,000 249 389 0
2021-06-23 21:31:54 GMT 44.234123 -63.531189 38,000 249 389 0
2021-06-23 21:31:50 GMT 44.236683 -63.521877 38,000 249 389 0
2021-06-23 21:31:43 GMT 44.241291 -63.505264 38,000 249 389 0
2021-06-23 21:31:40 GMT 44.243153 -63.498497 38,000 249 389 0
2021-06-23 21:31:34 GMT 44.246979 -63.484627 38,000 249 389 0
2021-06-23 21:31:29 GMT 44.249817 -63.474361 38,000 249 389 0
2021-06-23 21:31:22 GMT 44.254791 -63.456493 38,000 249 389 0
2021-06-23 21:31:20 GMT 44.256470 -63.450397 38,000 249 389 0
2021-06-23 21:31:13 GMT 44.261032 -63.433880 38,000 249 389 0
2021-06-23 21:31:09 GMT 44.263031 -63.426552 38,000 249 389 0
2021-06-23 21:31:03 GMT 44.266663 -63.413422 38,000 250 390 64
2021-06-23 21:30:58 GMT 44.270061 -63.400963 38,000 250 390 0
2021-06-23 21:30:53 GMT 44.273300 -63.389347 38,000 250 390 0
2021-06-23 21:30:49 GMT 44.276672 -63.377045 38,000 250 391 0
2021-06-23 21:30:43 GMT 44.279697 -63.365993 38,000 250 391 0
2021-06-23 21:30:38 GMT 44.283096 -63.353642 38,000 250 391 0
2021-06-23 21:30:32 GMT 44.286915 -63.339867 38,000 250 391 0
2021-06-23 21:30:28 GMT 44.289505 -63.330296 38,000 250 391 0
2021-06-23 21:30:23 GMT 44.292664 -63.318787 38,000 250 392 0
2021-06-23 21:30:17 GMT 44.296417 -63.305119 38,000 250 392 0
2021-06-23 21:30:14 GMT 44.299065 -63.295521 38,000 250 392 0
2021-06-23 21:30:08 GMT 44.303112 -63.280647 38,000 250 393 0
2021-06-23 21:30:04 GMT 44.305573 -63.271767 38,000 250 393 0
2021-06-23 21:29:56 GMT 44.309956 -63.255795 38,000 250 394 0
2021-06-23 21:29:53 GMT 44.312611 -63.246078 38,000 250 394 0
2021-06-23 21:29:44 GMT 44.318707 -63.223774 38,000 250 395 0
2021-06-23 21:29:37 GMT 44.322990 -63.208096 38,000 250 395 0
2021-06-23 21:29:33 GMT 44.324947 -63.200928 38,000 250 395 0
2021-06-23 21:29:25 GMT 44.330067 -63.182106 38,000 250 395 0
2021-06-23 21:29:22 GMT 44.331928 -63.175205 38,000 250 395 0
2021-06-23 21:29:17 GMT 44.335651 -63.161674 38,000 250 396 0
2021-06-23 21:29:13 GMT 44.338165 -63.152363 38,000 250 396 0
2021-06-23 21:29:09 GMT 44.340500 -63.143856 38,000 250 396 0
2021-06-23 21:29:06 GMT 44.343567 -63.132671 38,000 250 396 0
2021-06-23 21:29:03 GMT 44.344849 -63.127899 38,000 250 396 0
2021-06-23 21:29:00 GMT 44.347137 -63.119530 38,000 250 396 0
2021-06-23 21:28:53 GMT 44.351341 -63.104130 38,000 250 396 0
2021-06-23 21:28:45 GMT 44.356556 -63.084969 38,000 250 397 0
2021-06-23 21:28:41 GMT 44.359257 -63.074921 38,000 250 397 0
2021-06-23 21:28:39 GMT 44.360275 -63.071201 38,000 250 397 0
2021-06-23 21:28:33 GMT 44.364422 -63.056030 38,000 250 397 0
2021-06-23 21:28:23 GMT 44.370846 -63.032249 38,000 250 397 0
2021-06-23 21:28:13 GMT 44.377350 -63.008358 38,000 250 398 0
2021-06-23 21:28:06 GMT 44.382111 -62.990715 38,000 250 398 0
2021-06-23 21:28:03 GMT 44.383881 -62.984219 38,000 250 398 0
2021-06-23 21:27:57 GMT 44.387604 -62.970551 38,000 250 398 0
2021-06-23 21:27:53 GMT 44.390350 -62.960293 38,000 250 399 0
2021-06-23 21:27:46 GMT 44.394516 -62.944923 38,000 250 399 0
2021-06-23 21:27:43 GMT 44.397335 -62.934444 38,000 250 399 0
2021-06-23 21:27:33 GMT 44.403854 -62.910397 38,000 250 399 0
2021-06-23 21:27:21 GMT 44.411068 -62.883533 38,000 250 400 0
2021-06-23 21:27:13 GMT 44.416840 -62.862297 38,000 250 400 0
2021-06-23 21:27:03 GMT 44.423126 -62.838848 38,000 250 400 0
2021-06-23 21:26:53 GMT 44.429733 -62.814198 38,000 250 400 0
2021-06-23 21:26:51 GMT 44.430359 -62.811913 38,000 250 400 0
2021-06-23 21:26:42 GMT 44.436859 -62.787804 38,000 250 401 0
2021-06-23 21:26:33 GMT 44.442444 -62.766853 38,000 250 401 0
2021-06-23 21:26:30 GMT 44.444027 -62.760941 38,000 250 401 0
2021-06-23 21:26:22 GMT 44.449287 -62.741310 38,000 250 401 0
2021-06-23 21:26:20 GMT 44.450592 -62.736576 38,000 250 401 0
2021-06-23 21:26:10 GMT 44.457092 -62.712315 38,000 250 401 0
2021-06-23 21:26:03 GMT 44.462322 -62.692745 38,000 250 402 0
2021-06-23 21:26:00 GMT 44.463997 -62.686447 38,000 250 402 0
2021-06-23 21:25:51 GMT 44.469303 -62.666485 38,000 250 402 0
2021-06-23 21:25:47 GMT 44.472153 -62.655945 38,000 250 403 0
2021-06-23 21:25:41 GMT 44.475449 -62.643520 38,000 250 403 0
2021-06-23 21:25:34 GMT 44.480152 -62.625820 38,000 250 403 0
2021-06-23 21:25:31 GMT 44.482086 -62.618603 38,000 250 403 0
2021-06-23 21:25:28 GMT 44.485367 -62.606262 38,000 250 403 0
2021-06-23 21:25:22 GMT 44.488579 -62.594337 38,000 250 403 0
2021-06-23 21:25:18 GMT 44.491241 -62.584206 38,000 250 403 0
2021-06-23 21:25:12 GMT 44.494816 -62.570889 38,000 250 403 0
2021-06-23 21:25:02 GMT 44.501633 -62.545361 38,000 250 404 0
2021-06-23 21:24:51 GMT 44.508221 -62.520515 38,000 250 404 0
2021-06-23 21:24:46 GMT 44.511841 -62.506973 38,000 250 404 0
2021-06-23 21:24:42 GMT 44.514366 -62.497269 38,000 250 404 0
2021-06-23 21:24:35 GMT 44.519257 -62.478912 38,000 250 405 0
2021-06-23 21:24:32 GMT 44.521179 -62.471661 38,000 250 405 0
2021-06-23 21:24:26 GMT 44.525253 -62.456230 38,000 250 405 0
2021-06-23 21:24:22 GMT 44.527451 -62.447861 38,000 250 406 0
2021-06-23 21:24:12 GMT 44.534012 -62.423180 38,000 250 406 0
2021-06-23 21:24:02 GMT 44.540764 -62.397587 38,000 250 406 0
2021-06-23 21:23:59 GMT 44.542717 -62.390152 38,000 250 406 0
2021-06-23 21:23:51 GMT 44.547409 -62.372330 38,000 250 407 0
2021-06-23 21:23:49 GMT 44.549004 -62.366238 38,000 250 407 0
2021-06-23 21:23:42 GMT 44.553452 -62.349373 38,000 250 407 0
2021-06-23 21:23:31 GMT 44.560638 -62.322170 38,000 250 408 0
2021-06-23 21:23:29 GMT 44.562687 -62.314384 38,000 250 407 64
2021-06-23 21:23:22 GMT 44.566772 -62.298695 38,000 250 408 0
2021-06-23 21:23:17 GMT 44.569813 -62.287121 38,000 250 408 0
2021-06-23 21:23:12 GMT 44.573364 -62.273647 38,000 250 408 0
2021-06-23 21:23:07 GMT 44.576283 -62.262669 38,000 250 408 0
2021-06-23 21:23:02 GMT 44.579819 -62.249123 38,000 250 408 0
2021-06-23 21:22:58 GMT 44.582615 -62.238354 38,000 250 408 0
2021-06-23 21:22:52 GMT 44.586044 -62.225384 38,000 250 408 0
2021-06-23 21:22:42 GMT 44.592911 -62.199097 38,000 250 407 0
2021-06-23 21:22:37 GMT 44.596252 -62.186474 38,000 250 408 0
2021-06-23 21:22:32 GMT 44.599365 -62.174576 38,000 250 408 0
2021-06-23 21:22:26 GMT 44.603703 -62.158100 38,000 250 408 -64
2021-06-23 21:22:22 GMT 44.605610 -62.150661 38,000 250 408 0
2021-06-23 21:22:14 GMT 44.610870 -62.130501 38,000 250 408 -64
2021-06-23 21:22:11 GMT 44.612457 -62.124416 38,000 250 408 0
2021-06-23 21:22:06 GMT 44.617081 -62.106564 38,000 251 409 0
2021-06-23 21:22:01 GMT 44.619202 -62.098412 38,000 251 409 0
2021-06-23 21:21:52 GMT 44.625393 -62.074562 38,000 250 410 0
2021-06-23 21:21:41 GMT 44.632004 -62.049213 38,000 250 410 0
2021-06-23 21:21:35 GMT 44.636379 -62.032360 38,000 250 410 0
2021-06-23 21:21:30 GMT 44.638916 -62.022793 38,000 250 410 0
2021-06-23 21:21:21 GMT 44.644714 -62.000404 38,000 251 410 0
2021-06-23 21:21:11 GMT 44.651505 -61.974335 38,000 251 410 0
2021-06-23 21:21:00 GMT 44.657959 -61.949352 38,000 251 409 0
2021-06-23 21:20:51 GMT 44.664322 -61.924896 38,000 251 409 0
2021-06-23 21:20:41 GMT 44.670921 -61.899384 38,000 251 409 0
2021-06-23 21:20:30 GMT 44.677673 -61.873192 38,000 251 409 0
2021-06-23 21:20:20 GMT 44.684006 -61.848709 38,000 251 409 0
2021-06-23 21:20:10 GMT 44.690643 -61.823078 38,000 251 408 0
2021-06-23 21:20:01 GMT 44.696960 -61.798355 38,000 251 409 0
2021-06-23 21:19:51 GMT 44.703648 -61.772305 38,000 251 409 0
2021-06-23 21:19:40 GMT 44.710026 -61.747650 38,000 251 409 0
2021-06-23 21:19:29 GMT 44.717102 -61.720081 38,000 251 409 0
2021-06-23 21:19:20 GMT 44.723190 -61.696278 38,000 251 410 0
2021-06-23 21:19:11 GMT 44.728882 -61.674164 38,000 251 410 0
2021-06-23 21:19:08 GMT 44.730461 -61.667934 38,000 251 410 0
2021-06-23 21:19:00 GMT 44.735870 -61.646770 38,000 251 410 64
2021-06-23 21:18:55 GMT 44.738754 -61.635525 38,000 251 410 0
2021-06-23 21:18:48 GMT 44.743916 -61.615349 38,000 251 410 -64
2021-06-23 21:18:40 GMT 44.748569 -61.597057 38,000 251 409 0
2021-06-23 21:18:37 GMT 44.750248 -61.590492 38,000 251 410 0
2021-06-23 21:18:31 GMT 44.754902 -61.572205 38,000 251 410 0
2021-06-23 21:18:27 GMT 44.756718 -61.565239 38,000 251 410 0
2021-06-23 21:18:21 GMT 44.761276 -61.547306 38,000 251 411 0
2021-06-23 21:18:14 GMT 44.764725 -61.533890 38,000 251 411 0
2021-06-23 21:18:10 GMT 44.767567 -61.522568 38,000 251 410 0
2021-06-23 21:18:04 GMT 44.771149 -61.508499 38,000 251 411 -64
2021-06-23 21:18:00 GMT 44.774139 -61.496822 38,000 251 411 0
2021-06-23 21:17:57 GMT 44.776363 -61.488132 38,000 251 411 0
2021-06-23 21:17:49 GMT 44.780506 -61.471786 38,000 251 411 64
2021-06-23 21:17:45 GMT 44.783386 -61.460331 38,000 251 410 0
2021-06-23 21:17:40 GMT 44.786743 -61.447136 38,000 251 410 0
2021-06-23 21:17:34 GMT 44.790665 -61.431690 38,000 251 411 0
2021-06-23 21:17:29 GMT 44.793678 -61.419739 38,000 251 411 0
2021-06-23 21:17:26 GMT 44.796616 -61.408276 38,000 251 411 0
2021-06-23 21:17:20 GMT 44.799545 -61.396702 38,000 251 411 0
2021-06-23 21:17:14 GMT 44.803642 -61.380482 38,000 251 411 0
2021-06-23 21:17:09 GMT 44.806870 -61.367733 38,000 251 412 0
2021-06-23 21:17:05 GMT 44.809616 -61.356876 38,000 251 412 0
2021-06-23 21:16:59 GMT 44.812729 -61.344517 38,000 251 412 0
2021-06-23 21:16:52 GMT 44.817581 -61.325356 38,000 251 412 0
2021-06-23 21:16:49 GMT 44.819050 -61.319386 38,000 251 413 0
2021-06-23 21:16:44 GMT 44.822964 -61.303978 38,000 251 413 0
2021-06-23 21:16:39 GMT 44.825546 -61.293705 38,000 251 413 0
2021-06-23 21:16:30 GMT 44.831818 -61.268658 38,000 251 414 0
2021-06-23 21:16:22 GMT 44.836533 -61.249889 38,000 251 414 0
2021-06-23 21:16:19 GMT 44.838593 -61.241783 38,000 251 414 0
2021-06-23 21:16:13 GMT 44.842804 -61.225040 38,000 251 414 0
2021-06-23 21:16:09 GMT 44.844727 -61.217388 38,000 251 414 0
2021-06-23 21:16:00 GMT 44.850769 -61.193260 38,000 251 414 0
2021-06-23 21:15:50 GMT 44.857269 -61.167252 38,000 251 414 0
2021-06-23 21:15:40 GMT 44.863632 -61.141991 38,000 251 414 0
2021-06-23 21:15:29 GMT 44.870586 -61.114128 38,000 251 414 0
2021-06-23 21:15:20 GMT 44.876682 -61.089745 38,000 251 414 0
2021-06-23 21:15:09 GMT 44.883224 -61.063450 38,000 251 414 0
2021-06-23 21:14:58 GMT 44.889908 -61.036770 38,000 251 415 0
2021-06-23 21:14:49 GMT 44.895584 -61.013817 38,000 251 415 0
2021-06-23 21:14:38 GMT 44.902313 -60.986809 38,000 251 415 0
2021-06-23 21:14:29 GMT 44.909222 -60.959114 38,000 251 416 0
2021-06-23 21:14:17 GMT 44.916065 -60.931515 38,000 251 417 0
2021-06-23 21:14:07 GMT 44.922398 -60.905857 38,000 251 417 0
2021-06-23 21:13:56 GMT 44.929596 -60.876747 38,000 251 417 0
2021-06-23 21:13:46 GMT 44.935387 -60.853271 38,000 251 417 0
2021-06-23 21:13:36 GMT 44.942368 -60.825069 38,000 251 417 0
2021-06-23 21:13:25 GMT 44.948959 -60.798340 38,000 251 416 64
2021-06-23 21:13:15 GMT 44.955231 -60.772968 38,000 251 416 64
2021-06-23 21:12:58 GMT 44.966576 -60.726795 38,000 251 415 0
2021-06-23 21:12:55 GMT 44.967831 -60.721703 38,000 251 415 0
2021-06-23 21:12:45 GMT 44.974640 -60.693970 38,000 251 415 0
2021-06-23 21:12:33 GMT 44.981415 -60.666374 38,000 251 415 0
2021-06-23 21:12:23 GMT 44.988098 -60.638973 38,000 251 416 0
2021-06-23 21:12:14 GMT 44.994644 -60.612293 38,000 251 416 0
2021-06-23 21:12:03 GMT 45.000961 -60.586395 38,000 251 416 0
2021-06-23 21:11:56 GMT 45.004761 -60.570702 38,000 252 417 0
2021-06-23 21:11:51 GMT 45.008194 -60.556576 38,000 252 417 0
2021-06-23 21:11:47 GMT 45.010986 -60.545185 38,000 252 417 0
2021-06-23 21:11:41 GMT 45.013824 -60.533596 38,000 252 417 0
2021-06-23 21:11:36 GMT 45.018017 -60.516380 38,000 252 417 0
2021-06-23 21:11:31 GMT 45.020416 -60.506481 38,000 252 417 0
2021-06-23 21:11:26 GMT 45.023556 -60.493469 38,000 252 417 0
2021-06-23 21:11:22 GMT 45.026779 -60.480259 38,000 252 417 0
2021-06-23 21:11:17 GMT 45.029800 -60.467899 38,000 252 417 64
2021-06-23 21:11:11 GMT 45.032959 -60.454758 38,000 252 417 0
2021-06-23 21:11:06 GMT 45.036530 -60.440105 38,000 252 417 0
2021-06-23 21:11:00 GMT 45.039642 -60.427292 38,000 252 416 0
2021-06-23 21:10:55 GMT 45.042873 -60.414021 38,000 252 416 64
2021-06-23 21:10:46 GMT 45.048752 -60.389751 38,000 252 416 0
2021-06-23 21:10:31 GMT 45.058887 -60.347900 38,000 252 415 0
2021-06-23 21:10:29 GMT 45.060104 -60.342865 38,000 252 415 0
2021-06-23 21:10:24 GMT 45.062531 -60.332859 38,000 252 415 -64
2021-06-23 21:10:17 GMT 45.066895 -60.314808 38,000 252 416 0
2021-06-23 21:10:08 GMT 45.072666 -60.290958 38,000 252 417 0
2021-06-23 21:10:04 GMT 45.074947 -60.281448 38,000 252 417 0
2021-06-23 21:09:57 GMT 45.079697 -60.261711 38,000 252 417 0
2021-06-23 21:09:45 GMT 45.085983 -60.235558 38,000 252 418 0
2021-06-23 21:09:38 GMT 45.091095 -60.214233 38,000 252 419 0
2021-06-23 21:09:27 GMT 45.097527 -60.187393 38,000 252 419 64
2021-06-23 21:09:16 GMT 45.104324 -60.159039 38,000 252 420 0
2021-06-23 21:09:05 GMT 45.111446 -60.129314 38,000 252 420 -64
2021-06-23 21:08:54 GMT 45.118057 -60.101624 38,000 252 419 0
2021-06-23 21:08:45 GMT 45.123459 -60.078938 38,000 252 419 0
2021-06-23 21:08:36 GMT 45.129639 -60.053101 38,000 252 419 0
2021-06-23 21:08:25 GMT 45.135979 -60.026482 38,000 252 419 0
2021-06-23 21:08:11 GMT 45.144699 -59.989994 38,000 252 419 0
2021-06-23 21:08:04 GMT 45.148922 -59.972157 38,000 252 420 0
2021-06-23 21:07:51 GMT 45.157104 -59.937679 38,000 252 420 0
2021-06-23 21:07:44 GMT 45.161674 -59.918297 38,000 252 420 0
2021-06-23 21:07:31 GMT 45.168983 -59.887478 38,000 252 421 0
2021-06-23 21:07:22 GMT 45.174664 -59.863499 38,000 252 421 0
2021-06-23 21:07:12 GMT 45.181461 -59.834690 38,000 252 421 0
2021-06-23 21:07:01 GMT 45.187653 -59.808563 38,000 252 422 0
2021-06-23 21:06:51 GMT 45.193863 -59.782234 38,000 252 423 0
2021-06-23 21:06:40 GMT 45.200592 -59.753593 38,000 252 424 0
2021-06-23 21:06:31 GMT 45.207092 -59.725929 38,000 252 424 0
2021-06-23 21:06:21 GMT 45.213490 -59.698635 38,000 252 425 0
2021-06-23 21:06:08 GMT 45.221466 -59.664722 38,000 252 425 0
2021-06-23 21:05:59 GMT 45.225861 -59.645950 38,000 252 426 0
2021-06-23 21:05:50 GMT 45.232590 -59.617111 38,000 252 426 0
2021-06-23 21:05:38 GMT 45.239182 -59.588993 38,000 252 427 128
2021-06-23 21:05:29 GMT 45.246075 -59.559364 38,000 252 428 0
2021-06-23 21:05:17 GMT 45.252548 -59.531578 38,000 252 428 0
2021-06-23 21:05:04 GMT 45.260925 -59.495609 38,000 252 428 -64
2021-06-23 21:04:57 GMT 45.264790 -59.478977 38,000 252 428 0
2021-06-23 21:04:47 GMT 45.270981 -59.452312 38,000 252 429 0
2021-06-23 21:04:37 GMT 45.277542 -59.423939 38,000 252 429 0
2021-06-23 21:04:26 GMT 45.284248 -59.394970 38,000 252 429 0
2021-06-23 21:04:15 GMT 45.291092 -59.365475 38,000 252 429 0
2021-06-23 21:04:05 GMT 45.297867 -59.336044 38,000 252 430 -64
2021-06-23 21:03:54 GMT 45.303406 -59.311981 38,000 252 430 0
2021-06-23 21:03:44 GMT 45.309479 -59.285576 38,000 252 430 0
2021-06-23 21:03:35 GMT 45.315811 -59.258160 38,000 252 430 64
2021-06-23 21:03:24 GMT 45.322266 -59.230042 38,000 252 430 0
2021-06-23 21:03:13 GMT 45.328983 -59.200699 38,000 252 430 0
2021-06-23 21:02:28 GMT 45.333332 -59.049999 38,000 249 440
2021-06-23 21:01:28 GMT 45.383331 -58.883331 38,000 254 440
2021-06-23 21:00:28 GMT 45.416668 -58.716667 38,000 251 440
2021-06-23 20:59:28 GMT 45.466667 -58.549999 38,000 253 450
2021-06-23 20:58:28 GMT 45.483334 -58.383331 38,000 253 450
2021-06-23 20:57:28 GMT 45.533333 -58.233334 38,000 254 450
2021-06-23 20:56:28 GMT 45.566666 -58.066666 38,000 254 450
2021-06-23 20:55:28 GMT 45.583332 -57.900002 38,000 252 450
2021-06-23 20:54:28 GMT 45.633331 -57.733334 38,000 252 450
2021-06-23 20:53:28 GMT 45.666668 -57.549999 38,000 252 450
2021-06-23 20:52:28 GMT 45.700001 -57.383331 38,000 252 450
2021-06-23 20:51:28 GMT 45.750000 -57.216667 38,000 255 450
2021-06-23 20:50:27 GMT 45.783333 -57.016666 38,000 254 450
2021-06-23 20:49:53 GMT 45.799999 -56.933334 38,000 251 450
2021-06-23 20:48:52 GMT 45.833332 -56.750000 38,000 254 450
2021-06-23 20:47:52 GMT 45.866669 -56.599998 38,000 255 450
2021-06-23 20:46:52 GMT 45.916668 -56.433334 38,000 257 450
2021-06-23 20:45:52 GMT 45.933334 -56.250000 38,000 252 450
2021-06-23 20:44:52 GMT 45.966667 -56.049999 38,000 251 450
2021-06-23 20:43:52 GMT 46.000000 -55.900002 38,000 254 450
2021-06-23 20:42:52 GMT 46.049999 -55.733334 38,000 257 450
2021-06-23 20:41:52 GMT 46.083332 -55.549999 38,000 257 450
2021-06-23 20:40:52 GMT 46.099998 -55.383331 38,000 255 450
2021-06-23 20:39:52 GMT 46.133331 -55.200001 38,000 254 450
2021-06-23 20:38:52 GMT 46.166668 -55.033333 38,000 255 450
We lost coverage of the aircraft here for a total of 7 minutes
2021-06-23 20:31:34 GMT 46.414810 -53.811371 38,000 256 451 0
2021-06-23 20:31:23 GMT 46.420727 -53.777252 38,000 256 451 0
2021-06-23 20:31:14 GMT 46.425430 -53.750336 38,000 256 451 0
2021-06-23 20:31:05 GMT 46.429947 -53.724312 38,000 256 451 0
2021-06-23 20:30:54 GMT 46.435112 -53.694443 38,000 256 451 0
2021-06-23 20:30:44 GMT 46.440216 -53.665066 38,000 257 451 0
2021-06-23 20:30:35 GMT 46.445122 -53.636559 38,000 256 450 0
2021-06-23 20:30:25 GMT 46.450054 -53.607925 38,000 256 450 0
2021-06-23 20:30:15 GMT 46.455231 -53.578045 38,000 256 450 0
2021-06-23 20:30:04 GMT 46.460438 -53.547501 38,000 257 449 0
2021-06-23 20:29:54 GMT 46.465557 -53.517838 38,000 257 449 0
2021-06-23 20:29:45 GMT 46.470520 -53.488815 38,000 257 449 0
2021-06-23 20:29:43 GMT 46.471573 -53.482719 38,000 257 449 0
2021-06-23 20:29:35 GMT 46.475521 -53.459610 38,000 257 448 0
2021-06-23 20:29:25 GMT 46.480453 -53.430496 38,000 257 447 0
2021-06-23 20:29:15 GMT 46.485489 -53.400925 38,000 257 447 0
2021-06-23 20:29:02 GMT 46.491627 -53.365059 38,000 257 447 0
2021-06-23 20:28:54 GMT 46.495678 -53.341164 38,000 257 447 0
2021-06-23 20:28:43 GMT 46.500549 -53.312298 38,000 257 447 0
2021-06-23 20:28:34 GMT 46.505360 -53.283897 38,000 257 447 0
2021-06-23 20:28:24 GMT 46.510208 -53.255222 38,000 257 447 0
2021-06-23 20:28:14 GMT 46.515228 -53.225464 38,000 257 447 0
2021-06-23 20:28:04 GMT 46.520050 -53.196808 38,000 257 447 0
2021-06-23 20:27:54 GMT 46.524914 -53.167854 38,000 257 446 0
2021-06-23 20:27:44 GMT 46.529800 -53.138809 38,000 257 446 0
2021-06-23 20:27:34 GMT 46.534687 -53.109421 38,000 257 447 0
2021-06-23 20:27:21 GMT 46.540974 -53.071930 38,000 257 447 0
2021-06-23 20:27:19 GMT 46.541904 -53.066368 38,000 257 447 0
2021-06-23 20:27:13 GMT 46.544975 -53.048035 38,000 257 447 0
2021-06-23 20:27:10 GMT 46.546326 -53.039982 38,000 257 447 0
2021-06-23 20:27:04 GMT 46.549351 -53.021805 38,000 257 448 0
2021-06-23 20:27:01 GMT 46.551086 -53.011444 38,000 257 448 0
2021-06-23 20:26:51 GMT 46.555344 -52.985786 38,000 257 448 0
2021-06-23 20:26:41 GMT 46.564201 -52.932472 38,000 257 448 0
2021-06-23 20:26:33 GMT 46.564201 -52.932472 38,000 257 449 0
2021-06-23 20:26:24 GMT 46.569031 -52.903389 38,000 257 449 0
2021-06-23 20:26:18 GMT 46.571930 -52.885643 38,000 257 449 0
2021-06-23 20:26:13 GMT 46.574116 -52.872459 38,000 257 450 0
2021-06-23 20:26:10 GMT 46.575668 -52.862926 38,000 257 450 0
2021-06-23 20:26:04 GMT 46.578541 -52.845474 38,000 257 450 0
2021-06-23 20:26:00 GMT 46.580292 -52.834793 38,000 257 450 0
2021-06-23 20:25:53 GMT 46.583660 -52.814438 38,000 257 450 0
2021-06-23 20:25:50 GMT 46.585098 -52.805519 38,000 257 449 0
2021-06-23 20:25:44 GMT 46.588177 -52.786903 38,000 257 449 0
2021-06-23 20:25:40 GMT 46.589813 -52.776779 38,000 257 449 0
2021-06-23 20:25:34 GMT 46.592972 -52.757584 38,000 257 449 0
2021-06-23 20:25:29 GMT 46.594803 -52.746300 38,000 257 449 0
2021-06-23 20:25:23 GMT 46.598236 -52.725533 38,000 257 449 0
2021-06-23 20:25:20 GMT 46.599655 -52.716759 38,000 257 449 0
2021-06-23 20:25:12 GMT 46.602997 -52.696594 38,000 257 449 0
2021-06-23 20:25:10 GMT 46.604378 -52.687958 38,000 257 449 0
2021-06-23 20:25:00 GMT 46.609039 -52.659412 38,000 257 448 0
2021-06-23 20:24:51 GMT 46.613361 -52.632957 38,000 257 448 0
2021-06-23 20:24:47 GMT 46.615688 -52.618607 38,000 257 448 0
2021-06-23 20:24:43 GMT 46.617085 -52.610161 38,000 257 448 0
2021-06-23 20:24:31 GMT 46.622955 -52.574066 38,000 257 448 0
2021-06-23 20:24:22 GMT 46.627167 -52.548077 38,000 257 446 0
2021-06-23 20:24:17 GMT 46.629562 -52.533051 38,000 257 446 0
2021-06-23 20:24:12 GMT 46.631836 -52.519203 38,000 257 447 0
2021-06-23 20:24:08 GMT 46.634262 -52.504143 38,000 257 447 0
2021-06-23 20:24:03 GMT 46.636032 -52.493019 38,000 257 447 0
2021-06-23 20:23:56 GMT 46.639290 -52.472900 38,000 257 447 0
2021-06-23 20:23:51 GMT 46.641724 -52.457840 38,000 257 447 0
2021-06-23 20:23:49 GMT 46.642731 -52.451679 38,000 257 447 0
2021-06-23 20:23:42 GMT 46.646179 -52.430122 38,000 257 448 0
2021-06-23 20:23:40 GMT 46.647125 -52.424145 38,000 257 448 0
2021-06-23 20:23:35 GMT 46.649139 -52.411552 38,000 257 448 0
2021-06-23 20:23:31 GMT 46.650970 -52.400162 38,000 257 448 0
2021-06-23 20:23:26 GMT 46.653854 -52.382278 38,000 257 448 0
2021-06-23 20:23:23 GMT 46.655258 -52.373611 38,000 257 448 0
2021-06-23 20:23:18 GMT 46.657120 -52.361870 38,000 257 448 0
2021-06-23 20:23:13 GMT 46.659897 -52.344425 38,000 257 448 0
2021-06-23 20:23:08 GMT 46.662231 -52.329758 38,000 257 448 0
2021-06-23 20:23:04 GMT 46.663651 -52.320980 38,000 257 448 0
2021-06-23 20:22:56 GMT 46.667953 -52.293983 38,000 257 448 0
2021-06-23 20:22:53 GMT 46.668758 -52.288811 38,000 257 448 0
2021-06-23 20:22:49 GMT 46.670975 -52.274891 38,000 257 448 0
2021-06-23 20:22:43 GMT 46.673786 -52.257156 38,000 257 448 0
2021-06-23 20:22:39 GMT 46.675648 -52.245689 38,000 257 448 0
2021-06-23 20:22:36 GMT 46.676952 -52.237518 38,000 257 448 0
2021-06-23 20:22:28 GMT 46.680771 -52.213142 38,000 257 448 0
2021-06-23 20:22:22 GMT 46.684120 -52.192062 38,000 257 448 0
2021-06-23 20:22:17 GMT 46.685425 -52.183823 38,000 257 448 0
2021-06-23 20:22:05 GMT 46.691475 -52.145714 38,000 258 447 0
2021-06-23 20:21:54 GMT 46.696037 -52.116737 38,000 258 447 0
2021-06-23 20:21:47 GMT 46.699203 -52.096550 38,000 258 447 0
2021-06-23 20:21:34 GMT 46.705441 -52.056793 38,000 258 446 0
2021-06-23 20:21:28 GMT 46.708374 -52.038391 38,000 258 446 0
2021-06-23 20:21:19 GMT 46.712906 -52.009342 38,000 258 446 0
2021-06-23 20:21:07 GMT 46.717987 -51.976921 38,000 258 446 0
2021-06-23 20:20:54 GMT 46.723782 -51.939720 38,000 258 445 0
2021-06-23 20:20:45 GMT 46.728298 -51.910812 38,000 258 444 0
2021-06-23 20:20:41 GMT 46.729553 -51.902710 38,000 258 444 0
2021-06-23 20:20:32 GMT 46.733746 -51.875862 38,000 258 444 0
2021-06-23 20:20:03 GMT 46.746918 -51.791023 38,000 258 443 0
2021-06-23 20:19:42 GMT 46.756557 -51.728371 38,000 258 442 0
2021-06-23 20:18:45 GMT 46.781788 -51.563644 38,000 258 441 0
2021-06-23 20:18:25 GMT 46.790539 -51.506035 38,000 258 440 0
2021-06-23 20:18:04 GMT 46.799805 -51.444992 38,000 258 440 0
2021-06-23 20:17:52 GMT 46.805008 -51.410454 38,000 258 440 0
2021-06-23 20:17:45 GMT 46.807983 -51.390827 38,000 258 439 0
2021-06-23 20:17:31 GMT 46.813999 -51.350853 38,000 258 439 0
2021-06-23 20:17:24 GMT 46.817120 -51.330048 38,000 258 439 0
2021-06-23 20:17:15 GMT 46.821213 -51.302734 38,000 258 439 0
2021-06-23 20:17:06 GMT 46.825012 -51.277348 38,000 258 439 0
2021-06-23 20:16:49 GMT 46.832565 -51.226902 38,000 258 438 0
2021-06-23 20:16:45 GMT 46.833847 -51.218262 38,000 258 438 0
2021-06-23 20:16:43 GMT 46.834625 -51.213036 38,000 258 437 0
2021-06-23 20:16:31 GMT 46.840302 -51.174866 38,000 258 437 0
2021-06-23 20:16:23 GMT 46.843918 -51.150536 38,000 258 437 0
2021-06-23 20:16:12 GMT 46.848175 -51.121998 38,000 258 437 0
2021-06-23 20:16:02 GMT 46.852921 -51.089859 38,000 258 437 0
2021-06-23 20:15:51 GMT 46.857147 -51.061172 38,000 258 437 0
2021-06-23 20:15:50 GMT 46.857620 -51.058136 38,000 258 437 0
2021-06-23 20:15:40 GMT 46.861862 -51.029148 38,000 259 439 0
2021-06-23 20:15:10 GMT 46.874287 -50.944378 38,000 259 439 0
2021-06-23 20:14:44 GMT 46.885391 -50.868073 38,000 259 439 0
2021-06-23 20:14:35 GMT 46.889091 -50.842472 38,000 259 439 0
2021-06-23 20:14:23 GMT 46.894226 -50.807030 38,000 259 438 0
2021-06-23 20:14:13 GMT 46.898212 -50.779724 38,000 259 438 0
2021-06-23 20:14:04 GMT 46.902031 -50.753666 38,000 259 438 0
2021-06-23 20:13:54 GMT 46.906269 -50.724510 38,000 259 438 0
2021-06-23 20:13:44 GMT 46.910458 -50.695637 38,000 258 437 0
2021-06-23 20:13:30 GMT 46.916290 -50.655350 38,000 259 437 0
2021-06-23 20:13:22 GMT 46.919628 -50.632114 38,000 259 437 0
2021-06-23 20:12:32 GMT 46.939507 -50.488728 38,000 260 435 0
2021-06-23 20:11:18 GMT 46.971394 -50.273861 38,000 257 436 0
2021-06-23 20:11:11 GMT 46.974747 -50.254967 38,000 253 435 0
2021-06-23 20:11:01 GMT 46.981075 -50.226604 38,000 251 435 0
2021-06-23 20:10:54 GMT 46.986057 -50.206039 38,000 251 434 0
2021-06-23 20:10:40 GMT 46.994949 -50.169209 38,000 251 435 0
We lost coverage of the aircraft here for a total of 168 minutes
2021-06-23 17:22:38 GMT 54.058411 -17.009895 38,000 271 450 0
2021-06-23 17:22:28 GMT 54.058273 -16.974442 38,000 271 451 0
2021-06-23 17:21:25 GMT 54.057064 -16.749950 38,000 271 452 0
2021-06-23 17:21:18 GMT 54.056923 -16.725149 38,000 271 453 -64
We lost coverage of the aircraft here for a total of 6 minutes
2021-06-23 17:15:27 GMT 54.030621 -15.483048 38,000 293 455 64
2021-06-23 17:13:51 GMT 54.003017 -15.147158 38,000 272 453 0
2021-06-23 17:13:41 GMT 54.002457 -15.111694 38,000 273 452 0
2021-06-23 17:13:32 GMT 54.001572 -15.080513 38,000 275 452 0
2021-06-23 17:13:29 GMT 54.000874 -15.064275 38,000 275 451 0
2021-06-23 17:13:21 GMT 53.999523 -15.039960 38,000 277 451 -64
2021-06-23 17:13:18 GMT 53.998856 -15.029611 38,000 278 451 0
2021-06-23 17:13:08 GMT 53.996033 -14.995207 38,000 280 451 0
2021-06-23 17:13:01 GMT 53.993195 -14.967337 38,000 282 452 0
2021-06-23 17:12:48 GMT 53.987373 -14.921938 38,000 285 453 0
2021-06-23 17:12:40 GMT 53.983795 -14.898795 38,000 286 453 0
2021-06-23 17:12:37 GMT 53.982101 -14.888201 38,000 286 453 0
2021-06-23 17:12:30 GMT 53.978252 -14.864502 38,000 286 453 0
2021-06-23 17:12:26 GMT 53.975876 -14.849906 38,000 286 453 0
2021-06-23 17:12:20 GMT 53.972527 -14.829281 38,000 286 452 0
2021-06-23 17:12:17 GMT 53.970566 -14.817496 38,000 286 452 0
2021-06-23 17:12:09 GMT 53.966766 -14.793954 38,000 286 452 0
2021-06-23 17:11:59 GMT 53.960999 -14.758798 38,000 286 452 0
2021-06-23 17:11:47 GMT 53.954544 -14.719561 38,000 286 452 0
2021-06-23 17:11:44 GMT 53.952133 -14.704796 38,000 286 452 0
2021-06-23 17:11:39 GMT 53.949947 -14.691467 38,000 286 452 64
2021-06-23 17:11:36 GMT 53.947575 -14.677169 38,000 286 452 0
2021-06-23 17:11:29 GMT 53.944176 -14.656408 38,000 286 452 0
2021-06-23 17:11:19 GMT 53.938354 -14.621268 38,000 286 451 0
2021-06-23 17:11:15 GMT 53.936050 -14.607186 38,000 286 451 0
2021-06-23 17:11:09 GMT 53.932800 -14.587803 38,000 286 451 0
2021-06-23 17:11:05 GMT 53.930347 -14.572960 38,000 286 451 0
2021-06-23 17:10:59 GMT 53.926987 -14.552726 38,000 286 451 0
2021-06-23 17:10:48 GMT 53.921082 -14.517020 38,000 286 452 0
2021-06-23 17:10:39 GMT 53.915359 -14.482727 38,000 286 452 0
2021-06-23 17:10:28 GMT 53.909775 -14.448983 38,000 286 452 -64
2021-06-23 17:10:18 GMT 53.903721 -14.412770 38,000 286 452 64
2021-06-23 17:10:08 GMT 53.898285 -14.380319 38,000 286 452 0
2021-06-23 17:09:58 GMT 53.892315 -14.344752 38,000 286 453 0
2021-06-23 17:09:48 GMT 53.886776 -14.311793 38,000 286 453 0
2021-06-23 17:09:38 GMT 53.881050 -14.277784 38,000 286 452 64
2021-06-23 17:09:27 GMT 53.875076 -14.242283 38,000 286 452 0
2021-06-23 17:09:18 GMT 53.869217 -14.207676 38,000 287 452 0
2021-06-23 17:09:07 GMT 53.863499 -14.174221 38,000 287 452 0
2021-06-23 17:08:57 GMT 53.857498 -14.138777 38,000 287 452 0
2021-06-23 17:08:47 GMT 53.851685 -14.104483 38,000 287 451 0
2021-06-23 17:08:44 GMT 53.850037 -14.094674 38,000 287 451 0
2021-06-23 17:08:37 GMT 53.845947 -14.070821 38,000 287 451 0
2021-06-23 17:08:34 GMT 53.844498 -14.062186 38,000 287 451 0
2021-06-23 17:08:26 GMT 53.839897 -14.035277 38,000 287 451 0
2021-06-23 17:08:21 GMT 53.837059 -14.018716 38,000 287 451 0
2021-06-23 17:08:14 GMT 53.832733 -13.993129 38,000 287 451 0
2021-06-23 17:08:07 GMT 53.828247 -13.967154 38,000 287 450 0
2021-06-23 17:08:03 GMT 53.826771 -13.958534 38,000 287 450 0
2021-06-23 17:07:55 GMT 53.821976 -13.930586 38,000 287 451 0
2021-06-23 17:07:46 GMT 53.816666 -13.899510 38,000 287 451 0
2021-06-23 17:07:36 GMT 53.810802 -13.865554 38,000 287 452 64
2021-06-23 17:07:26 GMT 53.804901 -13.831630 38,000 287 451 0
2021-06-23 17:07:16 GMT 53.798840 -13.796243 38,000 287 452 0
2021-06-23 17:07:05 GMT 53.792496 -13.759513 38,000 287 452 0
2021-06-23 17:06:56 GMT 53.786911 -13.727417 38,000 287 453 0
2021-06-23 17:06:45 GMT 53.781097 -13.693830 38,000 287 453 0
2021-06-23 17:06:42 GMT 53.779312 -13.683707 38,000 287 453 -64
2021-06-23 17:06:33 GMT 53.773792 -13.652048 38,000 287 453 0
2021-06-23 17:06:23 GMT 53.767834 -13.617796 38,000 287 453 0
2021-06-23 17:06:14 GMT 53.762604 -13.587812 38,000 287 453 0
2021-06-23 17:06:05 GMT 53.756927 -13.555638 38,000 287 454 0
2021-06-23 17:06:01 GMT 53.754684 -13.542690 38,000 287 454 0
2021-06-23 17:05:51 GMT 53.749329 -13.512163 38,000 287 454 0
2021-06-23 17:05:42 GMT 53.743652 -13.479989 38,000 287 454 0
2021-06-23 17:05:31 GMT 53.736973 -13.442176 38,000 287 454 -64
2021-06-23 17:05:21 GMT 53.731243 -13.409621 38,000 287 454 0
2021-06-23 17:05:11 GMT 53.725330 -13.376097 38,000 287 454 0
2021-06-23 17:05:01 GMT 53.719280 -13.341926 38,000 287 454 0
2021-06-23 17:04:57 GMT 53.716827 -13.328299 38,000 287 454 0
2021-06-23 17:04:51 GMT 53.713394 -13.308995 38,000 287 453 64
2021-06-23 17:04:47 GMT 53.710464 -13.292437 38,000 287 453 0
2021-06-23 17:04:41 GMT 53.707039 -13.273423 38,000 287 453 0
2021-06-23 17:04:37 GMT 53.704514 -13.259007 38,000 287 453 64
2021-06-23 17:04:27 GMT 53.698242 -13.224008 38,000 287 452 0
2021-06-23 17:04:19 GMT 53.693710 -13.198739 38,000 287 452 0
2021-06-23 17:04:16 GMT 53.692188 -13.190137 38,000 287 452 0
2021-06-23 17:04:07 GMT 53.686340 -13.157384 38,000 287 451 0
2021-06-23 17:04:01 GMT 53.683182 -13.139884 38,000 287 451 0
2021-06-23 17:03:55 GMT 53.679478 -13.119291 38,000 287 450 0
2021-06-23 17:03:52 GMT 53.677662 -13.109194 38,000 287 450 0
2021-06-23 17:03:49 GMT 53.675568 -13.097480 38,000 287 450 0
2021-06-23 17:03:46 GMT 53.673431 -13.085580 38,000 287 450 -64
2021-06-23 17:03:43 GMT 53.671371 -13.074201 38,000 287 450 0
2021-06-23 17:03:35 GMT 53.667435 -13.052464 38,000 287 450 0
2021-06-23 17:03:32 GMT 53.665279 -13.040610 38,000 287 450 -64
2021-06-23 17:03:26 GMT 53.661835 -13.021545 38,000 287 450 0
2021-06-23 17:03:20 GMT 53.658298 -13.001754 38,000 287 450 0
2021-06-23 17:03:16 GMT 53.655552 -12.986648 38,000 287 450 0
2021-06-23 17:03:12 GMT 53.652786 -12.971479 38,000 287 450 0
2021-06-23 17:03:05 GMT 53.649315 -12.952235 38,000 287 450 0
2021-06-23 17:02:59 GMT 53.645599 -12.931614 38,000 288 450 0
2021-06-23 17:02:56 GMT 53.643402 -12.919437 38,000 287 450 0
2021-06-23 17:02:50 GMT 53.640236 -12.901988 38,000 288 450 0
2021-06-23 17:02:45 GMT 53.637115 -12.884943 38,000 288 450 0
2021-06-23 17:02:41 GMT 53.634232 -12.868949 38,000 288 450 0
2021-06-23 17:02:36 GMT 53.631134 -12.852042 38,000 288 449 -64
2021-06-23 17:02:29 GMT 53.627571 -12.832516 38,000 288 450 0
2021-06-23 17:02:25 GMT 53.624817 -12.817671 38,000 288 449 0
2021-06-23 17:02:19 GMT 53.620880 -12.795933 38,000 288 450 64
2021-06-23 17:02:14 GMT 53.617844 -12.779442 38,000 288 450 0
2021-06-23 17:02:10 GMT 53.615330 -12.765790 38,000 288 450 0
2021-06-23 17:02:05 GMT 53.612549 -12.750575 38,000 288 450 0
2021-06-23 17:02:00 GMT 53.608932 -12.730957 38,000 288 450 0
2021-06-23 17:01:54 GMT 53.605507 -12.712393 38,000 288 450 0
2021-06-23 17:01:48 GMT 53.601929 -12.692897 38,000 288 450 0
2021-06-23 17:01:42 GMT 53.598385 -12.673780 38,000 288 449 0
2021-06-23 17:01:39 GMT 53.595592 -12.658431 38,000 288 449 0
2021-06-23 17:01:34 GMT 53.593506 -12.647304 38,000 288 449 0
2021-06-23 17:01:27 GMT 53.589523 -12.625645 38,000 288 449 0
2021-06-23 17:01:24 GMT 53.587353 -12.613920 38,000 288 449 0
2021-06-23 17:01:18 GMT 53.583160 -12.591431 38,000 288 449 0
2021-06-23 17:01:09 GMT 53.578079 -12.563808 38,000 288 449 0
2021-06-23 17:01:01 GMT 53.573109 -12.537097 38,000 288 449 0
2021-06-23 17:00:58 GMT 53.571579 -12.528887 38,000 288 449 0
2021-06-23 17:00:54 GMT 53.568741 -12.513585 38,000 288 449 0
2021-06-23 17:00:48 GMT 53.565472 -12.495817 38,000 288 449 0
2021-06-23 17:00:42 GMT 53.561188 -12.473014 38,000 288 449 0
2021-06-23 17:00:38 GMT 53.559219 -12.462341 38,000 288 450 0
2021-06-23 17:00:34 GMT 53.556335 -12.446725 38,000 288 449 0
2021-06-23 17:00:31 GMT 53.554642 -12.437779 38,000 288 449 0
2021-06-23 17:00:28 GMT 53.553043 -12.429253 38,000 288 450 0
2021-06-23 17:00:25 GMT 53.551163 -12.419102 38,000 288 450 0
2021-06-23 17:00:21 GMT 53.548553 -12.405134 38,000 288 450 0
2021-06-23 17:00:18 GMT 53.546665 -12.395002 38,000 288 450 0
2021-06-23 17:00:15 GMT 53.544891 -12.385515 38,000 288 450 0
2021-06-23 17:00:11 GMT 53.542328 -12.371861 38,000 288 450 0
2021-06-23 17:00:08 GMT 53.540497 -12.362209 38,000 288 450 0
2021-06-23 17:00:04 GMT 53.537338 -12.345258 38,000 288 450 0
2021-06-23 17:00:01 GMT 53.536102 -12.338588 38,000 288 450 0
2021-06-23 16:59:56 GMT 53.532372 -12.318824 38,000 288 450 0
2021-06-23 16:59:51 GMT 53.529579 -12.303799 38,000 288 450 64
2021-06-23 16:59:48 GMT 53.527725 -12.294015 38,000 288 450 64
2021-06-23 16:59:45 GMT 53.525803 -12.283657 38,000 288 450 0
2021-06-23 16:59:41 GMT 53.523285 -12.270394 38,000 288 449 -64
2021-06-23 16:59:38 GMT 53.521408 -12.260428 38,000 288 449 0
2021-06-23 16:59:35 GMT 53.519524 -12.250241 38,000 288 449 0
2021-06-23 16:59:31 GMT 53.516968 -12.236808 38,000 288 449 0
2021-06-23 16:59:27 GMT 53.514999 -12.226214 38,000 288 450 0
2021-06-23 16:59:24 GMT 53.512634 -12.213727 38,000 288 450 0
2021-06-23 16:59:21 GMT 53.510742 -12.203613 38,000 288 450 0
2021-06-23 16:59:17 GMT 53.508820 -12.193451 38,000 288 450 64
2021-06-23 16:59:13 GMT 53.505707 -12.177089 38,000 288 450 0
2021-06-23 16:59:10 GMT 53.504013 -12.168143 38,000 288 450 0
2021-06-23 16:59:07 GMT 53.502090 -12.157863 38,000 288 449 0
2021-06-23 16:59:04 GMT 53.499973 -12.146759 38,000 288 449 0
2021-06-23 16:59:00 GMT 53.498158 -12.137146 38,000 288 449 0
2021-06-23 16:58:57 GMT 53.496185 -12.126709 38,000 288 449 0
2021-06-23 16:58:52 GMT 53.492844 -12.109131 38,000 288 449 0
2021-06-23 16:58:47 GMT 53.489594 -12.092070 38,000 288 449 0
2021-06-23 16:58:44 GMT 53.487404 -12.080518 38,000 288 449 0
2021-06-23 16:58:40 GMT 53.485336 -12.069423 38,000 288 449 0
2021-06-23 16:58:37 GMT 53.483215 -12.058303 38,000 288 448 0
2021-06-23 16:58:33 GMT 53.480980 -12.046751 38,000 288 448 0
2021-06-23 16:58:30 GMT 53.478977 -12.036249 38,000 288 448 0
2021-06-23 16:58:27 GMT 53.477051 -12.026106 38,000 288 448 0
2021-06-23 16:58:23 GMT 53.474323 -12.011773 38,000 288 448 0
2021-06-23 16:58:20 GMT 53.472702 -12.003348 38,000 288 448 0
2021-06-23 16:58:16 GMT 53.470459 -11.991420 38,000 288 448 0
2021-06-23 16:58:10 GMT 53.466202 -11.969369 38,000 288 448 0
2021-06-23 16:58:06 GMT 53.464081 -11.958295 38,000 288 448 64
2021-06-23 16:58:03 GMT 53.461212 -11.943316 38,000 288 448 64
2021-06-23 16:58:00 GMT 53.459984 -11.936888 38,000 288 447 0
2021-06-23 16:57:56 GMT 53.457703 -11.925013 38,000 288 447 0
2021-06-23 16:57:52 GMT 53.454865 -11.910149 38,000 288 447 0
2021-06-23 16:57:49 GMT 53.453281 -11.901909 38,000 288 447 0
2021-06-23 16:57:46 GMT 53.451420 -11.892377 38,000 288 447 0
2021-06-23 16:57:42 GMT 53.448303 -11.876064 38,000 288 447 0
2021-06-23 16:57:39 GMT 53.446671 -11.867658 38,000 288 447 0
2021-06-23 16:57:36 GMT 53.445042 -11.859095 38,000 288 447 0
2021-06-23 16:57:32 GMT 53.441666 -11.841535 38,000 288 447 0
2021-06-23 16:57:29 GMT 53.440620 -11.836072 38,000 288 447 0
2021-06-23 16:57:26 GMT 53.438690 -11.826076 38,000 288 446 0
2021-06-23 16:57:22 GMT 53.435078 -11.807475 38,000 288 446 0
2021-06-23 16:57:19 GMT 53.434433 -11.804025 38,000 288 446 0
2021-06-23 16:57:16 GMT 53.431961 -11.791400 38,000 288 446 0
2021-06-23 16:57:09 GMT 53.427795 -11.769889 38,000 288 446 0
2021-06-23 16:57:06 GMT 53.425598 -11.758353 38,000 288 446 64
2021-06-23 16:56:59 GMT 53.421299 -11.736226 38,000 288 446 0
2021-06-23 16:56:56 GMT 53.419205 -11.725401 38,000 288 446 0
2021-06-23 16:56:49 GMT 53.415016 -11.703832 38,000 289 445 0
2021-06-23 16:56:45 GMT 53.412277 -11.689532 38,000 289 445 0
2021-06-23 16:56:39 GMT 53.408386 -11.669521 38,000 289 445 0
2021-06-23 16:56:36 GMT 53.406509 -11.659712 38,000 289 445 0
2021-06-23 16:56:29 GMT 53.402260 -11.637995 38,000 289 445 0
2021-06-23 16:56:25 GMT 53.399918 -11.626046 38,000 289 445 0
2021-06-23 16:56:21 GMT 53.395370 -11.602613 38,000 289 445 0
2021-06-23 16:56:15 GMT 53.393600 -11.593637 38,000 289 445 0
2021-06-23 16:56:09 GMT 53.389343 -11.571742 38,000 289 445 0
2021-06-23 16:56:05 GMT 53.387238 -11.560913 38,000 289 446 -64
2021-06-23 16:55:58 GMT 53.382568 -11.537057 38,000 289 446 0
2021-06-23 16:55:55 GMT 53.380508 -11.526620 38,000 289 446 0
2021-06-23 16:55:48 GMT 53.376480 -11.505981 38,000 289 446 0
2021-06-23 16:55:45 GMT 53.374142 -11.494042 38,000 289 446 0
2021-06-23 16:55:38 GMT 53.369751 -11.471610 38,000 289 446 0
2021-06-23 16:55:35 GMT 53.367531 -11.460275 38,000 289 446 0
2021-06-23 16:55:28 GMT 53.363251 -11.438572 38,000 289 446 0
2021-06-23 16:55:25 GMT 53.361248 -11.428205 38,000 289 446 0
2021-06-23 16:55:18 GMT 53.355427 -11.398800 38,000 289 447 0
2021-06-23 16:55:14 GMT 53.354496 -11.393872 38,000 289 447 0
2021-06-23 16:55:08 GMT 53.350021 -11.371085 38,000 289 447 0
2021-06-23 16:55:04 GMT 53.348145 -11.361590 38,000 289 447 0
2021-06-23 16:54:57 GMT 53.343510 -11.338214 38,000 289 447 0
2021-06-23 16:54:53 GMT 53.340160 -11.321169 38,000 289 447 0
2021-06-23 16:54:48 GMT 53.336666 -11.303478 38,000 289 447 -64
2021-06-23 16:54:44 GMT 53.335087 -11.295642 38,000 289 447 0
2021-06-23 16:54:40 GMT 53.332336 -11.281828 38,000 289 448 0
2021-06-23 16:54:37 GMT 53.330154 -11.270874 38,000 289 448 0
2021-06-23 16:54:34 GMT 53.328278 -11.261379 38,000 289 449 0
2021-06-23 16:54:31 GMT 53.325211 -11.245919 38,000 289 449 0
2021-06-23 16:54:27 GMT 53.323914 -11.239498 38,000 289 449 0
2021-06-23 16:54:24 GMT 53.321770 -11.228754 38,000 289 449 0
2021-06-23 16:54:20 GMT 53.318886 -11.214294 38,000 289 449 64
2021-06-23 16:54:17 GMT 53.316650 -11.202916 38,000 289 449 0
2021-06-23 16:54:14 GMT 53.315254 -11.195876 38,000 289 449 0
2021-06-23 16:54:09 GMT 53.311764 -11.178427 38,000 289 449 0
2021-06-23 16:54:06 GMT 53.309994 -11.169622 38,000 289 449 0
2021-06-23 16:54:03 GMT 53.308319 -11.161246 38,000 289 449 0
2021-06-23 16:53:58 GMT 53.304932 -11.144139 38,000 289 449 0
2021-06-23 16:53:55 GMT 53.303238 -11.135585 38,000 289 449 0
2021-06-23 16:53:53 GMT 53.301910 -11.128993 38,000 289 449 0
2021-06-23 16:53:49 GMT 53.296646 -11.102705 38,000 289 449 0
2021-06-23 16:53:46 GMT 53.296646 -11.102705 38,000 289 449 0
2021-06-23 16:53:44 GMT 53.295376 -11.096272 38,000 289 449 0
2021-06-23 16:53:40 GMT 53.289780 -11.068255 38,000 289 450 0
2021-06-23 16:53:36 GMT 53.289780 -11.068255 38,000 289 450 0
2021-06-23 16:53:33 GMT 53.288498 -11.061977 38,000 289 450 0
2021-06-23 16:53:29 GMT 53.285831 -11.048692 38,000 289 450 0
2021-06-23 16:53:26 GMT 53.283554 -11.037336 38,000 289 450 0
2021-06-23 16:53:23 GMT 53.282017 -11.029546 38,000 289 450 0
2021-06-23 16:53:20 GMT 53.279526 -11.017247 38,000 289 450 0
2021-06-23 16:53:16 GMT 53.276894 -11.004262 38,000 289 450 0
2021-06-23 16:53:13 GMT 53.275173 -10.995699 38,000 289 451 0
2021-06-23 16:53:10 GMT 53.272892 -10.984147 38,000 289 451 0
2021-06-23 16:53:06 GMT 53.270237 -10.971060 38,000 289 451 0
2021-06-23 16:53:03 GMT 53.268421 -10.962174 38,000 289 451 0
2021-06-23 16:52:58 GMT 53.263580 -10.938101 38,000 289 451 0
2021-06-23 16:52:56 GMT 53.261902 -10.929749 38,000 289 451 0
2021-06-23 16:52:53 GMT 53.261902 -10.929749 38,000 289 451 0
2021-06-23 16:52:48 GMT 53.258274 -10.911767 38,000 289 451 0
2021-06-23 16:52:46 GMT 53.257156 -10.906193 38,000 289 451 0
2021-06-23 16:52:43 GMT 53.255127 -10.896162 38,000 289 451 0
2021-06-23 16:52:38 GMT 53.251572 -10.878484 38,000 289 451 0
2021-06-23 16:52:36 GMT 53.250275 -10.872070 38,000 289 451 0
2021-06-23 16:52:33 GMT 53.248405 -10.863055 38,000 289 451 0
2021-06-23 16:52:29 GMT 53.245846 -10.850211 38,000 289 451 0
2021-06-23 16:52:26 GMT 53.243610 -10.839305 38,000 289 452 0
2021-06-23 16:52:22 GMT 53.241165 -10.827340 38,000 289 452 0
2021-06-23 16:52:19 GMT 53.238510 -10.814157 38,000 289 452 0
2021-06-23 16:52:16 GMT 53.236954 -10.806545 38,000 289 452 0
2021-06-23 16:52:14 GMT 53.235352 -10.798619 38,000 289 452 0
2021-06-23 16:52:10 GMT 53.232697 -10.785435 38,000 289 452 0
2021-06-23 16:52:05 GMT 53.229858 -10.771624 38,000 289 452 0
2021-06-23 16:52:02 GMT 53.227505 -10.759897 38,000 289 452 0
2021-06-23 16:51:56 GMT 53.223545 -10.740428 38,000 289 452 0
2021-06-23 16:51:52 GMT 53.221115 -10.728777 38,000 289 452 0
2021-06-23 16:51:49 GMT 53.218891 -10.717729 38,000 289 452 64
2021-06-23 16:51:45 GMT 53.216610 -10.706581 38,000 289 452 0
2021-06-23 16:51:42 GMT 53.214615 -10.696838 38,000 289 452 0
2021-06-23 16:51:39 GMT 53.212234 -10.685173 38,000 289 452 0
2021-06-23 16:51:36 GMT 53.209900 -10.673767 38,000 289 452 0
2021-06-23 16:51:32 GMT 53.207951 -10.664089 38,000 289 452 0
2021-06-23 16:51:29 GMT 53.205204 -10.650599 38,000 289 452 0
2021-06-23 16:51:25 GMT 53.202877 -10.639451 38,000 289 451 0
2021-06-23 16:51:22 GMT 53.200874 -10.629596 38,000 289 451 0
2021-06-23 16:51:19 GMT 53.198547 -10.618286 38,000 289 451 0
2021-06-23 16:51:16 GMT 53.196590 -10.608592 38,000 289 451 0
2021-06-23 16:51:14 GMT 53.195526 -10.603533 38,000 289 451 0
2021-06-23 16:51:09 GMT 53.191086 -10.581874 38,000 289 451 0
2021-06-23 16:51:06 GMT 53.189888 -10.576118 38,000 289 451 0
2021-06-23 16:51:04 GMT 53.188705 -10.570339 38,000 289 451 0
2021-06-23 16:51:01 GMT 53.186966 -10.561863 38,000 289 451 0
2021-06-23 16:50:58 GMT 53.183853 -10.546718 38,000 289 451 0
2021-06-23 16:50:55 GMT 53.182846 -10.541853 38,000 289 451 0
2021-06-23 16:50:52 GMT 53.179871 -10.527335 38,000 289 451 0
2021-06-23 16:50:49 GMT 53.176529 -10.511089 38,000 289 452 0
2021-06-23 16:50:46 GMT 53.176529 -10.511089 38,000 289 452 0
2021-06-23 16:50:43 GMT 53.174789 -10.502773 38,000 289 452 0
2021-06-23 16:50:39 GMT 53.171314 -10.485885 38,000 289 452 0
2021-06-23 16:50:35 GMT 53.169544 -10.477322 38,000 289 452 0
2021-06-23 16:50:31 GMT 53.164284 -10.451714 38,000 289 452 0
2021-06-23 16:50:28 GMT 53.164284 -10.451714 38,000 289 452 0
2021-06-23 16:50:25 GMT 53.161400 -10.437900 38,000 289 452 0
2021-06-23 16:50:21 GMT 53.159119 -10.426752 38,000 289 452 0
2021-06-23 16:50:18 GMT 53.157440 -10.418727 38,000 289 452 0
2021-06-23 16:50:15 GMT 53.155441 -10.408980 38,000 289 452 0
2021-06-23 16:50:12 GMT 53.153950 -10.401791 38,000 289 452 0
2021-06-23 16:50:08 GMT 53.148785 -10.376910 38,000 289 452 0
2021-06-23 16:50:05 GMT 53.146317 -10.365035 38,000 290 452 0
2021-06-23 16:50:02 GMT 53.146317 -10.365035 38,000 290 452 0
2021-06-23 16:49:59 GMT 53.141785 -10.343236 38,000 290 452 0
2021-06-23 16:49:55 GMT 53.141785 -10.343236 38,000 290 452 0
2021-06-23 16:49:52 GMT 53.138123 -10.325694 38,000 290 452 0
2021-06-23 16:49:49 GMT 53.138123 -10.325694 38,000 290 452 0
2021-06-23 16:49:47 GMT 53.136429 -10.317261 38,000 290 452 0
2021-06-23 16:49:43 GMT 53.133591 -10.303842 38,000 290 452 0
2021-06-23 16:49:40 GMT 53.130070 -10.286919 38,000 290 452 0
2021-06-23 16:49:37 GMT 53.130070 -10.286919 38,000 290 452 0
2021-06-23 16:49:34 GMT 53.128021 -10.277064 38,000 290 452 0
2021-06-23 16:49:31 GMT 53.125259 -10.263742 38,000 290 452 0
2021-06-23 16:49:28 GMT 53.123596 -10.255737 38,000 290 453 0
2021-06-23 16:49:25 GMT 53.121231 -10.244359 38,000 290 453 0
2021-06-23 16:49:22 GMT 53.119129 -10.234330 38,000 290 453 0
2021-06-23 16:49:18 GMT 53.116661 -10.222536 38,000 290 453 0
2021-06-23 16:49:15 GMT 53.114613 -10.212681 38,000 290 453 0
2021-06-23 16:49:12 GMT 53.111938 -10.200021 38,000 290 453 0
2021-06-23 16:49:09 GMT 53.109970 -10.190526 38,000 290 453 0
2021-06-23 16:49:06 GMT 53.108562 -10.183761 38,000 290 453 0
2021-06-23 16:49:04 GMT 53.107498 -10.178676 38,000 290 453 0
2021-06-23 16:49:01 GMT 53.105347 -10.168553 38,000 290 453 0
2021-06-23 16:48:58 GMT 53.102737 -10.156076 38,000 290 453 0
2021-06-23 16:48:54 GMT 53.100540 -10.145560 38,000 290 453 0
2021-06-23 16:48:50 GMT 53.097290 -10.130101 38,000 290 453 0
2021-06-23 16:48:47 GMT 53.095249 -10.120428 38,000 290 453 0
2021-06-23 16:48:45 GMT 53.093849 -10.113857 38,000 290 453 0
2021-06-23 16:48:42 GMT 53.090965 -10.100124 38,000 290 452 -64
2021-06-23 16:48:39 GMT 53.089802 -10.094552 38,000 290 452 -64
2021-06-23 16:48:37 GMT 53.088406 -10.088039 38,025 290 452 0
2021-06-23 16:48:35 GMT 53.087055 -10.081447 38,000 290 452 0
2021-06-23 16:48:32 GMT 53.084911 -10.071324 38,000 290 452 0
2021-06-23 16:48:29 GMT 53.082771 -10.061122 38,000 290 452 0
2021-06-23 16:48:26 GMT 53.078350 -10.040248 38,000 290 452 0
2021-06-23 16:48:22 GMT 53.078350 -10.040248 38,000 290 452 0
2021-06-23 16:48:19 GMT 53.075958 -10.028915 38,000 290 452 -64
2021-06-23 16:48:17 GMT 53.074448 -10.021744 38,000 290 452 0
2021-06-23 16:48:15 GMT 53.071060 -10.005722 38,000 290 452 0
2021-06-23 16:48:12 GMT 53.071060 -10.005722 38,000 290 452 0
2021-06-23 16:48:09 GMT 53.069084 -9.996460 38,000 290 451 0
2021-06-23 16:48:07 GMT 53.067688 -9.989868 38,000 290 451 0
2021-06-23 16:48:05 GMT 53.066154 -9.982727 38,000 290 451 0
2021-06-23 16:48:02 GMT 53.064056 -9.972918 38,000 290 451 0
2021-06-23 16:47:58 GMT 53.061447 -9.960709 38,000 290 451 0
2021-06-23 16:47:55 GMT 53.059113 -9.949570 38,000 290 451 0
2021-06-23 16:47:52 GMT 53.057327 -9.941101 38,000 290 451 0
2021-06-23 16:47:49 GMT 53.055214 -9.931170 38,000 290 451 0
2021-06-23 16:47:47 GMT 53.053722 -9.924264 38,000 290 451 0
2021-06-23 16:47:44 GMT 53.051907 -9.915789 38,000 290 451 0
2021-06-23 16:47:42 GMT 53.050095 -9.907150 38,000 290 451 0
2021-06-23 16:47:39 GMT 53.047905 -9.896877 38,000 290 451 0
2021-06-23 16:47:37 GMT 53.046928 -9.892325 38,000 290 451 0
2021-06-23 16:47:34 GMT 53.045067 -9.883536 38,000 290 451 0
2021-06-23 16:47:32 GMT 53.043201 -9.874747 38,000 290 450 0
2021-06-23 16:47:29 GMT 53.039749 -9.858627 38,000 290 450 0
2021-06-23 16:47:27 GMT 53.039749 -9.858627 38,000 290 450 0
2021-06-23 16:47:25 GMT 53.038422 -9.852448 38,000 290 450 0
2021-06-23 16:47:22 GMT 53.036224 -9.841995 38,000 290 450 0
2021-06-23 16:47:19 GMT 53.034210 -9.832535 38,000 290 450 0
2021-06-23 16:47:17 GMT 53.032497 -9.824602 38,000 290 450 0
2021-06-23 16:47:14 GMT 53.031097 -9.817963 38,000 290 450 0
2021-06-23 16:47:12 GMT 53.029331 -9.809614 38,000 290 450 0
2021-06-23 16:47:09 GMT 53.027298 -9.800034 38,000 290 450 64
2021-06-23 16:47:07 GMT 53.025833 -9.793243 38,000 290 450 64
2021-06-23 16:47:04 GMT 53.024185 -9.785461 38,000 290 450 0
2021-06-23 16:47:01 GMT 53.021790 -9.774222 38,000 290 450 0
2021-06-23 16:46:58 GMT 53.019745 -9.764633 38,000 290 450 64
2021-06-23 16:46:56 GMT 53.018280 -9.757767 38,000 290 450 0
2021-06-23 16:46:51 GMT 53.015411 -9.744324 38,000 290 450 0
2021-06-23 16:46:48 GMT 53.013016 -9.733124 38,000 290 450 0
2021-06-23 16:46:45 GMT 53.010544 -9.721756 38,000 290 450 0
2021-06-23 16:46:42 GMT 53.009125 -9.715131 38,000 290 450 0
2021-06-23 16:46:39 GMT 53.006332 -9.701996 38,000 290 450 0
2021-06-23 16:46:37 GMT 53.005280 -9.697113 38,000 290 450 0
2021-06-23 16:46:35 GMT 53.003586 -9.689157 38,000 290 450 0
2021-06-23 16:46:33 GMT 53.001984 -9.681854 38,000 290 450 0
2021-06-23 16:46:29 GMT 52.999420 -9.669876 38,000 290 450 0
2021-06-23 16:46:27 GMT 52.998322 -9.664688 38,000 290 450 0
2021-06-23 16:46:25 GMT 52.996490 -9.656296 38,000 290 450 0
2021-06-23 16:46:22 GMT 52.994835 -9.648664 38,000 290 450 0
2021-06-23 16:46:18 GMT 52.991947 -9.635088 38,000 290 450 0
2021-06-23 16:46:15 GMT 52.989574 -9.624023 38,000 290 450 0
2021-06-23 16:46:12 GMT 52.987930 -9.616470 38,000 290 450 0
2021-06-23 16:46:09 GMT 52.985291 -9.604327 38,000 290 450 0
2021-06-23 16:46:06 GMT 52.983803 -9.597499 38,000 290 450 0
2021-06-23 16:46:04 GMT 52.982498 -9.591300 38,000 290 450 0
2021-06-23 16:46:02 GMT 52.980927 -9.584045 38,000 290 450 0
2021-06-23 16:45:59 GMT 52.978455 -9.572678 38,000 290 450 0
2021-06-23 16:45:57 GMT 52.977283 -9.567365 38,000 290 450 0
2021-06-23 16:45:54 GMT 52.975189 -9.557635 38,000 290 450 0
2021-06-23 16:45:51 GMT 52.973465 -9.549713 38,000 290 450 0
2021-06-23 16:45:48 GMT 52.971188 -9.539115 38,000 290 450 0
2021-06-23 16:45:46 GMT 52.969070 -9.529266 38,000 290 450 0
2021-06-23 16:45:42 GMT 52.964355 -9.507523 38,000 290 451 0
2021-06-23 16:45:39 GMT 52.964355 -9.507523 38,000 290 451 0
2021-06-23 16:45:37 GMT 52.962936 -9.501038 38,000 290 451 0
2021-06-23 16:45:34 GMT 52.961411 -9.494071 38,000 290 450 0
2021-06-23 16:45:32 GMT 52.959503 -9.485282 38,000 290 450 -64
2021-06-23 16:45:29 GMT 52.957443 -9.475708 38,000 290 450 0
2021-06-23 16:45:27 GMT 52.955887 -9.468613 38,000 290 450 0
2021-06-23 16:45:23 GMT 52.952911 -9.454956 38,000 290 450 0
2021-06-23 16:45:20 GMT 52.951492 -9.448471 38,000 290 450 0
2021-06-23 16:45:17 GMT 52.947304 -9.429252 38,000 290 450 0
2021-06-23 16:45:14 GMT 52.947304 -9.429252 38,000 290 450 0
2021-06-23 16:45:11 GMT 52.945210 -9.419521 38,000 290 450 0
2021-06-23 16:45:08 GMT 52.943115 -9.409943 38,000 290 450 0
2021-06-23 16:45:06 GMT 52.941673 -9.403355 38,000 290 450 0
2021-06-23 16:45:03 GMT 52.937481 -9.383894 38,000 290 450 -64
2021-06-23 16:45:00 GMT 52.937481 -9.383894 38,000 290 450 0
2021-06-23 16:44:57 GMT 52.934734 -9.371259 38,000 290 449 0
2021-06-23 16:44:54 GMT 52.932907 -9.363022 38,000 290 449 0
2021-06-23 16:44:51 GMT 52.930527 -9.352036 38,000 290 449 0
2021-06-23 16:44:47 GMT 52.927940 -9.340262 38,000 290 449 0
2021-06-23 16:44:45 GMT 52.926498 -9.333649 38,000 290 449 0
2021-06-23 16:44:42 GMT 52.923523 -9.320068 38,000 290 449 0
2021-06-23 16:44:38 GMT 52.921982 -9.312796 38,000 290 449 0
2021-06-23 16:44:36 GMT 52.920116 -9.304400 38,000 290 449 0
2021-06-23 16:44:34 GMT 52.918629 -9.297651 38,000 290 449 0
2021-06-23 16:44:30 GMT 52.916161 -9.286351 38,000 290 448 0
2021-06-23 16:44:27 GMT 52.913788 -9.275364 38,000 290 448 0
2021-06-23 16:44:24 GMT 52.911785 -9.266418 38,000 290 448 0
2021-06-23 16:44:20 GMT 52.909180 -9.254490 38,000 290 448 0
2021-06-23 16:44:17 GMT 52.906666 -9.242876 38,000 290 448 0
2021-06-23 16:44:13 GMT 52.904160 -9.231415 38,000 290 448 0
2021-06-23 16:44:10 GMT 52.901962 -9.221497 38,000 290 448 0
2021-06-23 16:44:07 GMT 52.899628 -9.210815 38,000 290 448 0
2021-06-23 16:44:04 GMT 52.897541 -9.201364 38,000 290 448 0
2021-06-23 16:44:00 GMT 52.894913 -9.189301 38,000 290 448 0
2021-06-23 16:43:57 GMT 52.892441 -9.178009 38,000 290 448 0
2021-06-23 16:43:54 GMT 52.890511 -9.169189 38,000 290 447 0
2021-06-23 16:43:50 GMT 52.887634 -9.156113 38,000 291 448 0
2021-06-23 16:43:47 GMT 52.885437 -9.146194 38,000 291 448 0
2021-06-23 16:43:43 GMT 52.882690 -9.133798 38,000 291 448 0
2021-06-23 16:43:40 GMT 52.880676 -9.124680 38,000 291 448 0
2021-06-23 16:43:37 GMT 52.878113 -9.113083 38,000 291 448 0
2021-06-23 16:43:34 GMT 52.876034 -9.103664 38,000 291 448 0
2021-06-23 16:43:31 GMT 52.873753 -9.093384 38,000 291 448 0
2021-06-23 16:43:27 GMT 52.871098 -9.081456 38,000 291 448 0
2021-06-23 16:43:24 GMT 52.869186 -9.072952 38,000 291 448 0
2021-06-23 16:43:21 GMT 52.864815 -9.053284 38,000 291 448 0
2021-06-23 16:43:18 GMT 52.864815 -9.053284 38,000 291 448 0
2021-06-23 16:43:16 GMT 52.863605 -9.047791 38,000 291 448 0
2021-06-23 16:43:12 GMT 52.860764 -9.034999 38,000 291 448 0
2021-06-23 16:43:08 GMT 52.858017 -9.022598 38,000 291 448 0
2021-06-23 16:43:06 GMT 52.854805 -9.008004 38,000 291 448 0
2021-06-23 16:43:04 GMT 52.854805 -9.008004 38,000 291 448 0
2021-06-23 16:43:01 GMT 52.853039 -9.000000 38,000 291 448 0
2021-06-23 16:42:58 GMT 52.850510 -8.988647 38,000 291 448 0
2021-06-23 16:42:56 GMT 52.849411 -8.983841 38,000 291 448 0
2021-06-23 16:42:53 GMT 52.847214 -8.973846 38,000 291 448 0
2021-06-23 16:42:50 GMT 52.844749 -8.962803 38,000 291 448 0
2021-06-23 16:42:47 GMT 52.842728 -8.953705 38,000 291 448 0
2021-06-23 16:42:43 GMT 52.839935 -8.941193 38,000 291 448 0
2021-06-23 16:42:41 GMT 52.838791 -8.936081 38,000 291 448 0
2021-06-23 16:42:38 GMT 52.836185 -8.924351 38,000 291 448 0
2021-06-23 16:42:36 GMT 52.835487 -8.921212 38,000 291 448 0
2021-06-23 16:42:33 GMT 52.833069 -8.910446 38,000 291 448 0
2021-06-23 16:42:30 GMT 52.830872 -8.900528 38,000 291 448 0
2021-06-23 16:42:27 GMT 52.828629 -8.890533 38,000 291 448 0
2021-06-23 16:42:24 GMT 52.826477 -8.880920 38,000 291 448 0
2021-06-23 16:42:22 GMT 52.824966 -8.874207 38,000 291 448 0
2021-06-23 16:42:19 GMT 52.822906 -8.864975 38,000 291 448 0
2021-06-23 16:42:16 GMT 52.821239 -8.857413 38,000 291 448 0
2021-06-23 16:42:14 GMT 52.819336 -8.848953 38,000 291 448 0
2021-06-23 16:42:11 GMT 52.817516 -8.840777 38,000 291 448 0
2021-06-23 16:42:08 GMT 52.814896 -8.829041 38,000 291 448 0
2021-06-23 16:42:06 GMT 52.813934 -8.824921 38,000 291 448 0
2021-06-23 16:42:04 GMT 52.812012 -8.816299 38,000 291 448 0
2021-06-23 16:42:02 GMT 52.810162 -8.808132 38,000 291 448 0
2021-06-23 16:41:58 GMT 52.807434 -8.795776 38,000 291 448 0
2021-06-23 16:41:56 GMT 52.806671 -8.792437 38,000 291 448 0
2021-06-23 16:41:53 GMT 52.804184 -8.781357 38,000 291 448 0
2021-06-23 16:41:51 GMT 52.802994 -8.775940 38,000 291 448 0
2021-06-23 16:41:48 GMT 52.800480 -8.764893 38,000 291 448 0
2021-06-23 16:41:46 GMT 52.799515 -8.760529 38,000 291 448 0
2021-06-23 16:41:43 GMT 52.795174 -8.741115 38,000 291 448 0
2021-06-23 16:41:41 GMT 52.793728 -8.734759 38,000 291 448 0
2021-06-23 16:41:38 GMT 52.793728 -8.734759 38,000 291 448 0
2021-06-23 16:41:36 GMT 52.792286 -8.728324 38,000 291 448 0
2021-06-23 16:41:34 GMT 52.788574 -8.711853 38,000 291 449 0
2021-06-23 16:41:31 GMT 52.788574 -8.711853 38,000 291 449 0
2021-06-23 16:41:28 GMT 52.785999 -8.700466 38,000 291 449 0
2021-06-23 16:41:24 GMT 52.782974 -8.686968 38,000 291 450 0
2021-06-23 16:41:20 GMT 52.780426 -8.675537 38,000 291 450 0
2021-06-23 16:41:17 GMT 52.778042 -8.665152 38,000 291 450 0
2021-06-23 16:41:15 GMT 52.777248 -8.661621 38,000 291 450 0
2021-06-23 16:41:12 GMT 52.774750 -8.650589 38,000 291 450 0
2021-06-23 16:41:09 GMT 52.771133 -8.634491 38,000 291 450 0
2021-06-23 16:41:06 GMT 52.769394 -8.626785 38,000 291 450 0
2021-06-23 16:41:03 GMT 52.767986 -8.620501 38,000 291 450 0
2021-06-23 16:41:00 GMT 52.765892 -8.611162 38,000 291 450 0
2021-06-23 16:40:57 GMT 52.763947 -8.602676 38,000 291 450 0
2021-06-23 16:40:55 GMT 52.762169 -8.594840 38,000 291 451 0
2021-06-23 16:40:51 GMT 52.759644 -8.583755 38,000 291 451 0
2021-06-23 16:40:47 GMT 52.756668 -8.570557 38,000 291 451 0
2021-06-23 16:40:45 GMT 52.754486 -8.561096 38,000 291 451 0
2021-06-23 16:40:41 GMT 52.751926 -8.549796 38,000 291 451 0
2021-06-23 16:40:37 GMT 52.749435 -8.538742 38,000 291 451 0
2021-06-23 16:40:34 GMT 52.746918 -8.527756 38,000 291 451 0
2021-06-23 16:40:31 GMT 52.742752 -8.509445 38,000 291 451 0
2021-06-23 16:40:28 GMT 52.742752 -8.509445 38,000 291 451 0
2021-06-23 16:40:26 GMT 52.741882 -8.505554 38,000 291 451 0
2021-06-23 16:40:22 GMT 52.737625 -8.486938 38,000 291 452 0
2021-06-23 16:40:18 GMT 52.735397 -8.477129 38,000 291 452 0
2021-06-23 16:40:16 GMT 52.732048 -8.462298 38,000 291 452 0
2021-06-23 16:40:13 GMT 52.730255 -8.454361 38,000 291 452 0
2021-06-23 16:40:11 GMT 52.730255 -8.454361 38,000 291 452 0
2021-06-23 16:40:08 GMT 52.727829 -8.443756 38,000 291 452 0
2021-06-23 16:40:06 GMT 52.726692 -8.438756 38,000 291 452 0
2021-06-23 16:40:02 GMT 52.722923 -8.422276 38,000 291 454 0
2021-06-23 16:39:59 GMT 52.721386 -8.415527 38,000 291 454 0
2021-06-23 16:39:56 GMT 52.719105 -8.405483 38,000 291 454 0
2021-06-23 16:39:51 GMT 52.715382 -8.389317 38,000 291 454 0
2021-06-23 16:39:48 GMT 52.713226 -8.379745 38,000 291 455 0
2021-06-23 16:39:46 GMT 52.711807 -8.373642 38,000 291 455 0
2021-06-23 16:39:41 GMT 52.707962 -8.356857 38,000 291 455 -64
2021-06-23 16:39:38 GMT 52.704395 -8.341134 38,000 291 455 -64
2021-06-23 16:39:36 GMT 52.704395 -8.341134 38,000 291 455 -64
2021-06-23 16:39:33 GMT 52.701416 -8.328018 38,000 291 455 0
2021-06-23 16:39:30 GMT 52.699905 -8.321609 38,000 291 455 64
2021-06-23 16:39:26 GMT 52.697041 -8.309117 38,000 291 455 -64
2021-06-23 16:39:23 GMT 52.694962 -8.299942 38,000 291 455 -64
2021-06-23 16:39:21 GMT 52.693035 -8.291617 38,000 291 456 0
2021-06-23 16:39:18 GMT 52.690842 -8.282089 38,000 291 456 0
2021-06-23 16:39:16 GMT 52.689266 -8.275138 38,000 291 456 0
2021-06-23 16:39:11 GMT 52.685776 -8.259914 38,000 291 456 0
2021-06-23 16:39:08 GMT 52.683334 -8.249359 38,000 291 457 0
2021-06-23 16:39:06 GMT 52.681816 -8.242728 38,000 291 457 0
2021-06-23 16:39:03 GMT 52.677906 -8.225856 38,000 291 457 0
2021-06-23 16:39:00 GMT 52.677906 -8.225856 38,000 291 457 0
2021-06-23 16:38:57 GMT 52.675186 -8.213959 38,000 291 457 0
2021-06-23 16:38:53 GMT 52.670013 -8.191528 38,000 291 457 0
2021-06-23 16:38:50 GMT 52.670013 -8.191528 38,000 291 457 0
2021-06-23 16:38:47 GMT 52.667805 -8.181989 38,000 291 457 0
2021-06-23 16:38:45 GMT 52.666351 -8.175583 38,000 291 458 0
2021-06-23 16:38:41 GMT 52.663284 -8.162308 38,000 291 458 0
2021-06-23 16:38:38 GMT 52.660995 -8.152542 38,000 291 458 0
2021-06-23 16:38:36 GMT 52.659805 -8.147354 38,000 291 458 0
2021-06-23 16:38:33 GMT 52.657192 -8.136082 38,000 291 458 0
2021-06-23 16:38:30 GMT 52.655045 -8.126831 38,000 291 458 0
2021-06-23 16:38:26 GMT 52.652443 -8.115601 38,000 291 458 0
2021-06-23 16:38:23 GMT 52.649742 -8.103908 38,000 291 458 0
2021-06-23 16:38:21 GMT 52.645844 -8.087158 38,000 291 459 0
2021-06-23 16:38:18 GMT 52.644527 -8.081464 38,000 291 459 0
2021-06-23 16:38:16 GMT 52.644527 -8.081464 38,000 291 459 0
2021-06-23 16:38:13 GMT 52.642109 -8.071027 38,000 291 459 0
2021-06-23 16:38:11 GMT 52.638245 -8.054470 38,000 291 459 0
2021-06-23 16:38:08 GMT 52.638245 -8.054470 38,000 291 459 0
2021-06-23 16:38:06 GMT 52.636734 -8.047791 38,000 291 459 0
2021-06-23 16:38:03 GMT 52.634476 -8.038225 38,000 291 459 0
2021-06-23 16:38:01 GMT 52.632339 -8.028946 38,000 291 459 0
2021-06-23 16:37:58 GMT 52.630829 -8.022385 38,000 291 459 0
2021-06-23 16:37:56 GMT 52.629261 -8.015703 38,000 291 459 0
2021-06-23 16:37:53 GMT 52.626938 -8.005829 38,000 291 459 0
2021-06-23 16:37:51 GMT 52.623001 -7.988892 38,000 291 459 0
2021-06-23 16:37:48 GMT 52.623001 -7.988892 38,000 292 459 0
2021-06-23 16:37:46 GMT 52.618515 -7.969666 38,000 291 460 0
2021-06-23 16:37:42 GMT 52.616638 -7.961578 38,000 291 460 0
2021-06-23 16:37:39 GMT 52.616638 -7.961578 38,000 291 460 0
2021-06-23 16:37:37 GMT 52.614689 -7.953238 38,000 291 460 0
2021-06-23 16:37:32 GMT 52.611145 -7.938080 38,000 291 460 0
2021-06-23 16:37:29 GMT 52.608685 -7.927499 38,000 291 460 0
2021-06-23 16:37:26 GMT 52.606430 -7.917862 38,000 291 460 0
2021-06-23 16:37:23 GMT 52.603981 -7.907331 38,000 292 461 0
2021-06-23 16:37:19 GMT 52.600662 -7.893143 38,000 292 460 0
2021-06-23 16:37:16 GMT 52.599197 -7.886963 38,000 292 460 0
2021-06-23 16:37:14 GMT 52.597420 -7.879316 38,000 292 460 0
2021-06-23 16:37:11 GMT 52.595078 -7.869339 38,000 292 460 0
2021-06-23 16:37:08 GMT 52.592716 -7.859384 38,000 292 460 0
2021-06-23 16:37:05 GMT 52.590317 -7.849121 38,000 292 460 0
2021-06-23 16:37:02 GMT 52.588715 -7.842255 38,000 292 460 0
2021-06-23 16:36:59 GMT 52.585827 -7.830035 38,000 292 461 0
2021-06-23 16:36:56 GMT 52.583862 -7.821732 38,000 292 461 0
2021-06-23 16:36:54 GMT 52.582291 -7.815046 38,000 292 461 -64
2021-06-23 16:36:51 GMT 52.580658 -7.808075 38,000 292 461 0
2021-06-23 16:36:48 GMT 52.576401 -7.789764 38,000 292 461 0
2021-06-23 16:36:43 GMT 52.573444 -7.777222 38,000 292 460 0
2021-06-23 16:36:40 GMT 52.571350 -7.768433 38,000 292 461 0
2021-06-23 16:36:37 GMT 52.569439 -7.760271 38,000 292 461 0
2021-06-23 16:36:35 GMT 52.567207 -7.750854 38,000 292 461 0
2021-06-23 16:36:32 GMT 52.565643 -7.744141 38,000 292 461 0
2021-06-23 16:36:30 GMT 52.564133 -7.737656 38,000 292 461 0
2021-06-23 16:36:27 GMT 52.561844 -7.727814 38,000 292 460 0
2021-06-23 16:36:25 GMT 52.559479 -7.717896 38,000 292 461 0
2021-06-23 16:36:22 GMT 52.557617 -7.710127 38,000 292 461 0
2021-06-23 16:36:19 GMT 52.553055 -7.690735 38,000 292 461 0
2021-06-23 16:36:16 GMT 52.553055 -7.690735 38,000 292 461 0
2021-06-23 16:36:14 GMT 52.551472 -7.684073 38,000 292 461 0
2021-06-23 16:36:11 GMT 52.549469 -7.675598 38,000 292 461 0
2021-06-23 16:36:09 GMT 52.547607 -7.667751 38,000 292 461 0
2021-06-23 16:36:06 GMT 52.541786 -7.642953 38,000 292 461 0
2021-06-23 16:36:02 GMT 52.539825 -7.634659 38,000 292 461 0
2021-06-23 16:35:59 GMT 52.539825 -7.634659 38,000 292 461 0
2021-06-23 16:35:57 GMT 52.537365 -7.624433 38,000 292 461 0
2021-06-23 16:35:53 GMT 52.534851 -7.613682 38,000 292 461 0
2021-06-23 16:35:50 GMT 52.532547 -7.604065 38,000 292 461 0
2021-06-23 16:35:47 GMT 52.530987 -7.597438 38,000 292 461 0
2021-06-23 16:35:45 GMT 52.528660 -7.587629 38,000 292 459 0
2021-06-23 16:35:42 GMT 52.527031 -7.580802 38,000 292 461 0
2021-06-23 16:35:39 GMT 52.524284 -7.569109 38,000 292 461 0
2021-06-23 16:35:36 GMT 52.522236 -7.560634 38,000 292 461 0
2021-06-23 16:35:34 GMT 52.520374 -7.552865 38,000 292 461 0
2021-06-23 16:35:31 GMT 52.518494 -7.544861 38,000 292 460 64
2021-06-23 16:35:27 GMT 52.515347 -7.531756 38,000 292 461 0
2021-06-23 16:35:25 GMT 52.513321 -7.523117 38,000 292 461 -64
2021-06-23 16:35:22 GMT 52.510784 -7.512530 38,000 292 461 0
2021-06-23 16:35:19 GMT 52.508881 -7.504578 38,000 292 461 0
2021-06-23 16:35:17 GMT 52.507759 -7.499895 38,000 292 460 0
2021-06-23 16:35:15 GMT 52.506084 -7.492754 38,000 292 460 0
2021-06-23 16:35:12 GMT 52.503754 -7.483024 38,000 292 460 0
2021-06-23 16:35:09 GMT 52.501236 -7.472458 38,000 292 460 0
2021-06-23 16:35:07 GMT 52.499798 -7.466466 38,000 292 460 0
2021-06-23 16:35:05 GMT 52.498627 -7.461395 38,000 292 460 0
2021-06-23 16:35:02 GMT 52.495834 -7.449722 38,000 292 460 0
2021-06-23 16:34:59 GMT 52.493465 -7.439863 38,000 292 460 0
2021-06-23 16:34:56 GMT 52.491047 -7.429818 38,000 292 460 0
2021-06-23 16:34:54 GMT 52.489323 -7.422677 38,000 292 460 0
2021-06-23 16:34:51 GMT 52.487228 -7.413888 38,000 292 460 0
2021-06-23 16:34:47 GMT 52.484207 -7.401123 38,000 292 460 0
2021-06-23 16:34:44 GMT 52.481644 -7.390581 38,000 292 460 -64
2021-06-23 16:34:40 GMT 52.477661 -7.373886 38,000 292 459 -64
2021-06-23 16:34:37 GMT 52.476517 -7.369080 38,000 292 459 -64
2021-06-23 16:34:35 GMT 52.472656 -7.353071 38,000 292 459 0
2021-06-23 16:34:32 GMT 52.472656 -7.353071 38,000 292 459 64
2021-06-23 16:34:30 GMT 52.471497 -7.348206 38,000 292 459 64
2021-06-23 16:34:27 GMT 52.468918 -7.337341 38,000 292 459 0
2021-06-23 16:34:25 GMT 52.466839 -7.328744 38,000 292 459 0
2021-06-23 16:34:23 GMT 52.464931 -7.320740 38,000 292 459 0
2021-06-23 16:34:20 GMT 52.463348 -7.314226 38,000 292 459 0
2021-06-23 16:34:17 GMT 52.457565 -7.290115 38,000 292 460 -64
2021-06-23 16:34:13 GMT 52.457565 -7.290115 38,000 292 460 0
2021-06-23 16:34:10 GMT 52.455688 -7.282410 38,000 292 460 0
2021-06-23 16:34:07 GMT 52.453339 -7.272557 38,000 292 460 0
2021-06-23 16:34:05 GMT 52.451706 -7.265930 38,000 292 460 0
2021-06-23 16:34:02 GMT 52.449196 -7.255371 38,000 292 460 0
2021-06-23 16:33:59 GMT 52.446487 -7.244263 38,000 292 460 0
2021-06-23 16:33:57 GMT 52.445423 -7.239912 38,000 292 460 0
2021-06-23 16:33:55 GMT 52.443794 -7.233163 38,000 292 460 0
2021-06-23 16:33:52 GMT 52.441452 -7.223282 38,000 292 460 0
2021-06-23 16:33:50 GMT 52.439850 -7.216797 38,000 292 460 0
2021-06-23 16:33:47 GMT 52.437466 -7.206953 38,000 292 460 0
2021-06-23 16:33:45 GMT 52.436024 -7.200832 38,000 292 460 0
2021-06-23 16:33:42 GMT 52.433395 -7.190018 38,000 292 460 0
2021-06-23 16:33:40 GMT 52.432110 -7.184666 38,000 292 460 0
2021-06-23 16:33:37 GMT 52.429688 -7.174835 38,000 292 460 0
2021-06-23 16:33:34 GMT 52.427353 -7.165146 38,000 292 460 0
2021-06-23 16:33:31 GMT 52.422867 -7.146683 38,000 292 460 0
2021-06-23 16:33:28 GMT 52.422867 -7.146683 38,000 292 460 0
2021-06-23 16:33:26 GMT 52.420624 -7.137375 38,000 292 460 0
2021-06-23 16:33:23 GMT 52.418705 -7.129421 38,000 292 460 0
2021-06-23 16:33:20 GMT 52.413895 -7.109604 38,000 292 460 0
2021-06-23 16:33:17 GMT 52.412292 -7.103119 38,000 292 459 0
2021-06-23 16:33:15 GMT 52.412292 -7.103119 38,000 292 459 0
2021-06-23 16:33:12 GMT 52.409729 -7.092514 38,000 292 459 0
2021-06-23 16:33:10 GMT 52.408539 -7.087631 38,000 292 459 0
2021-06-23 16:33:07 GMT 52.404556 -7.071228 38,000 292 459 0
2021-06-23 16:33:05 GMT 52.404556 -7.071228 38,000 292 459 0
2021-06-23 16:33:02 GMT 52.400070 -7.052841 38,000 292 459 0
2021-06-23 16:32:57 GMT 52.398129 -7.044904 38,000 292 459 0
2021-06-23 16:32:55 GMT 52.396912 -7.039948 38,000 292 459 0
2021-06-23 16:32:52 GMT 52.392868 -7.023403 38,000 292 459 0
2021-06-23 16:32:47 GMT 52.390446 -7.013358 38,000 292 458 64
2021-06-23 16:32:45 GMT 52.388725 -7.006295 38,000 292 459 0
2021-06-23 16:32:42 GMT 52.386246 -6.996231 38,000 292 458 -64
2021-06-23 16:32:40 GMT 52.384644 -6.989746 38,000 292 458 0
2021-06-23 16:32:38 GMT 52.383499 -6.984940 38,000 292 458 0
2021-06-23 16:32:35 GMT 52.380951 -6.974513 38,000 292 458 0
2021-06-23 16:32:32 GMT 52.378464 -6.964340 38,000 292 458 0
2021-06-23 16:32:30 GMT 52.374710 -6.948929 38,000 292 458 0
2021-06-23 16:32:27 GMT 52.374710 -6.948929 38,000 292 458 0
2021-06-23 16:32:24 GMT 52.370316 -6.931000 38,000 292 458 0
2021-06-23 16:32:21 GMT 52.368755 -6.924683 38,000 292 458 0
2021-06-23 16:32:19 GMT 52.368755 -6.924683 38,000 292 458 0
2021-06-23 16:32:16 GMT 52.365967 -6.913300 38,000 292 458 0
2021-06-23 16:32:13 GMT 52.363632 -6.903687 38,000 292 458 0
2021-06-23 16:32:10 GMT 52.361305 -6.894156 38,000 292 458 0
2021-06-23 16:32:07 GMT 52.358978 -6.884504 38,000 292 458 0
2021-06-23 16:32:05 GMT 52.357765 -6.879717 38,000 292 459 0
2021-06-23 16:32:03 GMT 52.355904 -6.872027 38,000 292 459 0
2021-06-23 16:32:00 GMT 52.353951 -6.864022 38,000 292 459 0
2021-06-23 16:31:57 GMT 52.351109 -6.852408 38,000 292 459 0
2021-06-23 16:31:55 GMT 52.349899 -6.847621 38,000 292 459 0
2021-06-23 16:31:53 GMT 52.347897 -6.839303 38,000 292 459 0
2021-06-23 16:31:50 GMT 52.345459 -6.829529 38,000 292 459 0
2021-06-23 16:31:47 GMT 52.343124 -6.819916 38,000 292 459 0
2021-06-23 16:31:44 GMT 52.341103 -6.811759 38,000 292 459 0
2021-06-23 16:31:41 GMT 52.339100 -6.803676 38,000 292 459 0
2021-06-23 16:31:39 GMT 52.337471 -6.797006 38,000 292 459 0
2021-06-23 16:31:37 GMT 52.334072 -6.783194 38,000 292 459 0
2021-06-23 16:31:33 GMT 52.331699 -6.773542 38,000 292 459 0
2021-06-23 16:31:30 GMT 52.330078 -6.766968 38,000 292 459 0
2021-06-23 16:31:27 GMT 52.327229 -6.755572 38,000 292 459 0
2021-06-23 16:31:25 GMT 52.326065 -6.750785 38,000 292 460 0
2021-06-23 16:31:21 GMT 52.323166 -6.739044 38,000 292 460 0
2021-06-23 16:31:19 GMT 52.321548 -6.732422 38,000 292 460 0
2021-06-23 16:31:17 GMT 52.319317 -6.723476 38,000 292 460 0
2021-06-23 16:31:14 GMT 52.316986 -6.714020 38,000 293 460 0
2021-06-23 16:31:11 GMT 52.315292 -6.707230 38,000 293 460 0
2021-06-23 16:31:09 GMT 52.313553 -6.700211 38,000 292 460 0
2021-06-23 16:31:07 GMT 52.311214 -6.690674 38,000 292 460 0
2021-06-23 16:31:05 GMT 52.310120 -6.686401 38,000 292 460 0
2021-06-23 16:31:03 GMT 52.308563 -6.680080 38,000 292 460 0
2021-06-23 16:31:00 GMT 52.305771 -6.668858 38,000 292 460 0
2021-06-23 16:30:57 GMT 52.303303 -6.658892 38,000 292 460 0
2021-06-23 16:30:55 GMT 52.300602 -6.647984 38,000 292 460 0
2021-06-23 16:30:53 GMT 52.300602 -6.647984 38,000 292 460 0
2021-06-23 16:30:50 GMT 52.297993 -6.637390 38,000 292 460 0
2021-06-23 16:30:47 GMT 52.295620 -6.627738 38,000 292 460 0
2021-06-23 16:30:45 GMT 52.294373 -6.622772 38,000 292 460 0
2021-06-23 16:30:43 GMT 52.292770 -6.616364 38,000 292 460 0
2021-06-23 16:30:40 GMT 52.290268 -6.606236 38,000 292 460 0
2021-06-23 16:30:37 GMT 52.287323 -6.594238 38,000 292 459 0
2021-06-23 16:30:35 GMT 52.284439 -6.582642 38,000 292 459 0
2021-06-23 16:30:33 GMT 52.284439 -6.582642 38,000 292 459 0
2021-06-23 16:30:30 GMT 52.281601 -6.571121 38,000 292 459 0
2021-06-23 16:30:27 GMT 52.279449 -6.562424 38,000 292 459 0
2021-06-23 16:30:25 GMT 52.276611 -6.550903 38,000 292 459 0
2021-06-23 16:30:23 GMT 52.276611 -6.550903 38,000 292 459 0
2021-06-23 16:30:20 GMT 52.274277 -6.541595 38,000 292 459 0
2021-06-23 16:30:17 GMT 52.271461 -6.530195 38,000 292 459 0
2021-06-23 16:30:15 GMT 52.270203 -6.525094 38,000 293 459 0
2021-06-23 16:30:13 GMT 52.268234 -6.517258 38,000 293 459 0
2021-06-23 16:30:10 GMT 52.266384 -6.509713 38,000 293 459 0
2021-06-23 16:30:07 GMT 52.263500 -6.498178 38,000 293 459 0
2021-06-23 16:30:05 GMT 52.262283 -6.493149 38,000 293 459 0
2021-06-23 16:30:03 GMT 52.258301 -6.477127 38,000 293 460 0
2021-06-23 16:30:00 GMT 52.258301 -6.477127 38,000 293 460 0
2021-06-23 16:29:58 GMT 52.256329 -6.469299 38,000 293 460 0
2021-06-23 16:29:55 GMT 52.254375 -6.461609 38,000 293 460 0
2021-06-23 16:29:52 GMT 52.252487 -6.454086 38,000 293 460 0
2021-06-23 16:29:49 GMT 52.249489 -6.442069 38,000 293 460 0
2021-06-23 16:29:46 GMT 52.247406 -6.433868 38,000 293 461 64
2021-06-23 16:29:44 GMT 52.245438 -6.426060 38,000 293 461 64
2021-06-23 16:29:41 GMT 52.242970 -6.416408 38,000 293 462 0
2021-06-23 16:29:39 GMT 52.241180 -6.409531 38,000 293 462 -64
2021-06-23 16:29:35 GMT 52.237793 -6.396408 38,000 293 462 0
2021-06-23 16:29:33 GMT 52.236603 -6.391907 38,000 291 464 -64
2021-06-23 16:29:30 GMT 52.233707 -6.380545 38,000 292 463 0
2021-06-23 16:29:28 GMT 52.231796 -6.372777 38,000 291 464 -64
2021-06-23 16:29:25 GMT 52.230011 -6.365128 38,000 290 464 -64
2021-06-23 16:29:23 GMT 52.228817 -6.359671 38,000 289 465 -64
2021-06-23 16:29:20 GMT 52.226398 -6.348136 38,000 287 465 -64
2021-06-23 16:29:18 GMT 52.225372 -6.342800 38,025 284 468 0
2021-06-23 16:29:15 GMT 52.223236 -6.330872 38,025 285 467 0
2021-06-23 16:29:13 GMT 52.222347 -6.325614 38,025 284 467 0
2021-06-23 16:29:10 GMT 52.220490 -6.313477 38,025 283 469 -64
2021-06-23 16:29:08 GMT 52.219601 -6.307094 38,000 283 469 -64
2021-06-23 16:29:06 GMT 52.218887 -6.301804 38,000 282 470 0
2021-06-23 16:29:04 GMT 52.216621 -6.284023 38,000 282 472 0
2021-06-23 16:29:01 GMT 52.216621 -6.284023 38,000 282 471 0
2021-06-23 16:28:58 GMT 52.215084 -6.272252 38,000 282 472 0
2021-06-23 16:28:56 GMT 52.214493 -6.267548 38,000 282 473 0
2021-06-23 16:28:54 GMT 52.213165 -6.257172 38,000 282 472 0
2021-06-23 16:28:51 GMT 52.211746 -6.246414 38,000 282 473 0
2021-06-23 16:28:48 GMT 52.210663 -6.237880 38,000 282 474 0
2021-06-23 16:28:46 GMT 52.209961 -6.232452 38,000 282 474 0
2021-06-23 16:28:44 GMT 52.208908 -6.224442 38,000 282 475 64
2021-06-23 16:28:41 GMT 52.207638 -6.214495 38,000 282 475 64
2021-06-23 16:28:39 GMT 52.206703 -6.207197 38,000 282 475 64
2021-06-23 16:28:36 GMT 52.205566 -6.198654 38,000 282 475 128
2021-06-23 16:28:34 GMT 52.204147 -6.187439 37,975 282 476 192
2021-06-23 16:28:31 GMT 52.203003 -6.178665 37,975 282 476 192
2021-06-23 16:28:28 GMT 52.201538 -6.167526 37,975 282 476 192
2021-06-23 16:28:26 GMT 52.200760 -6.161575 37,925 282 478 1024
2021-06-23 16:28:23 GMT 52.198978 -6.147714 37,950 282 476 448
2021-06-23 16:28:19 GMT 52.196510 -6.128802 37,900 282 477 1088
2021-06-23 16:28:16 GMT 52.196510 -6.128802 37,825 282 477 960
2021-06-23 16:28:13 GMT 52.195160 -6.118286 37,825 282 477 1088
2021-06-23 16:28:10 GMT 52.193619 -6.106567 37,775 282 477 1024
2021-06-23 16:28:07 GMT 52.192459 -6.097569 37,725 282 478 1024
2021-06-23 16:28:04 GMT 52.190460 -6.081924 37,625 283 478 1024
2021-06-23 16:28:01 GMT 52.188583 -6.067581 37,550 283 478 960
2021-06-23 16:27:59 GMT 52.188583 -6.067581 37,550 283 478 960
2021-06-23 16:27:57 GMT 52.187386 -6.058568 37,500 283 479 1024
2021-06-23 16:27:54 GMT 52.185802 -6.046640 37,450 283 479 960
2021-06-23 16:27:51 GMT 52.184826 -6.039263 37,450 283 479 1024
2021-06-23 16:27:49 GMT 52.183960 -6.032410 37,250 283 479 1024
2021-06-23 16:27:46 GMT 52.182636 -6.022391 37,350 283 479 1024
2021-06-23 16:27:44 GMT 52.181751 -6.015642 37,350 283 479 1024
2021-06-23 16:27:41 GMT 52.180023 -6.002502 37,250 283 479 1024
2021-06-23 16:27:39 GMT 52.179062 -5.995407 37,175 283 479 1024
2021-06-23 16:27:36 GMT 52.178078 -5.987863 37,175 283 480 960
2021-06-23 16:27:34 GMT 52.176865 -5.978681 37,125 283 480 960
2021-06-23 16:27:31 GMT 52.175282 -5.966675 37,100 283 479 832
2021-06-23 16:27:28 GMT 52.174164 -5.958023 37,050 283 480 896
2021-06-23 16:27:26 GMT 52.173187 -5.950823 37,025 283 480 896
2021-06-23 16:27:23 GMT 52.172012 -5.941849 37,000 283 480 832
2021-06-23 16:27:21 GMT 52.170673 -5.931832 36,950 283 479 832
2021-06-23 16:27:19 GMT 52.169952 -5.926361 36,925 283 479 832
2021-06-23 16:27:17 GMT 52.168858 -5.918100 36,900 283 479 832
2021-06-23 16:27:15 GMT 52.167137 -5.904994 36,575 283 479 768
2021-06-23 16:27:13 GMT 52.167137 -5.904994 36,850 283 479 768
2021-06-23 16:27:10 GMT 52.165695 -5.894318 36,775 283 479 832
2021-06-23 16:27:07 GMT 52.164345 -5.883885 36,775 283 479 832
2021-06-23 16:27:04 GMT 52.162388 -5.869132 36,725 283 479 832
2021-06-23 16:27:01 GMT 52.161484 -5.862274 36,675 283 478 896
2021-06-23 16:26:59 GMT 52.160339 -5.853673 36,625 283 478 896
2021-06-23 16:26:56 GMT 52.159222 -5.845197 36,625 283 478 896
2021-06-23 16:26:54 GMT 52.158245 -5.837821 36,575 283 478 960
2021-06-23 16:26:51 GMT 52.156799 -5.826991 36,550 283 478 960
2021-06-23 16:26:49 GMT 52.155899 -5.820084 36,500 283 478 1024
2021-06-23 16:26:46 GMT 52.154572 -5.809937 36,450 283 478 1088
2021-06-23 16:26:44 GMT 52.153656 -5.803223 36,425 283 478 1088
2021-06-23 16:26:41 GMT 52.151726 -5.788696 36,350 283 479 1152
2021-06-23 16:26:38 GMT 52.151001 -5.783234 36,300 283 479 1152
2021-06-23 16:26:36 GMT 52.149948 -5.775146 36,250 283 479 1152
2021-06-23 16:26:34 GMT 52.148849 -5.767059 36,200 283 479 1088
2021-06-23 16:26:31 GMT 52.147430 -5.756149 36,175 283 479 1088
2021-06-23 16:26:28 GMT 52.146049 -5.745771 36,125 283 479 1088
2021-06-23 16:26:26 GMT 52.145256 -5.740121 36,075 283 479 1024
2021-06-23 16:26:24 GMT 52.144318 -5.732880 36,000 283 479 960
2021-06-23 16:26:21 GMT 52.142807 -5.721664 36,000 283 479 960
2021-06-23 16:26:18 GMT 52.141811 -5.714068 35,925 283 478 768
2021-06-23 16:26:16 GMT 52.140610 -5.705185 35,925 283 478 640
2021-06-23 16:26:14 GMT 52.139420 -5.696335 35,900 283 478 576
2021-06-23 16:26:10 GMT 52.136398 -5.673904 35,825 283 478 576
2021-06-23 16:26:07 GMT 52.135437 -5.666885 35,825 283 477 576
2021-06-23 16:26:05 GMT 52.135437 -5.666885 35,800 283 477 576
2021-06-23 16:26:02 GMT 52.133900 -5.655212 35,725 283 475 640
2021-06-23 16:25:59 GMT 52.132416 -5.644226 35,750 283 475 640
2021-06-23 16:25:56 GMT 52.131245 -5.635672 35,700 283 475 640
2021-06-23 16:25:53 GMT 52.128387 -5.614624 35,675 283 474 640
2021-06-23 16:25:50 GMT 52.128387 -5.614624 35,675 283 474 640
2021-06-23 16:25:48 GMT 52.127426 -5.607500 35,650 283 474 640
2021-06-23 16:25:46 GMT 52.126308 -5.599182 35,600 283 473 640
2021-06-23 16:25:43 GMT 52.124634 -5.587019 35,575 283 472 640
2021-06-23 16:25:40 GMT 52.123516 -5.578700 35,525 283 472 640
2021-06-23 16:25:37 GMT 52.122299 -5.569916 35,525 283 471 640
2021-06-23 16:25:35 GMT 52.119652 -5.550764 35,500 283 471 704
2021-06-23 16:25:32 GMT 52.119652 -5.550764 35,475 283 470 704
2021-06-23 16:25:29 GMT 52.117950 -5.538177 35,425 283 470 832
2021-06-23 16:25:26 GMT 52.116898 -5.530548 35,400 283 469 832
2021-06-23 16:25:23 GMT 52.115387 -5.519562 35,375 283 469 832
2021-06-23 16:25:20 GMT 52.113926 -5.509094 35,300 283 469 896
2021-06-23 16:25:17 GMT 52.112762 -5.500541 35,275 283 469 896
2021-06-23 16:25:15 GMT 52.111973 -5.495047 35,225 283 469 960
2021-06-23 16:25:13 GMT 52.110809 -5.486494 35,175 283 469 960
2021-06-23 16:25:10 GMT 52.109436 -5.476685 35,150 283 469 960
2021-06-23 16:25:08 GMT 52.108566 -5.470200 35,150 283 469 960
2021-06-23 16:25:06 GMT 52.107330 -5.461273 35,075 283 469 320
2021-06-23 16:25:04 GMT 52.106293 -5.453849 35,050 283 469 768
2021-06-23 16:25:02 GMT 52.105640 -5.449062 35,025 283 469 384
2021-06-23 16:24:59 GMT 52.104218 -5.438614 35,000 283 469 448
2021-06-23 16:24:56 GMT 52.102661 -5.427403 35,000 283 470 64
2021-06-23 16:24:51 GMT 52.100193 -5.409197 35,000 283 470 64
2021-06-23 16:24:48 GMT 52.098999 -5.400772 35,000 283 471 0
2021-06-23 16:24:45 GMT 52.096748 -5.384478 35,000 283 471 0
2021-06-23 16:24:43 GMT 52.096748 -5.384478 35,000 283 471 0
2021-06-23 16:24:40 GMT 52.095200 -5.372849 35,000 283 472 -64
2021-06-23 16:24:37 GMT 52.093781 -5.362930 35,000 283 472 -64
2021-06-23 16:24:35 GMT 52.092884 -5.356149 35,000 283 472 -64
2021-06-23 16:24:32 GMT 52.091351 -5.345084 35,000 283 472 -64
2021-06-23 16:24:29 GMT 52.089935 -5.334930 35,000 283 472 0
2021-06-23 16:24:26 GMT 52.087006 -5.313492 35,000 283 472 0
2021-06-23 16:24:23 GMT 52.087006 -5.313492 35,000 283 472 -64
2021-06-23 16:24:20 GMT 52.085312 -5.301437 35,000 283 472 -64
2021-06-23 16:24:17 GMT 52.084030 -5.292130 35,025 283 472 -64
2021-06-23 16:24:15 GMT 52.083061 -5.285052 35,025 283 473 -64
2021-06-23 16:24:12 GMT 52.082039 -5.277754 35,000 283 473 0
2021-06-23 16:24:09 GMT 52.080460 -5.266495 35,000 283 473 64
2021-06-23 16:24:07 GMT 52.079247 -5.257664 35,000 283 473 64
2021-06-23 16:24:05 GMT 52.078537 -5.252686 35,000 283 474 64
2021-06-23 16:24:03 GMT 52.077484 -5.245056 35,000 283 474 64
2021-06-23 16:24:00 GMT 52.075745 -5.232544 35,000 283 474 64
2021-06-23 16:23:57 GMT 52.074509 -5.223541 35,000 283 474 -64
2021-06-23 16:23:55 GMT 52.073593 -5.216980 35,000 283 474 0
2021-06-23 16:23:52 GMT 52.072124 -5.206735 34,975 283 474 64
2021-06-23 16:23:49 GMT 52.070866 -5.197710 34,975 283 474 64
2021-06-23 16:23:47 GMT 52.069702 -5.189209 34,975 283 473 192
2021-06-23 16:23:45 GMT 52.068726 -5.182408 34,975 283 474 192
2021-06-23 16:23:42 GMT 52.067234 -5.171657 34,950 283 473 384
2021-06-23 16:23:39 GMT 52.065514 -5.159572 34,950 283 473 384
2021-06-23 16:23:36 GMT 52.064072 -5.149078 34,925 283 472 512
2021-06-23 16:23:34 GMT 52.062904 -5.140895 34,900 283 472 768
2021-06-23 16:23:30 GMT 52.061234 -5.129013 34,850 283 472 1088
2021-06-23 16:23:27 GMT 52.058018 -5.106053 34,775 283 472 1216
2021-06-23 16:23:24 GMT 52.058018 -5.106053 34,725 283 472 1216
2021-06-23 16:23:21 GMT 52.056992 -5.098833 34,700 283 472 1280
2021-06-23 16:23:19 GMT 52.056107 -5.092392 34,675 283 472 1280
2021-06-23 16:23:16 GMT 52.054619 -5.081883 34,575 283 472 1280
2021-06-23 16:23:14 GMT 52.053596 -5.074663 34,475 283 472 1280
2021-06-23 16:23:11 GMT 52.052151 -5.064305 34,475 283 473 1280
2021-06-23 16:23:09 GMT 52.051392 -5.058975 34,450 283 473 1280
2021-06-23 16:23:07 GMT 52.050430 -5.052032 34,300 283 473 1280
2021-06-23 16:23:04 GMT 52.048965 -5.041656 34,350 283 473 1216
2021-06-23 16:23:02 GMT 52.047825 -5.033543 34,250 283 473 1152
2021-06-23 16:22:59 GMT 52.046310 -5.023041 34,225 283 473 1152
2021-06-23 16:22:57 GMT 52.044331 -5.009059 34,150 283 473 1216
2021-06-23 16:22:55 GMT 52.044331 -5.009059 34,150 283 473 1216
2021-06-23 16:22:52 GMT 52.041817 -4.991403 34,100 283 473 1152
2021-06-23 16:22:50 GMT 52.041817 -4.991403 34,050 283 473 1152
2021-06-23 16:22:47 GMT 52.040329 -4.980730 34,000 283 473 1152
2021-06-23 16:22:45 GMT 52.039307 -4.973679 33,950 283 473 1152
2021-06-23 16:22:42 GMT 52.037907 -4.963858 33,900 283 473 1216
2021-06-23 16:22:40 GMT 52.036972 -4.957123 33,875 283 472 1216
2021-06-23 16:22:38 GMT 52.036186 -4.951774 33,850 283 472 1216
2021-06-23 16:22:35 GMT 52.034370 -4.939061 33,750 283 472 1280
2021-06-23 16:22:32 GMT 52.033020 -4.929408 33,675 283 472 1344
2021-06-23 16:22:29 GMT 52.031574 -4.919442 33,625 283 472 1344
2021-06-23 16:22:26 GMT 52.030365 -4.910810 33,550 284 472 1408
2021-06-23 16:22:24 GMT 52.029297 -4.903198 33,550 284 473 1408
2021-06-23 16:22:21 GMT 52.026215 -4.881668 33,400 284 473 1408
2021-06-23 16:22:18 GMT 52.026215 -4.881668 33,325 284 473 1408
2021-06-23 16:22:15 GMT 52.023754 -4.864589 33,300 284 473 1408
2021-06-23 16:22:13 GMT 52.023754 -4.864589 33,225 284 473 1408
2021-06-23 16:22:10 GMT 52.022324 -4.854431 33,175 284 473 1408
2021-06-23 16:22:07 GMT 52.020721 -4.843369 33,075 284 473 1472
2021-06-23 16:22:04 GMT 52.019440 -4.834442 32,975 284 474 1472
2021-06-23 16:22:02 GMT 52.018402 -4.827000 32,950 284 475 1536
2021-06-23 16:21:59 GMT 52.016830 -4.816132 32,925 284 474 1536
2021-06-23 16:21:56 GMT 52.015327 -4.805577 32,750 284 474 1600
2021-06-23 16:21:53 GMT 52.012444 -4.785566 32,725 284 474 1600
2021-06-23 16:21:50 GMT 52.012444 -4.785566 32,575 284 475 1600
2021-06-23 16:21:47 GMT 52.011280 -4.777248 32,475 284 475 1536
2021-06-23 16:21:44 GMT 52.009003 -4.761505 32,500 284 475 1536
2021-06-23 16:21:41 GMT 52.007996 -4.754562 32,400 284 475 1536
2021-06-23 16:21:38 GMT 52.006577 -4.744568 32,275 284 476 1472
2021-06-23 16:21:35 GMT 52.004807 -4.732204 32,275 284 476 1408
2021-06-23 16:21:32 GMT 52.003510 -4.723358 32,225 284 476 1408
2021-06-23 16:21:29 GMT 52.001781 -4.711408 32,125 284 476 1408
2021-06-23 16:21:26 GMT 52.000759 -4.704110 32,100 284 476 1408
2021-06-23 16:21:24 GMT 51.999298 -4.694214 32,025 284 476 1344
2021-06-23 16:21:21 GMT 51.998337 -4.687347 31,950 284 464 1344
2021-06-23 16:21:19 GMT 51.997128 -4.679156 31,950 284 476 1344
2021-06-23 16:21:17 GMT 51.996048 -4.671707 31,850 284 475 1344
2021-06-23 16:21:14 GMT 51.994766 -4.662704 31,850 284 475 1344
2021-06-23 16:21:12 GMT 51.993393 -4.653320 31,775 284 475 1408
2021-06-23 16:21:10 GMT 51.992332 -4.645883 31,700 284 475 1472
2021-06-23 16:21:08 GMT 51.991680 -4.641410 31,650 284 475 1472
2021-06-23 16:21:06 GMT 51.990471 -4.633092 31,625 284 475 1536
2021-06-23 16:21:04 GMT 51.987446 -4.611982 31,550 284 476 1600
2021-06-23 16:21:01 GMT 51.987446 -4.611982 31,350 284 476 1664
2021-06-23 16:20:58 GMT 51.986141 -4.602958 31,350 284 476 1728
2021-06-23 16:20:55 GMT 51.984650 -4.592913 31,275 284 477 1856
2021-06-23 16:20:52 GMT 51.983551 -4.585114 31,225 284 477 1792
2021-06-23 16:20:50 GMT 51.982452 -4.577408 31,175 284 477 1856
2021-06-23 16:20:47 GMT 51.980927 -4.566860 31,075 284 478 1856
2021-06-23 16:20:44 GMT 51.979156 -4.554696 30,950 284 478 1856
2021-06-23 16:20:41 GMT 51.977856 -4.545593 30,925 284 478 1856
2021-06-23 16:20:38 GMT 51.976318 -4.534988 30,775 284 479 1920
2021-06-23 16:20:36 GMT 51.975529 -4.529585 30,450 284 480 1920
2021-06-23 16:20:34 GMT 51.974579 -4.523087 30,625 284 480 1920
2021-06-23 16:20:32 GMT 51.973106 -4.512791 30,500 284 481 1920
2021-06-23 16:20:29 GMT 51.972080 -4.505807 30,450 284 481 1920
2021-06-23 16:20:27 GMT 51.970734 -4.496312 30,425 284 481 1920
2021-06-23 16:20:25 GMT 51.969707 -4.489328 30,275 284 481 1920
2021-06-23 16:20:22 GMT 51.968307 -4.479675 30,275 284 481 1920
2021-06-23 16:20:20 GMT 51.967026 -4.470901 30,200 284 482 1920
2021-06-23 16:20:18 GMT 51.964912 -4.456369 30,075 284 482 1920
2021-06-23 16:20:15 GMT 51.963142 -4.444441 29,775 284 483 1792
2021-06-23 16:20:12 GMT 51.963142 -4.444441 29,950 284 483 1728
2021-06-23 16:20:10 GMT 51.961189 -4.431100 29,875 284 483 1472
2021-06-23 16:20:08 GMT 51.961189 -4.431100 29,850 284 483 1472
2021-06-23 16:20:06 GMT 51.960159 -4.424210 29,800 284 483 1216
2021-06-23 16:20:03 GMT 51.958374 -4.411926 29,675 284 482 1152
2021-06-23 16:20:01 GMT 51.957279 -4.404419 29,700 284 482 1152
2021-06-23 16:19:58 GMT 51.955929 -4.395238 29,650 284 481 1088
2021-06-23 16:19:55 GMT 51.954575 -4.385986 29,600 284 481 1088
2021-06-23 16:19:53 GMT 51.953461 -4.378523 29,575 284 480 1088
2021-06-23 16:19:51 GMT 51.952110 -4.369420 29,425 284 480 1088
2021-06-23 16:19:48 GMT 51.950867 -4.360809 29,475 284 480 1088
2021-06-23 16:19:45 GMT 51.949459 -4.351292 29,150 284 476 1024
2021-06-23 16:19:42 GMT 51.947571 -4.338531 29,325 284 478 1088
2021-06-23 16:19:38 GMT 51.945557 -4.324951 29,300 284 477 1024
2021-06-23 16:19:35 GMT 51.944336 -4.316528 29,250 284 477 1024
2021-06-23 16:19:33 GMT 51.942986 -4.307504 29,200 284 476 1024
2021-06-23 16:19:31 GMT 51.941940 -4.300385 29,175 284 475 960
2021-06-23 16:19:29 GMT 51.939697 -4.285202 29,100 284 474 960
2021-06-23 16:19:26 GMT 51.939697 -4.285202 29,100 284 474 960
2021-06-23 16:19:24 GMT 51.938610 -4.278155 29,025 284 473 960
2021-06-23 16:19:21 GMT 51.936096 -4.260969 29,000 284 472 960
2021-06-23 16:19:19 GMT 51.936096 -4.260969 28,975 284 472 960
2021-06-23 16:19:17 GMT 51.934841 -4.252651 28,950 284 471 1024
2021-06-23 16:19:14 GMT 51.933350 -4.242371 28,875 284 471 1088
2021-06-23 16:19:11 GMT 51.931870 -4.232635 28,825 284 469 1088
2021-06-23 16:19:08 GMT 51.929207 -4.214748 28,650 284 469 1152
2021-06-23 16:19:06 GMT 51.929207 -4.214748 28,650 284 467 1344
2021-06-23 16:19:04 GMT 51.928417 -4.209333 28,725 284 468 1216
2021-06-23 16:19:02 GMT 51.927475 -4.202957 28,675 284 468 1216
2021-06-23 16:19:00 GMT 51.924599 -4.183751 28,475 284 467 1280
2021-06-23 16:18:57 GMT 51.924599 -4.183751 28,525 284 467 1280
2021-06-23 16:18:54 GMT 51.923344 -4.175354 28,450 284 467 1344
2021-06-23 16:18:51 GMT 51.920746 -4.157867 28,425 284 466 1344
2021-06-23 16:18:49 GMT 51.920746 -4.157867 28,375 284 466 1344
2021-06-23 16:18:47 GMT 51.919571 -4.149929 28,325 284 466 1344
2021-06-23 16:18:45 GMT 51.917313 -4.134903 28,125 284 464 1344
2021-06-23 16:18:42 GMT 51.916592 -4.129996 28,125 284 464 1344
2021-06-23 16:18:40 GMT 51.916592 -4.129996 28,200 284 464 1344
2021-06-23 16:18:38 GMT 51.915241 -4.121207 28,075 284 463 1344
2021-06-23 16:18:35 GMT 51.913696 -4.110947 28,075 284 463 1408
2021-06-23 16:18:32 GMT 51.912415 -4.102173 27,975 284 463 1408
2021-06-23 16:18:30 GMT 51.911377 -4.095311 27,975 284 462 1408
2021-06-23 16:18:28 GMT 51.909843 -4.085188 27,850 284 462 1408
2021-06-23 16:18:25 GMT 51.908630 -4.077183 27,850 284 462 1408
2021-06-23 16:18:22 GMT 51.905823 -4.058228 27,700 284 461 1408
2021-06-23 16:18:19 GMT 51.905823 -4.058228 27,675 284 461 1472
2021-06-23 16:18:17 GMT 51.904541 -4.049835 27,450 284 461 1472
2021-06-23 16:18:14 GMT 51.902618 -4.037170 27,550 284 460 1472
2021-06-23 16:18:11 GMT 51.901428 -4.029160 27,450 284 460 1472
2021-06-23 16:18:08 GMT 51.899788 -4.018328 27,425 284 460 1472
2021-06-23 16:18:05 GMT 51.898590 -4.010162 27,350 284 459 1472
2021-06-23 16:18:02 GMT 51.897446 -4.002457 27,300 284 458 1472
2021-06-23 16:18:00 GMT 51.896255 -3.994827 27,150 284 457 1472
2021-06-23 16:17:58 GMT 51.894993 -3.986311 27,175 284 458 1472
2021-06-23 16:17:55 GMT 51.893688 -3.977757 27,100 284 458 1472
2021-06-23 16:17:53 GMT 51.892731 -3.971261 27,075 284 457 1472
2021-06-23 16:17:51 GMT 51.891407 -3.962479 27,000 284 456 1472
2021-06-23 16:17:49 GMT 51.890625 -3.957305 26,850 284 455 1408
2021-06-23 16:17:47 GMT 51.889217 -3.948212 26,900 284 455 1408
2021-06-23 16:17:44 GMT 51.887917 -3.939590 26,825 284 455 1408
2021-06-23 16:17:41 GMT 51.886459 -3.929913 26,775 284 455 1472
2021-06-23 16:17:38 GMT 51.884583 -3.917368 26,675 284 454 1472
2021-06-23 16:17:35 GMT 51.883492 -3.910294 26,625 284 454 1536
2021-06-23 16:17:32 GMT 51.880508 -3.890719 26,475 284 451 1536
2021-06-23 16:17:29 GMT 51.880508 -3.890719 26,475 284 453 1536
2021-06-23 16:17:27 GMT 51.879272 -3.882554 26,150 284 452 1536
2021-06-23 16:17:24 GMT 51.878036 -3.874314 26,225 284 452 1536
2021-06-23 16:17:21 GMT 51.876389 -3.863550 26,225 284 450 1600
2021-06-23 16:17:18 GMT 51.875069 -3.854828 26,200 284 450 1600
2021-06-23 16:17:15 GMT 51.873779 -3.846551 26,050 284 450 1664
2021-06-23 16:17:12 GMT 51.871536 -3.831853 26,000 284 450 1664
2021-06-23 16:17:09 GMT 51.870346 -3.824059 25,925 284 448 1664
2021-06-23 16:17:07 GMT 51.869614 -3.819159 25,825 284 448 1664
2021-06-23 16:17:04 GMT 51.867691 -3.806466 25,775 284 447 1664
2021-06-23 16:17:01 GMT 51.866688 -3.799820 25,700 284 447 1600
2021-06-23 16:16:59 GMT 51.865383 -3.791428 25,650 284 447 1600
2021-06-23 16:16:57 GMT 51.864639 -3.786545 25,625 284 446 1600
2021-06-23 16:16:54 GMT 51.863571 -3.779594 25,450 284 446 1600
2021-06-23 16:16:52 GMT 51.862080 -3.769684 25,425 284 446 1600
2021-06-23 16:16:50 GMT 51.861195 -3.763885 25,250 284 446 1536
2021-06-23 16:16:48 GMT 51.860123 -3.757095 25,375 284 445 1536
2021-06-23 16:16:46 GMT 51.859379 -3.752289 25,250 284 443 1536
2021-06-23 16:16:43 GMT 51.857887 -3.742294 25,150 284 442 1600
2021-06-23 16:16:40 GMT 51.856167 -3.731003 25,150 284 442 1600
2021-06-23 16:16:38 GMT 51.855190 -3.724594 25,100 284 442 1664
2021-06-23 16:16:35 GMT 51.853821 -3.715754 24,975 284 441 1664
2021-06-23 16:16:32 GMT 51.852264 -3.705510 24,900 284 441 1664
2021-06-23 16:16:29 GMT 51.850800 -3.695934 24,850 284 440 1664
2021-06-23 16:16:27 GMT 51.849789 -3.689346 24,800 284 440 1664
2021-06-23 16:16:24 GMT 51.848785 -3.682870 24,750 284 439 1664
2021-06-23 16:16:22 GMT 51.847275 -3.672997 24,650 284 439 1664
2021-06-23 16:16:20 GMT 51.846531 -3.668060 24,625 284 438 1664
2021-06-23 16:16:18 GMT 51.845646 -3.662338 24,575 284 437 1600
2021-06-23 16:16:16 GMT 51.844391 -3.654404 24,475 284 436 1536
2021-06-23 16:16:13 GMT 51.841644 -3.636322 24,325 284 436 1536
2021-06-23 16:16:10 GMT 51.841644 -3.636322 24,350 284 435 1472
2021-06-23 16:16:08 GMT 51.840897 -3.631592 24,275 284 435 1408
2021-06-23 16:16:06 GMT 51.839539 -3.622593 24,050 285 433 1344
2021-06-23 16:16:03 GMT 51.838348 -3.615096 24,125 285 432 1280
2021-06-23 16:16:00 GMT 51.835869 -3.598938 24,050 285 431 1216
2021-06-23 16:15:58 GMT 51.835125 -3.594208 24,050 285 429 1024
2021-06-23 16:15:56 GMT 51.833817 -3.585626 24,000 285 428 960
2021-06-23 16:15:54 GMT 51.833817 -3.585626 24,000 285 428 960
2021-06-23 16:15:51 GMT 51.832169 -3.575085 23,900 285 424 640
2021-06-23 16:15:48 GMT 51.830933 -3.567068 23,850 285 419 640
2021-06-23 16:15:45 GMT 51.829239 -3.556304 23,875 285 422 640
2021-06-23 16:15:42 GMT 51.828232 -3.549846 23,850 285 420 640
2021-06-23 16:15:39 GMT 51.826748 -3.540268 23,800 285 417 640
2021-06-23 16:15:37 GMT 51.825760 -3.533738 23,800 285 417 640
2021-06-23 16:15:34 GMT 51.824280 -3.524246 23,775 285 414 576
2021-06-23 16:15:31 GMT 51.823105 -3.516887 23,750 285 413 576
2021-06-23 16:15:29 GMT 51.822098 -3.510280 23,750 285 411 576
2021-06-23 16:15:27 GMT 51.821018 -3.503571 23,700 285 409 576
2021-06-23 16:15:25 GMT 51.820129 -3.497809 23,700 285 407 576
2021-06-23 16:15:22 GMT 51.818573 -3.487788 23,650 285 405 576
2021-06-23 16:15:19 GMT 51.817204 -3.479156 23,625 285 402 640
2021-06-23 16:15:16 GMT 51.816238 -3.472867 23,600 285 401 640
2021-06-23 16:15:14 GMT 51.815094 -3.465593 23,550 285 398 640
2021-06-23 16:15:11 GMT 51.813572 -3.455963 23,525 285 396 640
2021-06-23 16:15:08 GMT 51.812130 -3.447037 20,950 285 374 4288
2021-06-23 16:15:05 GMT 51.810791 -3.438350 23,425 285 382 704
2021-06-23 16:15:02 GMT 51.809647 -3.431223 23,425 285 389 704
2021-06-23 16:14:59 GMT 51.808365 -3.423058 23,425 285 388 704
2021-06-23 16:14:57 GMT 51.806213 -3.409622 23,375 285 383 704
2021-06-23 16:14:54 GMT 51.806213 -3.409622 23,375 285 383 704
2021-06-23 16:14:51 GMT 51.804611 -3.399378 23,275 285 380 704
2021-06-23 16:14:48 GMT 51.803467 -3.392177 23,300 285 379 768
2021-06-23 16:14:45 GMT 51.802048 -3.383121 23,150 285 375 1600
2021-06-23 16:14:42 GMT 51.800903 -3.376069 23,150 285 375 1472
2021-06-23 16:14:39 GMT 51.799805 -3.369017 23,100 285 374 1728
2021-06-23 16:14:37 GMT 51.798908 -3.363495 23,075 285 374 1792
2021-06-23 16:14:35 GMT 51.797836 -3.356546 22,900 285 373 1856
2021-06-23 16:14:32 GMT 51.796692 -3.349568 22,800 285 373 1856
2021-06-23 16:14:29 GMT 51.795319 -3.340660 22,800 285 372 1920
2021-06-23 16:14:27 GMT 51.794300 -3.334351 22,700 285 371 1920
2021-06-23 16:14:24 GMT 51.792950 -3.325729 22,550 285 371 1856
2021-06-23 16:14:21 GMT 51.791885 -3.319133 22,475 285 370 1856
2021-06-23 16:14:18 GMT 51.790649 -3.311116 22,450 285 370 1856
2021-06-23 16:14:16 GMT 51.789688 -3.305252 22,375 285 370 1920
2021-06-23 16:14:14 GMT 51.788853 -3.299789 22,325 285 369 1920
2021-06-23 16:14:11 GMT 51.787598 -3.291779 22,225 285 368 2048
2021-06-23 16:14:08 GMT 51.785965 -3.281631 22,025 285 368 2176
2021-06-23 16:14:05 GMT 51.785339 -3.277563 22,025 285 368 2368
2021-06-23 16:14:03 GMT 51.784431 -3.271790 22,000 285 368 2368
2021-06-23 16:14:00 GMT 51.782181 -3.257595 21,775 285 368 2688
2021-06-23 16:13:58 GMT 51.782181 -3.257595 21,700 285 369 3072
2021-06-23 16:13:56 GMT 51.781586 -3.253586 21,625 285 369 3136
2021-06-23 16:13:54 GMT 51.780350 -3.245866 21,275 285 372 4032
2021-06-23 16:13:51 GMT 51.779449 -3.239899 21,350 285 372 3840
2021-06-23 16:13:48 GMT 51.778198 -3.231985 21,150 285 374 4160
2021-06-23 16:13:46 GMT 51.777027 -3.224564 20,575 285 382 4224
2021-06-23 16:13:44 GMT 51.776230 -3.219514 20,675 285 382 4224
2021-06-23 16:13:41 GMT 51.775166 -3.212585 20,450 285 382 4224
2021-06-23 16:13:38 GMT 51.773628 -3.202972 20,375 285 382 4096
2021-06-23 16:13:36 GMT 51.772705 -3.197096 20,250 285 384 3648
2021-06-23 16:13:33 GMT 51.771561 -3.189821 20,050 285 385 3008
2021-06-23 16:13:30 GMT 51.770138 -3.180847 19,950 285 387 1920
2021-06-23 16:13:28 GMT 51.769455 -3.176459 19,875 285 386 2304
2021-06-23 16:13:26 GMT 51.768585 -3.170892 19,825 285 387 2112
2021-06-23 16:13:24 GMT 51.767437 -3.163834 19,700 285 387 1984
2021-06-23 16:13:21 GMT 51.766273 -3.156281 19,300 285 388 2752
2021-06-23 16:13:18 GMT 51.764877 -3.147659 19,525 285 387 2112
2021-06-23 16:13:16 GMT 51.763992 -3.142090 19,400 285 388 2496
2021-06-23 16:13:13 GMT 51.762451 -3.132143 19,275 285 388 2752
2021-06-23 16:13:10 GMT 51.761108 -3.123932 18,975 285 389 2880
2021-06-23 16:13:07 GMT 51.760025 -3.116999 19,025 285 389 3072
2021-06-23 16:13:04 GMT 51.757336 -3.100052 18,550 285 389 2560
2021-06-23 16:13:01 GMT 51.757336 -3.100052 18,650 285 388 2304
2021-06-23 16:12:58 GMT 51.755951 -3.091464 18,600 285 388 2304
2021-06-23 16:12:56 GMT 51.755035 -3.085896 16,375 285 376 2368
2021-06-23 16:12:53 GMT 51.753937 -3.078766 18,450 285 387 2240
2021-06-23 16:12:50 GMT 51.752655 -3.070827 18,175 285 385 2240
2021-06-23 16:12:47 GMT 51.751099 -3.061142 18,175 285 385 2240
2021-06-23 16:12:44 GMT 51.749542 -3.051304 18,000 285 384 2240
2021-06-23 16:12:41 GMT 51.748398 -3.044104 17,975 285 383 2304
2021-06-23 16:12:38 GMT 51.747047 -3.035660 17,850 285 383 2368
2021-06-23 16:12:36 GMT 51.746258 -3.030701 17,825 285 382 2368
2021-06-23 16:12:33 GMT 51.744598 -3.020424 17,625 285 381 2432
2021-06-23 16:12:30 GMT 51.742580 -3.007889 17,500 285 380 2688
2021-06-23 16:12:27 GMT 51.742580 -3.007889 17,450 285 380 2560
2021-06-23 16:12:25 GMT 51.741486 -3.000901 17,275 285 380 2688
2021-06-23 16:12:22 GMT 51.740204 -2.993088 17,200 285 380 2752
2021-06-23 16:12:20 GMT 51.739380 -2.987762 16,725 285 379 2688
2021-06-23 16:12:17 GMT 51.737778 -2.977963 16,975 285 379 2752
2021-06-23 16:12:15 GMT 51.737137 -2.973806 16,825 285 379 2752
2021-06-23 16:12:13 GMT 51.735809 -2.965641 16,725 285 378 2624
2021-06-23 16:12:10 GMT 51.734898 -2.960052 16,600 285 378 2688
2021-06-23 16:12:07 GMT 51.733547 -2.951584 16,500 285 378 2624
2021-06-23 16:12:04 GMT 51.731964 -2.941818 16,325 285 377 2496
2021-06-23 16:12:01 GMT 51.730957 -2.935428 16,225 285 376 2432
2021-06-23 16:11:58 GMT 51.729450 -2.926025 16,125 285 376 2368
2021-06-23 16:11:56 GMT 51.728752 -2.921982 16,050 285 375 2368
2021-06-23 16:11:53 GMT 51.727589 -2.914734 15,925 285 372 2304
2021-06-23 16:11:51 GMT 51.725052 -2.898980 15,825 285 369 2432
2021-06-23 16:11:48 GMT 51.724686 -2.896531 15,625 285 371 2368
2021-06-23 16:11:44 GMT 51.723587 -2.889709 15,525 285 369 2432
2021-06-23 16:11:41 GMT 51.722260 -2.881536 15,375 285 369 2432
2021-06-23 16:11:38 GMT 51.720840 -2.872620 15,325 285 368 2368
2021-06-23 16:11:36 GMT 51.720188 -2.868652 15,125 285 367 2368
2021-06-23 16:11:33 GMT 51.718781 -2.859786 15,050 285 366 2240
2021-06-23 16:11:31 GMT 51.717636 -2.852882 15,050 285 366 2240
2021-06-23 16:11:28 GMT 51.716583 -2.846276 14,900 285 364 2240
2021-06-23 16:11:26 GMT 51.715714 -2.840782 14,650 285 361 2432
2021-06-23 16:11:23 GMT 51.714649 -2.834091 14,675 285 362 2368
2021-06-23 16:11:20 GMT 51.713253 -2.825470 14,525 285 360 2496
2021-06-23 16:11:17 GMT 51.712414 -2.820206 14,525 285 360 2496
2021-06-23 16:11:15 GMT 51.711575 -2.815018 14,200 285 359 2496
2021-06-23 16:11:12 GMT 51.709991 -2.805176 14,325 285 359 2624
2021-06-23 16:11:10 GMT 51.709293 -2.800827 14,250 285 358 2624
2021-06-23 16:11:08 GMT 51.708115 -2.793422 14,150 285 358 2688
2021-06-23 16:11:06 GMT 51.707245 -2.788003 14,025 285 357 2752
2021-06-23 16:11:03 GMT 51.706268 -2.781906 13,825 285 357 2688
2021-06-23 16:11:00 GMT 51.704781 -2.772675 13,750 285 356 2688
2021-06-23 16:10:57 GMT 51.703949 -2.767441 13,650 285 356 2624
2021-06-23 16:10:55 GMT 51.702965 -2.761383 13,450 285 352 2304
2021-06-23 16:10:52 GMT 51.701893 -2.754745 13,275 285 353 2304
2021-06-23 16:10:49 GMT 51.700451 -2.745819 13,275 285 351 2240
2021-06-23 16:10:46 GMT 51.698959 -2.736783 13,150 285 348 1792
2021-06-23 16:10:43 GMT 51.697769 -2.729434 13,075 285 348 1792
2021-06-23 16:10:40 GMT 51.695572 -2.715924 12,900 285 344 1344
2021-06-23 16:10:37 GMT 51.695572 -2.715924 12,875 285 336 960
2021-06-23 16:10:35 GMT 51.694702 -2.710728 12,875 285 337 960
2021-06-23 16:10:32 GMT 51.692814 -2.699127 12,875 285 333 960
2021-06-23 16:10:30 GMT 51.692814 -2.699127 12,850 285 333 960
2021-06-23 16:10:28 GMT 51.692116 -2.695007 12,750 285 333 960
2021-06-23 16:10:26 GMT 51.691231 -2.689743 12,750 286 328 960
2021-06-23 16:10:24 GMT 51.690720 -2.686528 12,750 286 328 960
2021-06-23 16:10:23 GMT 51.690067 -2.682648 12,750 286 326 960
2021-06-23 16:10:22 GMT 51.689713 -2.680367 12,700 286 324 960
2021-06-23 16:10:21 GMT 51.689301 -2.678066 12,700 286 323 960
2021-06-23 16:10:19 GMT 51.688477 -2.673167 12,675 286 320 960
2021-06-23 16:10:18 GMT 51.688110 -2.670791 12,650 286 319 960
2021-06-23 16:10:17 GMT 51.687286 -2.665966 12,625 286 317 896
2021-06-23 16:10:14 GMT 51.686554 -2.661661 12,600 286 314 896
2021-06-23 16:10:12 GMT 51.685822 -2.657355 12,525 286 310 896
2021-06-23 16:10:10 GMT 51.684906 -2.651936 12,525 286 307 960
2021-06-23 16:10:09 GMT 51.684494 -2.649487 12,500 286 305 960
2021-06-23 16:10:08 GMT 51.684109 -2.647400 12,500 286 305 960
2021-06-23 16:10:06 GMT 51.683319 -2.642746 12,450 286 302 960
2021-06-23 16:10:05 GMT 51.682575 -2.638397 12,425 286 297 1024
2021-06-23 16:10:03 GMT 51.682114 -2.635902 12,400 286 297 1024
2021-06-23 16:10:02 GMT 51.681458 -2.631912 12,375 286 296 1024
2021-06-23 16:09:59 GMT 51.680832 -2.628405 12,350 286 295 1088
2021-06-23 16:09:57 GMT 51.679871 -2.622912 12,300 286 290 1280
2021-06-23 16:09:55 GMT 51.679504 -2.620759 12,275 286 290 1344
2021-06-23 16:09:54 GMT 51.679138 -2.618680 12,225 286 289 1536
2021-06-23 16:09:53 GMT 51.678818 -2.616825 12,225 286 288 1728
2021-06-23 16:09:51 GMT 51.678085 -2.612668 12,150 286 286 2048
2021-06-23 16:09:50 GMT 51.677593 -2.609940 12,100 286 286 2176
2021-06-23 16:09:47 GMT 51.676254 -2.602201 12,000 286 285 2624
2021-06-23 16:09:45 GMT 51.675385 -2.597079 11,825 286 285 2880
2021-06-23 16:09:43 GMT 51.675018 -2.595075 11,775 286 285 2880
2021-06-23 16:09:41 GMT 51.674377 -2.591437 11,725 286 284 2944
2021-06-23 16:09:39 GMT 51.673542 -2.586365 11,575 285 284 3072
2021-06-23 16:09:36 GMT 51.672546 -2.580154 11,425 283 285 3264
2021-06-23 16:09:34 GMT 51.671906 -2.575849 11,300 283 285 3264
2021-06-23 16:09:33 GMT 51.671635 -2.573853 11,250 281 286 3328
2021-06-23 16:09:31 GMT 51.671219 -2.570652 11,150 280 287 3328
2021-06-23 16:09:30 GMT 51.670990 -2.568797 11,100 280 286 3328
2021-06-23 16:09:29 GMT 51.670670 -2.565827 10,950 280 286 3264
2021-06-23 16:09:27 GMT 51.670258 -2.562041 10,950 280 287 3136
2021-06-23 16:09:26 GMT 51.670052 -2.559814 10,850 280 287 3136
2021-06-23 16:09:25 GMT 51.669846 -2.557587 10,675 280 286 2944
2021-06-23 16:09:23 GMT 51.669525 -2.554470 10,650 280 286 2816
2021-06-23 16:09:21 GMT 51.669025 -2.549286 10,650 280 286 2816
2021-06-23 16:09:19 GMT 51.668564 -2.544745 10,550 280 285 2432
2021-06-23 16:09:18 GMT 51.668015 -2.539326 10,475 280 285 2432
2021-06-23 16:09:16 GMT 51.668015 -2.539326 10,425 280 285 2432
2021-06-23 16:09:15 GMT 51.667603 -2.534947 10,400 280 285 2304
2021-06-23 16:09:12 GMT 51.667145 -2.530344 10,275 279 284 1536
2021-06-23 16:09:11 GMT 51.666607 -2.525024 10,200 279 284 1536
2021-06-23 16:09:09 GMT 51.666607 -2.525024 10,200 279 284 1536
2021-06-23 16:09:08 GMT 51.666000 -2.518616 10,150 279 284 1408
2021-06-23 16:09:06 GMT 51.666000 -2.518616 10,100 279 284 960
2021-06-23 16:09:04 GMT 51.665535 -2.514114 10,100 279 284 960
2021-06-23 16:09:03 GMT 51.665302 -2.511826 10,075 279 284 960
2021-06-23 16:09:02 GMT 51.665085 -2.509411 10,050 280 285 640
2021-06-23 16:09:00 GMT 51.664791 -2.506409 10,025 280 285 640
2021-06-23 16:08:59 GMT 51.664371 -2.502213 10,025 280 285 448
2021-06-23 16:08:57 GMT 51.663757 -2.496049 10,000 280 286 192
2021-06-23 16:08:55 GMT 51.663574 -2.494119 10,000 280 286 128
2021-06-23 16:08:53 GMT 51.663162 -2.489853 10,000 280 286 64
2021-06-23 16:08:51 GMT 51.662750 -2.485508 10,000 280 286 64
2021-06-23 16:08:49 GMT 51.662418 -2.482300 10,000 280 287 0
2021-06-23 16:08:48 GMT 51.662136 -2.479324 10,000 280 287 -64
2021-06-23 16:08:46 GMT 51.661697 -2.475190 10,000 280 287 -64
2021-06-23 16:08:45 GMT 51.661469 -2.472889 10,000 280 287 -64
2021-06-23 16:08:43 GMT 51.660645 -2.464501 10,000 280 287 -64
2021-06-23 16:08:41 GMT 51.660645 -2.464501 10,000 280 287 0
2021-06-23 16:08:39 GMT 51.660275 -2.460327 10,000 280 287 0
2021-06-23 16:08:38 GMT 51.660049 -2.458117 10,000 280 286 64
2021-06-23 16:08:36 GMT 51.659637 -2.453960 10,000 280 286 64
2021-06-23 16:08:34 GMT 51.659206 -2.449799 10,000 280 286 0
2021-06-23 16:08:33 GMT 51.659019 -2.447739 10,000 280 287 -64
2021-06-23 16:08:32 GMT 51.658813 -2.445720 10,000 280 287 -64
2021-06-23 16:08:29 GMT 51.658127 -2.438594 10,000 280 287 -64
2021-06-23 16:08:27 GMT 51.657898 -2.436218 10,000 280 287 -64
2021-06-23 16:08:26 GMT 51.657249 -2.429581 10,000 279 288 0
2021-06-23 16:08:24 GMT 51.657249 -2.429581 10,000 279 288 64
2021-06-23 16:08:23 GMT 51.657017 -2.427444 10,000 279 289 0
2021-06-23 16:08:21 GMT 51.656597 -2.423248 10,000 279 289 0
2021-06-23 16:08:18 GMT 51.655884 -2.415953 10,000 279 289 -64
2021-06-23 16:08:17 GMT 51.655701 -2.413800 10,000 279 289 -64
2021-06-23 16:08:15 GMT 51.655243 -2.409346 10,000 279 288 -64
2021-06-23 16:08:13 GMT 51.655060 -2.407268 10,000 279 288 -64
2021-06-23 16:08:12 GMT 51.654827 -2.405014 10,000 279 288 -64
2021-06-23 16:08:10 GMT 51.654282 -2.399622 10,000 279 288 0
2021-06-23 16:08:09 GMT 51.654099 -2.397469 10,000 279 288 64
2021-06-23 16:08:07 GMT 51.653778 -2.394129 10,000 279 288 64
2021-06-23 16:08:05 GMT 51.653275 -2.389229 10,000 279 288 0
2021-06-23 16:08:02 GMT 51.652779 -2.384262 10,000 279 288 0
2021-06-23 16:08:01 GMT 51.652596 -2.382126 10,000 279 288 -64
2021-06-23 16:08:00 GMT 51.652359 -2.379654 10,000 279 288 -64
2021-06-23 16:07:59 GMT 51.652176 -2.377701 10,000 279 288 0
2021-06-23 16:07:57 GMT 51.651398 -2.370152 10,000 279 289 0
2021-06-23 16:07:54 GMT 51.650986 -2.365698 10,000 279 288 0
2021-06-23 16:07:53 GMT 51.650803 -2.363768 10,000 279 288 -64
2021-06-23 16:07:51 GMT 51.650452 -2.360306 10,000 279 288 -64
2021-06-23 16:07:49 GMT 51.649979 -2.355751 10,000 280 288 0
2021-06-23 16:07:48 GMT 51.649799 -2.353745 10,000 280 288 0
2021-06-23 16:07:46 GMT 51.649384 -2.349367 10,000 280 288 64
2021-06-23 16:07:44 GMT 51.648880 -2.344468 10,000 280 288 0
2021-06-23 16:07:43 GMT 51.648685 -2.342300 10,000 280 288 0
2021-06-23 16:07:42 GMT 51.648468 -2.340459 10,000 280 288 0
2021-06-23 16:07:40 GMT 51.648170 -2.337189 10,000 279 288 0
2021-06-23 16:07:39 GMT 51.647919 -2.334966 10,000 279 288 0
2021-06-23 16:07:37 GMT 51.647472 -2.330399 10,000 279 288 64
2021-06-23 16:07:35 GMT 51.647049 -2.326058 10,000 279 288 64
2021-06-23 16:07:34 GMT 51.646870 -2.324066 10,000 279 288 128
2021-06-23 16:07:32 GMT 51.646450 -2.320099 10,000 279 288 128
2021-06-23 16:07:30 GMT 51.645985 -2.314987 10,000 279 288 0
2021-06-23 16:07:28 GMT 51.645191 -2.307205 10,000 279 288 0
2021-06-23 16:07:26 GMT 51.645191 -2.307205 10,000 279 288 -64
2021-06-23 16:07:23 GMT 51.644493 -2.299957 10,000 279 288 -64
2021-06-23 16:07:21 GMT 51.644119 -2.296068 10,000 279 288 -64
2021-06-23 16:07:20 GMT 51.643936 -2.293916 10,000 279 288 -64
2021-06-23 16:07:17 GMT 51.643238 -2.286911 10,000 279 288 -64
2021-06-23 16:07:14 GMT 51.642586 -2.280350 10,000 279 288 0
2021-06-23 16:07:12 GMT 51.642288 -2.277213 10,000 279 288 0
2021-06-23 16:07:10 GMT 51.641418 -2.268380 10,000 280 287 0
2021-06-23 16:07:08 GMT 51.641418 -2.268380 10,000 280 287 0
2021-06-23 16:07:06 GMT 51.641144 -2.265188 10,000 280 287 0
2021-06-23 16:07:04 GMT 51.640686 -2.260585 10,000 280 287 0
2021-06-23 16:07:03 GMT 51.640457 -2.258210 10,000 279 288 0
2021-06-23 16:07:01 GMT 51.640026 -2.253876 10,000 279 288 0
2021-06-23 16:06:59 GMT 51.639679 -2.250638 10,000 279 288 0
2021-06-23 16:06:58 GMT 51.639404 -2.247446 10,000 280 288 0
2021-06-23 16:06:57 GMT 51.638908 -2.242889 10,000 280 289 0
2021-06-23 16:06:55 GMT 51.638676 -2.240601 10,000 280 289 0
2021-06-23 16:06:53 GMT 51.638260 -2.236237 10,000 280 289 -64
2021-06-23 16:06:52 GMT 51.638031 -2.233936 10,000 280 289 -64
2021-06-23 16:06:51 GMT 51.637836 -2.232132 10,000 280 289 0
2021-06-23 16:06:48 GMT 51.637371 -2.227631 10,000 280 289 0
2021-06-23 16:06:47 GMT 51.637161 -2.225622 10,000 280 288 0
2021-06-23 16:06:46 GMT 51.636978 -2.223692 10,000 280 288 64
2021-06-23 16:06:45 GMT 51.636765 -2.221680 10,000 280 288 64
2021-06-23 16:06:43 GMT 51.636299 -2.217026 10,000 280 287 0
2021-06-23 16:06:42 GMT 51.635883 -2.213058 10,000 280 287 0
2021-06-23 16:06:40 GMT 51.635651 -2.210693 10,000 280 287 0
2021-06-23 16:06:39 GMT 51.635277 -2.206879 10,000 280 287 0
2021-06-23 16:06:36 GMT 51.634811 -2.202454 10,000 280 287 0
2021-06-23 16:06:35 GMT 51.634598 -2.200235 10,000 280 287 64
2021-06-23 16:06:33 GMT 51.634068 -2.194824 10,000 280 287 64
2021-06-23 16:06:32 GMT 51.633881 -2.192764 10,000 280 287 0
2021-06-23 16:06:30 GMT 51.633369 -2.187729 10,000 280 287 0
2021-06-23 16:06:27 GMT 51.632904 -2.183304 10,000 280 287 0
2021-06-23 16:06:26 GMT 51.632389 -2.178192 10,000 280 287 -64
2021-06-23 16:06:24 GMT 51.632156 -2.176132 10,000 280 287 0
2021-06-23 16:06:23 GMT 51.631943 -2.174105 10,000 280 287 -64
2021-06-23 16:06:22 GMT 51.631554 -2.170029 10,000 280 287 0
2021-06-23 16:06:20 GMT 51.631321 -2.167892 10,000 280 287 0
2021-06-23 16:06:19 GMT 51.631119 -2.165643 10,000 280 286 0
2021-06-23 16:06:17 GMT 51.630524 -2.160224 10,000 280 286 0
2021-06-23 16:06:15 GMT 51.630108 -2.155914 10,000 280 286 0
2021-06-23 16:06:13 GMT 51.629738 -2.152481 10,000 280 286 0
2021-06-23 16:06:11 GMT 51.629272 -2.147903 10,000 280 286 64
2021-06-23 16:06:10 GMT 51.629105 -2.146120 10,000 280 286 64
2021-06-23 16:06:07 GMT 51.628235 -2.137880 10,000 280 287 0
2021-06-23 16:06:04 GMT 51.627781 -2.133560 10,000 280 288 -64
2021-06-23 16:06:02 GMT 51.627129 -2.127304 10,000 280 288 0
2021-06-23 16:06:00 GMT 51.626907 -2.125038 10,000 280 288 0
2021-06-23 16:05:58 GMT 51.626339 -2.119904 10,000 280 288 0
2021-06-23 16:05:57 GMT 51.626129 -2.117912 10,000 280 288 0
2021-06-23 16:05:56 GMT 51.625946 -2.115759 10,000 280 288 64
2021-06-23 16:05:55 GMT 51.625732 -2.114029 10,000 280 288 64
2021-06-23 16:05:53 GMT 51.625305 -2.109672 10,000 280 288 0
2021-06-23 16:05:51 GMT 51.624943 -2.106400 10,000 280 288 0
2021-06-23 16:05:50 GMT 51.624569 -2.103043 10,000 280 288 0
2021-06-23 16:05:48 GMT 51.624252 -2.099948 10,000 280 288 0
2021-06-23 16:05:47 GMT 51.623932 -2.096607 10,000 280 288 0
2021-06-23 16:05:46 GMT 51.623703 -2.094529 10,000 280 288 0
2021-06-23 16:05:45 GMT 51.623474 -2.092599 10,000 280 288 0
2021-06-23 16:05:44 GMT 51.622879 -2.086883 10,000 280 287 0
2021-06-23 16:05:42 GMT 51.622879 -2.086883 10,000 280 287 0
2021-06-23 16:05:41 GMT 51.622662 -2.084732 10,000 280 287 0
2021-06-23 16:05:40 GMT 51.622192 -2.080425 10,000 280 287 0
2021-06-23 16:05:38 GMT 51.622009 -2.078272 10,000 280 287 0
2021-06-23 16:05:36 GMT 51.621590 -2.074432 10,000 280 287 64
2021-06-23 16:05:34 GMT 51.621140 -2.070329 10,000 280 287 64
2021-06-23 16:05:33 GMT 51.620937 -2.068329 10,000 280 286 64
2021-06-23 16:05:32 GMT 51.620705 -2.066193 10,000 280 286 0
2021-06-23 16:05:31 GMT 51.620132 -2.060456 10,000 280 286 -64
2021-06-23 16:05:29 GMT 51.620132 -2.060456 10,000 280 286 -64
2021-06-23 16:05:28 GMT 51.619915 -2.058487 10,000 280 286 -64
2021-06-23 16:05:26 GMT 51.619450 -2.054291 10,000 280 286 -128
2021-06-23 16:05:25 GMT 51.619171 -2.051315 10,000 280 286 -128
2021-06-23 16:05:24 GMT 51.618942 -2.049321 10,000 280 287 -128
2021-06-23 16:05:22 GMT 51.618519 -2.045288 10,025 280 287 -128
2021-06-23 16:05:20 GMT 51.618073 -2.041156 10,025 280 287 -128
2021-06-23 16:05:19 GMT 51.617844 -2.038855 10,025 280 287 -128
2021-06-23 16:05:18 GMT 51.617588 -2.036438 10,025 280 287 -128
2021-06-23 16:05:16 GMT 51.617168 -2.032471 10,025 280 287 -128
2021-06-23 16:05:15 GMT 51.616928 -2.030244 10,025 280 288 -192
2021-06-23 16:05:14 GMT 51.616470 -2.026235 10,025 280 288 -256
2021-06-23 16:05:11 GMT 51.616058 -2.022227 10,050 280 288 -384
2021-06-23 16:05:08 GMT 51.615307 -2.015228 10,075 280 288 -768
2021-06-23 16:05:06 GMT 51.614868 -2.010869 10,100 280 288 -896
2021-06-23 16:05:04 GMT 51.614559 -2.007828 10,125 280 288 -1024
2021-06-23 16:05:03 GMT 51.614189 -2.004471 10,175 280 288 -1216
2021-06-23 16:05:01 GMT 51.613861 -2.001219 10,175 280 288 -1280
2021-06-23 16:05:00 GMT 51.613266 -1.995726 10,250 280 287 -1280
2021-06-23 16:04:57 GMT 51.612930 -1.992264 10,275 280 287 -1216
2021-06-23 16:04:56 GMT 51.612186 -1.985550 10,350 280 287 -1216
2021-06-23 16:04:54 GMT 51.612186 -1.985550 10,350 280 287 -1152
2021-06-23 16:04:53 GMT 51.611984 -1.983552 10,350 280 287 -1152
2021-06-23 16:04:51 GMT 51.611664 -1.980137 10,400 280 287 -1152
2021-06-23 16:04:50 GMT 51.611443 -1.978149 10,425 280 287 -1152
2021-06-23 16:04:49 GMT 51.611210 -1.975861 10,425 280 287 -1216
2021-06-23 16:04:46 GMT 51.610474 -1.969002 10,500 280 287 -1216
2021-06-23 16:04:45 GMT 51.610062 -1.964771 10,550 280 287 -1216
2021-06-23 16:04:43 GMT 51.609814 -1.962585 10,550 280 287 -1216
2021-06-23 16:04:41 GMT 51.609207 -1.956482 10,625 280 287 -1152
2021-06-23 16:04:39 GMT 51.608963 -1.954230 10,650 280 287 -1152
2021-06-23 16:04:37 GMT 51.608650 -1.951447 10,650 280 287 -1088
2021-06-23 16:04:36 GMT 51.608322 -1.948013 10,700 280 287 -1088
2021-06-23 16:04:34 GMT 51.607864 -1.943689 10,725 280 287 -1024
2021-06-23 16:04:32 GMT 51.607437 -1.939621 10,750 280 288 -1088
2021-06-23 16:04:30 GMT 51.607040 -1.935524 10,775 280 288 -1088
2021-06-23 16:04:29 GMT 51.606812 -1.933371 10,825 280 288 -1024
2021-06-23 16:04:27 GMT 51.606354 -1.928917 10,850 280 288 -1024
2021-06-23 16:04:26 GMT 51.605667 -1.922607 10,900 280 288 -1024
2021-06-23 16:04:24 GMT 51.605667 -1.922607 10,900 280 289 -960
2021-06-23 16:04:22 GMT 51.605251 -1.918488 10,925 280 289 -960
2021-06-23 16:04:20 GMT 51.604786 -1.914062 10,950 280 289 -960
2021-06-23 16:04:18 GMT 51.604385 -1.910062 11,000 280 290 -960
2021-06-23 16:04:16 GMT 51.604088 -1.907043 11,000 280 290 -1024
2021-06-23 16:04:14 GMT 51.603516 -1.901600 11,050 280 290 -1024
2021-06-23 16:04:12 GMT 51.603107 -1.897430 11,100 280 290 -1152
2021-06-23 16:04:11 GMT 51.602875 -1.895294 11,125 280 290 -1152
2021-06-23 16:04:10 GMT 51.602646 -1.893063 11,125 280 290 -1152
2021-06-23 16:04:08 GMT 51.602188 -1.888609 11,175 280 291 -1152
2021-06-23 16:04:06 GMT 51.601852 -1.885300 11,225 280 291 -1152
2021-06-23 16:04:05 GMT 51.601501 -1.882003 11,225 280 292 -1152
2021-06-23 16:04:04 GMT 51.601295 -1.880188 11,250 280 292 -1152
2021-06-23 16:04:03 GMT 51.600876 -1.876297 11,300 280 292 -1088
2021-06-23 16:04:01 GMT 51.600632 -1.873689 11,300 280 292 -1088
2021-06-23 16:04:00 GMT 51.600410 -1.871643 11,325 280 293 -1024
2021-06-23 16:03:59 GMT 51.600128 -1.869160 11,350 280 293 -1024
2021-06-23 16:03:57 GMT 51.599670 -1.864855 11,375 280 293 -1024
2021-06-23 16:03:56 GMT 51.599442 -1.862702 11,400 280 293 -1024
2021-06-23 16:03:54 GMT 51.598984 -1.858471 11,425 280 293 -1024
2021-06-23 16:03:52 GMT 51.598408 -1.852722 11,475 280 294 -1024
2021-06-23 16:03:50 GMT 51.598206 -1.850751 11,500 280 294 -1024
2021-06-23 16:03:49 GMT 51.597427 -1.843625 11,550 280 294 -1088
2021-06-23 16:03:44 GMT 51.596237 -1.832638 11,650 280 294 -1152
2021-06-23 16:03:42 GMT 51.596237 -1.832638 11,650 280 294 -1152
2021-06-23 16:03:40 GMT 51.595779 -1.828333 11,675 280 294 -1216
2021-06-23 16:03:39 GMT 51.595196 -1.822891 11,725 280 294 -1216
2021-06-23 16:03:37 GMT 51.595196 -1.822891 11,750 280 294 -1216
2021-06-23 16:03:36 GMT 51.594776 -1.818542 11,775 280 294 -1280
2021-06-23 16:03:34 GMT 51.594498 -1.816177 11,850 280 294 -1216
2021-06-23 16:03:32 GMT 51.593567 -1.807327 11,875 280 294 -1216
2021-06-23 16:03:30 GMT 51.593567 -1.807327 11,875 280 295 -1152
2021-06-23 16:03:29 GMT 51.593193 -1.803513 11,925 280 295 -1152
2021-06-23 16:03:27 GMT 51.592941 -1.801238 11,925 280 295 -1088
2021-06-23 16:03:26 GMT 51.592484 -1.797081 11,975 280 295 -1088
2021-06-23 16:03:24 GMT 51.592262 -1.794815 12,000 280 296 -960
2021-06-23 16:03:22 GMT 51.591797 -1.790314 12,050 280 296 -960
2021-06-23 16:03:20 GMT 51.591331 -1.785812 12,050 280 296 -960
2021-06-23 16:03:19 GMT 51.591110 -1.783719 12,075 280 296 -960
2021-06-23 16:03:18 GMT 51.590633 -1.779480 12,100 280 297 -960
2021-06-23 16:03:16 GMT 51.590446 -1.777573 12,125 280 297 -960
2021-06-23 16:03:15 GMT 51.590240 -1.775480 12,125 280 297 -1024
2021-06-23 16:03:13 GMT 51.589783 -1.771100 12,175 280 297 -1024
2021-06-23 16:03:12 GMT 51.589424 -1.767960 12,200 280 297 -1024
2021-06-23 16:03:11 GMT 51.589325 -1.766795 12,200 280 297 -1024
2021-06-23 16:03:09 GMT 51.588776 -1.761969 12,250 281 297 -1024
2021-06-23 16:03:07 GMT 51.588352 -1.757736 12,275 281 297 -1024
2021-06-23 16:03:05 GMT 51.587746 -1.752548 12,300 281 298 -1024
2021-06-23 16:03:03 GMT 51.587280 -1.748428 12,350 282 297 -1088
2021-06-23 16:03:02 GMT 51.587093 -1.746674 12,350 283 297 -1088
2021-06-23 16:03:01 GMT 51.586815 -1.744461 12,375 283 298 -1152
2021-06-23 16:02:59 GMT 51.586212 -1.739960 12,425 284 297 -1216
2021-06-23 16:02:57 GMT 51.585571 -1.735543 12,450 285 297 -1280
2021-06-23 16:02:55 GMT 51.585094 -1.732407 12,500 285 297 -1344
2021-06-23 16:02:53 GMT 51.584381 -1.727749 12,525 286 297 -1344
2021-06-23 16:02:52 GMT 51.584015 -1.725670 12,575 287 296 -1408
2021-06-23 16:02:51 GMT 51.583603 -1.723404 12,575 288 296 -1408
2021-06-23 16:02:49 GMT 51.582813 -1.718979 12,625 288 296 -1408
2021-06-23 16:02:47 GMT 51.582321 -1.716614 12,675 289 295 -1408
2021-06-23 16:02:46 GMT 51.581650 -1.713333 12,750 289 296 -1344
2021-06-23 16:02:44 GMT 51.580532 -1.707916 12,750 289 296 -1344
2021-06-23 16:02:42 GMT 51.578949 -1.700439 12,825 289 296 -1344
2021-06-23 16:02:40 GMT 51.578949 -1.700439 12,850 289 296 -1280
2021-06-23 16:02:37 GMT 51.577503 -1.693573 12,900 289 296 -1152
2021-06-23 16:02:36 GMT 51.576622 -1.689377 12,950 289 297 -1024
2021-06-23 16:02:33 GMT 51.575775 -1.685362 12,975 289 297 -1024
2021-06-23 16:02:32 GMT 51.575317 -1.683284 12,975 289 297 -960
2021-06-23 16:02:31 GMT 51.574898 -1.681290 13,000 289 297 -960
2021-06-23 16:02:30 GMT 51.574081 -1.677419 13,050 289 297 -960
2021-06-23 16:02:28 GMT 51.573593 -1.675034 13,050 289 298 -1024
2021-06-23 16:02:27 GMT 51.573120 -1.672817 13,075 289 298 -1024
2021-06-23 16:02:26 GMT 51.572296 -1.668808 13,100 289 298 -1152
2021-06-23 16:02:24 GMT 51.571793 -1.666507 13,150 289 299 -1152
2021-06-23 16:02:23 GMT 51.571407 -1.664734 13,150 289 299 -1152
2021-06-23 16:02:22 GMT 51.570511 -1.660420 13,200 289 299 -1216
2021-06-23 16:02:20 GMT 51.570057 -1.658478 13,200 289 299 -1152
2021-06-23 16:02:19 GMT 51.569592 -1.656113 13,225 289 298 -1152
2021-06-23 16:02:17 GMT 51.568680 -1.651809 13,350 289 298 -1152
2021-06-23 16:02:16 GMT 51.568241 -1.649857 13,275 289 298 -1152
2021-06-23 16:02:15 GMT 51.567356 -1.645660 13,350 289 299 -1216
2021-06-23 16:02:13 GMT 51.566940 -1.643644 13,350 289 299 -1216
2021-06-23 16:02:12 GMT 51.566437 -1.641343 13,375 289 299 -1216
2021-06-23 16:02:11 GMT 51.565613 -1.637334 13,400 289 300 -1280
2021-06-23 16:02:09 GMT 51.565121 -1.635132 13,425 289 300 -1280
2021-06-23 16:02:08 GMT 51.564751 -1.633224 13,475 289 300 -1280
2021-06-23 16:02:06 GMT 51.563873 -1.629169 13,525 289 300 -1280
2021-06-23 16:02:04 GMT 51.563187 -1.625977 13,525 289 300 -1280
2021-06-23 16:02:03 GMT 51.562729 -1.623898 13,550 289 300 -1344
2021-06-23 16:02:02 GMT 51.562050 -1.620636 13,575 289 299 -1344
2021-06-23 16:02:01 GMT 51.561119 -1.616211 13,625 289 299 -1344
2021-06-23 16:01:59 GMT 51.560623 -1.614025 13,650 289 299 -1408
2021-06-23 16:01:57 GMT 51.559662 -1.609423 13,700 289 299 -1344
2021-06-23 16:01:56 GMT 51.559296 -1.607716 13,725 289 299 -1344
2021-06-23 16:01:55 GMT 51.558929 -1.605911 13,750 289 300 -1280
2021-06-23 16:01:53 GMT 51.557907 -1.601334 13,775 289 300 -1280
2021-06-23 16:01:52 GMT 51.557533 -1.599426 13,800 289 300 -1280
2021-06-23 16:01:50 GMT 51.556549 -1.594873 13,850 289 300 -1216
2021-06-23 16:01:49 GMT 51.556137 -1.592865 13,875 289 300 -1216
2021-06-23 16:01:48 GMT 51.555206 -1.588516 13,900 289 300 -1216
2021-06-23 16:01:46 GMT 51.554764 -1.586485 13,925 289 300 -1280
2021-06-23 16:01:45 GMT 51.554276 -1.584244 13,950 289 300 -1280
2021-06-23 16:01:44 GMT 51.553856 -1.582184 13,975 289 300 -1280
2021-06-23 16:01:42 GMT 51.552925 -1.577988 14,025 289 300 -1280
2021-06-23 16:01:41 GMT 51.552521 -1.575944 14,050 289 300 -1280
2021-06-23 16:01:40 GMT 51.552090 -1.573944 14,075 289 300 -1280
2021-06-23 16:01:39 GMT 51.551239 -1.570080 14,125 289 300 -1280
2021-06-23 16:01:37 GMT 51.550831 -1.568069 14,125 289 301 -1280
2021-06-23 16:01:35 GMT 51.549854 -1.563416 14,175 289 301 -1216
2021-06-23 16:01:34 GMT 51.549408 -1.561395 14,175 289 301 -1216
2021-06-23 16:01:32 GMT 51.548458 -1.556854 14,225 289 301 -1216
2021-06-23 16:01:31 GMT 51.548038 -1.554947 14,250 289 301 -1152
2021-06-23 16:01:30 GMT 51.547573 -1.552658 14,275 289 302 -1024
2021-06-23 16:01:29 GMT 51.547108 -1.550522 14,275 289 302 -1024
2021-06-23 16:01:26 GMT 51.545712 -1.543961 14,325 289 303 -832
2021-06-23 16:01:24 GMT 51.544785 -1.539645 14,350 289 304 -704
2021-06-23 16:01:23 GMT 51.544327 -1.537492 14,375 289 304 -640
2021-06-23 16:01:22 GMT 51.543846 -1.535263 14,375 289 305 -576
2021-06-23 16:01:20 GMT 51.543091 -1.531554 14,400 289 306 -512
2021-06-23 16:01:19 GMT 51.542591 -1.529312 14,400 289 306 -448
2021-06-23 16:01:17 GMT 51.541893 -1.526031 14,425 289 307 -448
2021-06-23 16:01:14 GMT 51.540543 -1.519623 14,425 289 309 -384
2021-06-23 16:01:13 GMT 51.539566 -1.514926 14,450 289 309 -384
2021-06-23 16:01:11 GMT 51.539062 -1.512550 14,450 289 311 -384
2021-06-23 16:01:10 GMT 51.538651 -1.510620 14,475 289 311 -384
2021-06-23 16:01:08 GMT 51.537735 -1.506463 14,475 289 312 -384
2021-06-23 16:01:07 GMT 51.537331 -1.504364 14,500 289 313 -448
2021-06-23 16:01:06 GMT 51.536865 -1.502306 14,500 289 314 -448
2021-06-23 16:01:04 GMT 51.535702 -1.496887 14,500 289 315 -448
2021-06-23 16:01:03 GMT 51.535217 -1.494586 14,525 289 315 -448
2021-06-23 16:01:01 GMT 51.534447 -1.490936 14,525 289 317 -384
2021-06-23 16:01:00 GMT 51.534027 -1.488796 14,525 289 318 -384
2021-06-23 16:00:58 GMT 51.533047 -1.484299 14,550 289 318 -384
2021-06-23 16:00:57 GMT 51.532379 -1.481298 14,550 289 320 -384
2021-06-23 16:00:56 GMT 51.531933 -1.479111 14,575 289 320 -384
2021-06-23 16:00:55 GMT 51.531464 -1.476898 14,600 289 322 -384
2021-06-23 16:00:53 GMT 51.530594 -1.472762 14,575 289 322 -384
2021-06-23 16:00:51 GMT 51.528671 -1.463706 14,625 289 324 -448
2021-06-23 16:00:48 GMT 51.528168 -1.461479 14,625 289 325 -448
2021-06-23 16:00:47 GMT 51.527649 -1.459045 14,625 289 326 -448
2021-06-23 16:00:46 GMT 51.527161 -1.456653 14,650 289 326 -448
2021-06-23 16:00:45 GMT 51.526611 -1.454204 14,650 289 327 -512
2021-06-23 16:00:44 GMT 51.526157 -1.452026 14,650 289 327 -512
2021-06-23 16:00:42 GMT 51.525135 -1.447220 14,675 289 329 -512
2021-06-23 16:00:40 GMT 51.524063 -1.442108 14,700 289 329 -512
2021-06-23 16:00:38 GMT 51.522995 -1.437205 14,725 289 330 -512
2021-06-23 16:00:36 GMT 51.522015 -1.432419 14,725 289 331 -512
2021-06-23 16:00:34 GMT 51.521503 -1.430130 14,750 289 332 -512
2021-06-23 16:00:33 GMT 51.520798 -1.426738 14,750 289 333 -512
2021-06-23 16:00:32 GMT 51.520248 -1.424140 14,775 289 334 -512
2021-06-23 16:00:31 GMT 51.519733 -1.421661 14,775 289 335 -512
2021-06-23 16:00:28 GMT 51.518383 -1.415329 14,800 289 336 -512
2021-06-23 16:00:26 GMT 51.517181 -1.409590 14,825 289 338 -512
2021-06-23 16:00:23 GMT 51.515671 -1.402464 14,850 289 339 -512
2021-06-23 16:00:21 GMT 51.514751 -1.398087 14,850 289 340 -512
2021-06-23 16:00:19 GMT 51.513931 -1.394076 14,900 289 342 -512
2021-06-23 16:00:17 GMT 51.511917 -1.384500 14,900 289 344 -512
2021-06-23 16:00:15 GMT 51.511917 -1.384500 14,925 289 345 -576
2021-06-23 16:00:12 GMT 51.510143 -1.376114 14,950 289 346 -576
2021-06-23 16:00:09 GMT 51.508896 -1.369951 14,975 289 348 -576
2021-06-23 16:00:07 GMT 51.507862 -1.364899 14,975 289 349 -512
2021-06-23 16:00:05 GMT 51.506836 -1.360152 15,000 289 351 -320
2021-06-23 16:00:03 GMT 51.505783 -1.354956 14,975 289 355 384
2021-06-23 16:00:00 GMT 51.504547 -1.349017 14,975 289 355 384
2021-06-23 15:59:58 GMT 51.503311 -1.343004 14,975 289 358 512
2021-06-23 15:59:56 GMT 51.502323 -1.338120 14,925 289 363 768
2021-06-23 15:59:54 GMT 51.501572 -1.334468 14,900 289 363 832
2021-06-23 15:59:52 GMT 51.500153 -1.327564 14,875 288 369 1088
2021-06-23 15:59:49 GMT 51.498505 -1.319351 14,800 289 374 1408
2021-06-23 15:59:47 GMT 51.497314 -1.313460 14,725 289 377 1664
2021-06-23 15:59:45 GMT 51.496353 -1.308709 14,700 288 379 1728
2021-06-23 15:59:42 GMT 51.494736 -1.300812 14,600 290 395 1984
2021-06-23 15:59:39 GMT 51.493061 -1.292648 14,475 289 391 2560
2021-06-23 15:59:37 GMT 51.492004 -1.287256 14,375 289 394 2816
2021-06-23 15:59:35 GMT 51.490814 -1.281466 14,325 289 395 2944
2021-06-23 15:59:33 GMT 51.489429 -1.274643 14,000 289 396 2240
2021-06-23 15:59:30 GMT 51.488079 -1.268005 14,075 289 396 2496
2021-06-23 15:59:28 GMT 51.486961 -1.262665 14,000 289 396 2368
2021-06-23 15:59:26 GMT 51.485474 -1.255417 13,900 289 395 2112
2021-06-23 15:59:23 GMT 51.484222 -1.249472 13,850 289 394 2048
2021-06-23 15:59:21 GMT 51.483032 -1.243905 13,700 290 394 1984
2021-06-23 15:59:18 GMT 51.480957 -1.234055 13,650 290 394 1984
2021-06-23 15:59:16 GMT 51.479698 -1.228333 13,575 290 393 1984
2021-06-23 15:59:13 GMT 51.478455 -1.222674 13,450 291 392 1920
2021-06-23 15:59:11 GMT 51.476719 -1.214828 13,375 291 391 1856
2021-06-23 15:59:08 GMT 51.474857 -1.206970 13,300 291 391 1856
2021-06-23 15:59:06 GMT 51.473557 -1.201370 13,275 291 391 1856
2021-06-23 15:59:03 GMT 51.469894 -1.186301 13,100 292 390 1920
2021-06-23 15:59:00 GMT 51.469894 -1.186301 13,100 292 389 1984
2021-06-23 15:58:58 GMT 51.468342 -1.179962 12,975 292 389 1920
2021-06-23 15:58:56 GMT 51.466015 -1.170654 12,900 292 388 1984
2021-06-23 15:58:52 GMT 51.464569 -1.164780 12,750 292 387 1984
2021-06-23 15:58:49 GMT 51.462288 -1.155701 12,700 292 387 2048
2021-06-23 15:58:47 GMT 51.461124 -1.150894 12,475 292 386 2176
2021-06-23 15:58:45 GMT 51.459869 -1.145993 12,575 292 386 2048
2021-06-23 15:58:43 GMT 51.458519 -1.140518 12,475 292 386 2112
2021-06-23 15:58:41 GMT 51.456848 -1.133745 12,400 292 386 2176
2021-06-23 15:58:38 GMT 51.454887 -1.125641 12,325 292 385 2240
2021-06-23 15:58:36 GMT 51.452133 -1.114667 12,175 292 385 2240
2021-06-23 15:58:33 GMT 51.452133 -1.114667 12,175 292 385 2240
2021-06-23 15:58:31 GMT 51.450699 -1.108704 12,050 292 384 2240
2021-06-23 15:58:29 GMT 51.448334 -1.099375 11,950 292 384 2176
2021-06-23 15:58:25 GMT 51.447052 -1.094105 11,875 292 382 2176
2021-06-23 15:58:23 GMT 51.445267 -1.086978 11,750 292 382 2176
2021-06-23 15:58:21 GMT 51.444214 -1.082747 11,700 292 382 2240
2021-06-23 15:58:18 GMT 51.441879 -1.073245 11,575 292 382 2112
2021-06-23 15:58:16 GMT 51.440643 -1.068115 11,500 292 381 2176
2021-06-23 15:58:13 GMT 51.438782 -1.060486 11,400 292 380 2176
2021-06-23 15:58:11 GMT 51.437714 -1.056172 11,325 292 380 2176
2021-06-23 15:58:08 GMT 51.435883 -1.048600 11,225 292 379 2240
2021-06-23 15:58:06 GMT 51.434280 -1.042068 11,125 292 379 2304
2021-06-23 15:58:03 GMT 51.432308 -1.034088 11,000 292 378 2240
2021-06-23 15:58:00 GMT 51.430355 -1.025925 10,900 292 379 2304
2021-06-23 15:57:57 GMT 51.428864 -1.019669 10,800 292 379 2240
2021-06-23 15:57:55 GMT 51.426071 -1.008148 10,700 292 378 2240
2021-06-23 15:57:53 GMT 51.426071 -1.008148 10,575 292 378 2176
2021-06-23 15:57:50 GMT 51.422672 -0.994110 10,475 292 376 2048
2021-06-23 15:57:47 GMT 51.422672 -0.994110 10,450 292 377 2112
2021-06-23 15:57:45 GMT 51.420731 -0.985874 10,325 292 376 2048
2021-06-23 15:57:42 GMT 51.418716 -0.977707 10,175 292 375 2048
2021-06-23 15:57:39 GMT 51.417458 -0.972519 10,150 291 374 2048
2021-06-23 15:57:37 GMT 51.415085 -0.962448 10,075 291 374 2048
2021-06-23 15:57:35 GMT 51.415085 -0.962448 9,975 290 373 2048
2021-06-23 15:57:33 GMT 51.412106 -0.948868 9,875 287 373 2112
2021-06-23 15:57:30 GMT 51.411129 -0.943604 9,825 286 374 2112
2021-06-23 15:57:28 GMT 51.411129 -0.943604 9,775 285 373 2112
2021-06-23 15:57:26 GMT 51.409424 -0.933096 9,675 282 373 2112
2021-06-23 15:57:24 GMT 51.409424 -0.933096 9,625 281 373 2112
2021-06-23 15:57:21 GMT 51.408241 -0.922928 9,450 275 371 1984
2021-06-23 15:57:18 GMT 51.407639 -0.916839 9,425 275 372 1984
2021-06-23 15:57:16 GMT 51.407181 -0.910009 9,325 274 371 1984
2021-06-23 15:57:12 GMT 51.406567 -0.891800 9,175 272 370 2112
2021-06-23 15:57:09 GMT 51.406448 -0.886255 9,075 272 368 2176
2021-06-23 15:57:07 GMT 51.406448 -0.886255 9,025 272 368 2176
2021-06-23 15:57:05 GMT 51.406380 -0.882034 9,000 272 368 2240
2021-06-23 15:57:03 GMT 51.406265 -0.874230 8,875 272 368 2240
2021-06-23 15:57:00 GMT 51.406174 -0.866361 8,600 272 365 1920
2021-06-23 15:56:57 GMT 51.406082 -0.859309 8,650 272 365 2176
2021-06-23 15:56:55 GMT 51.405991 -0.853667 8,575 272 366 2368
2021-06-23 15:56:53 GMT 51.405899 -0.846912 8,475 272 365 2176
2021-06-23 15:56:50 GMT 51.405727 -0.832672 8,325 272 364 1792
2021-06-23 15:56:47 GMT 51.405670 -0.826944 8,300 272 362 1600
2021-06-23 15:56:45 GMT 51.405495 -0.817413 8,200 272 361 1472
2021-06-23 15:56:42 GMT 51.405495 -0.817413 8,150 272 356 1216
2021-06-23 15:56:39 GMT 51.405308 -0.806274 8,050 272 356 1216
2021-06-23 15:56:37 GMT 51.405308 -0.806274 8,050 272 356 1216
2021-06-23 15:56:35 GMT 51.405212 -0.799849 7,975 272 353 960
2021-06-23 15:56:32 GMT 51.405075 -0.791684 8,000 272 352 896
2021-06-23 15:56:29 GMT 51.404938 -0.785226 7,950 272 349 832
2021-06-23 15:56:27 GMT 51.404842 -0.781174 7,925 272 346 832
2021-06-23 15:56:25 GMT 51.404709 -0.774388 7,900 272 346 832
2021-06-23 15:56:23 GMT 51.404610 -0.767670 7,850 272 341 832
2021-06-23 15:56:20 GMT 51.404423 -0.759888 7,775 272 334 896
2021-06-23 15:56:17 GMT 51.404377 -0.755844 7,775 272 336 896
2021-06-23 15:56:15 GMT 51.404240 -0.749359 7,725 272 333 896
2021-06-23 15:56:13 GMT 51.404144 -0.745468 7,650 272 330 960
2021-06-23 15:56:10 GMT 51.403839 -0.729255 7,650 272 319 960
2021-06-23 15:56:07 GMT 51.403725 -0.724792 7,600 272 323 960
2021-06-23 15:56:05 GMT 51.403633 -0.719757 7,575 272 322 960
2021-06-23 15:56:03 GMT 51.403633 -0.719757 7,550 272 319 960
2021-06-23 15:56:01 GMT 51.403564 -0.716116 7,500 272 315 960
2021-06-23 15:55:59 GMT 51.403259 -0.702438 7,475 272 315 960
2021-06-23 15:55:56 GMT 51.403259 -0.702438 7,425 273 311 960
2021-06-23 15:55:54 GMT 51.403027 -0.691910 7,375 273 308 960
2021-06-23 15:55:51 GMT 51.403027 -0.691910 7,350 273 306 960
2021-06-23 15:55:49 GMT 51.402935 -0.687332 7,250 273 302 960
2021-06-23 15:55:46 GMT 51.402786 -0.680484 7,275 273 300 960
2021-06-23 15:55:44 GMT 51.402695 -0.676253 7,225 273 296 960
2021-06-23 15:55:41 GMT 51.402557 -0.669869 7,200 273 294 960
2021-06-23 15:55:39 GMT 51.402374 -0.663452 7,150 273 286 896
2021-06-23 15:55:36 GMT 51.402191 -0.654449 7,100 273 286 896
2021-06-23 15:55:34 GMT 51.402191 -0.654449 7,100 273 284 960
2021-06-23 15:55:31 GMT 51.402096 -0.649796 7,050 273 281 1024
2021-06-23 15:55:29 GMT 51.401917 -0.643443 6,875 273 274 1600
2021-06-23 15:55:26 GMT 51.401779 -0.637652 6,950 273 276 1408
2021-06-23 15:55:24 GMT 51.401733 -0.634609 6,875 273 274 1536
2021-06-23 15:55:22 GMT 51.401596 -0.629338 6,825 273 272 1664
2021-06-23 15:55:19 GMT 51.401413 -0.621024 6,675 272 270 2304
2021-06-23 15:55:16 GMT 51.401321 -0.617239 6,650 272 270 2496
2021-06-23 15:55:14 GMT 51.401165 -0.609741 6,550 272 270 2688
2021-06-23 15:55:12 GMT 51.401165 -0.609741 6,450 272 270 2944
2021-06-23 15:55:09 GMT 51.401028 -0.602417 6,375 272 270 2944
2021-06-23 15:55:06 GMT 51.400932 -0.598373 6,200 272 270 2944
2021-06-23 15:55:04 GMT 51.400864 -0.594078 6,050 272 271 3008
2021-06-23 15:55:02 GMT 51.400726 -0.589327 5,950 272 271 3008
2021-06-23 15:54:59 GMT 51.400543 -0.578861 5,750 272 272 3008
2021-06-23 15:54:56 GMT 51.400452 -0.575298 5,625 272 272 2816
2021-06-23 15:54:54 GMT 51.400452 -0.575298 5,575 272 272 2752
2021-06-23 15:54:52 GMT 51.400360 -0.570250 5,400 272 271 2432
2021-06-23 15:54:49 GMT 51.400234 -0.565109 5,350 272 271 2304
2021-06-23 15:54:46 GMT 51.400085 -0.558818 5,300 272 270 2240
2021-06-23 15:54:44 GMT 51.399902 -0.548277 5,150 272 268 2304
2021-06-23 15:54:41 GMT 51.399902 -0.548277 5,025 272 268 2368
2021-06-23 15:54:38 GMT 51.399723 -0.541458 4,800 272 266 2304
2021-06-23 15:54:36 GMT 51.399677 -0.538101 4,850 272 266 2368
2021-06-23 15:54:34 GMT 51.399582 -0.533282 4,775 272 266 2304
2021-06-23 15:54:31 GMT 51.399490 -0.529496 4,700 272 265 2432
2021-06-23 15:54:29 GMT 51.399399 -0.524003 4,575 272 264 3136
2021-06-23 15:54:27 GMT 51.399258 -0.518265 4,400 272 264 3392
2021-06-23 15:54:24 GMT 51.399216 -0.514279 4,175 272 264 3200
2021-06-23 15:54:21 GMT 51.399071 -0.508270 4,150 273 264 3136
2021-06-23 15:54:19 GMT 51.398979 -0.504227 4,050 273 264 2752
2021-06-23 15:54:17 GMT 51.398941 -0.501140 3,975 273 264 2496
2021-06-23 15:54:14 GMT 51.398697 -0.493851 3,775 274 263 2560
2021-06-23 15:54:11 GMT 51.398560 -0.489731 3,625 274 263 2496
2021-06-23 15:54:08 GMT 51.398327 -0.482941 3,600 274 263 2688
2021-06-23 15:54:06 GMT 51.398140 -0.478668 3,500 274 263 2688
2021-06-23 15:54:04 GMT 51.397980 -0.474342 3,375 274 263 2944
2021-06-23 15:54:01 GMT 51.397720 -0.468750 3,200 273 265 3072
2021-06-23 15:53:58 GMT 51.397430 -0.458160 3,050 267 266 2816
2021-06-23 15:53:55 GMT 51.397430 -0.458160 2,950 266 266 2816
2021-06-23 15:53:53 GMT 51.397568 -0.454968 2,875 264 267 2816
2021-06-23 15:53:51 GMT 51.397797 -0.450068 2,725 258 268 3136
2021-06-23 15:53:49 GMT 51.398209 -0.446431 2,650 253 269 3136
2021-06-23 15:53:46 GMT 51.399994 -0.436707 2,450 247 270 2560
2021-06-23 15:53:44 GMT 51.399994 -0.436707 2,400 246 270 2496
2021-06-23 15:53:42 GMT 51.401539 -0.431137 2,150 239 268 2240
2021-06-23 15:53:39 GMT 51.403122 -0.426865 2,150 235 267 2176
2021-06-23 15:53:36 GMT 51.404343 -0.423716 2,100 232 266 2304
2021-06-23 15:53:34 GMT 51.406193 -0.419693 2,000 229 264 2112
2021-06-23 15:53:33 GMT 51.406906 -0.418223 1,975 227 263 1984
2021-06-23 15:53:32 GMT 51.408417 -0.415402 1,950 226 263 1856
2021-06-23 15:53:30 GMT 51.409313 -0.413971 1,900 223 261 1728
2021-06-23 15:53:29 GMT 51.410198 -0.412598 1,875 222 260 1728
2021-06-23 15:53:27 GMT 51.412060 -0.409851 1,825 221 259 1600
2021-06-23 15:53:26 GMT 51.412994 -0.408498 1,800 220 257 1536
2021-06-23 15:53:25 GMT 51.413876 -0.407333 1,775 220 256 1408
2021-06-23 15:53:24 GMT 51.415833 -0.404713 1,750 220 255 1344
2021-06-23 15:53:22 GMT 51.417023 -0.403154 1,700 220 253 1216
2021-06-23 15:53:21 GMT 51.418625 -0.401077 1,675 218 251 1024
2021-06-23 15:53:19 GMT 51.419403 -0.400036 1,650 217 249 896
2021-06-23 15:53:18 GMT 51.420254 -0.398941 1,650 216 248 768
2021-06-23 15:53:16 GMT 51.422207 -0.396652 1,625 214 246 704
2021-06-23 15:53:14 GMT 51.424164 -0.394543 1,600 209 242 704
2021-06-23 15:53:12 GMT 51.426086 -0.392761 1,575 206 239 768
2021-06-23 15:53:11 GMT 51.428192 -0.391054 1,550 202 237 768
2021-06-23 15:53:09 GMT 51.429283 -0.390320 1,525 200 235 832
2021-06-23 15:53:08 GMT 51.430168 -0.389709 1,525 198 234 896
2021-06-23 15:53:07 GMT 51.432262 -0.388565 1,500 194 232 768
2021-06-23 15:53:04 GMT 51.434601 -0.387565 1,475 189 229 640
2021-06-23 15:53:02 GMT 51.436314 -0.387039 1,450 185 226 448
2021-06-23 15:53:01 GMT 51.437347 -0.386823 1,450 183 225 384
2021-06-23 15:53:00 GMT 51.439545 -0.386526 1,450 181 223 320
2021-06-23 15:52:58 GMT 51.440552 -0.386452 1,425 176 220 256
2021-06-23 15:52:57 GMT 51.442783 -0.386581 1,425 171 217 192
2021-06-23 15:52:55 GMT 51.443714 -0.386734 1,425 167 214 128
2021-06-23 15:52:53 GMT 51.445206 -0.387115 1,425 167 214 128
2021-06-23 15:52:52 GMT 51.446739 -0.387497 1,425 163 211 192
2021-06-23 15:52:51 GMT 51.447811 -0.387955 1,400 160 209 320
2021-06-23 15:52:50 GMT 51.448700 -0.388382 1,400 158 208 448
2021-06-23 15:52:49 GMT 51.450603 -0.389404 1,375 151 205 512
2021-06-23 15:52:47 GMT 51.451355 -0.389866 1,375 149 204 448
2021-06-23 15:52:45 GMT 51.453049 -0.391202 1,375 144 201 448
2021-06-23 15:52:43 GMT 51.454655 -0.392685 1,350 142 200 448
2021-06-23 15:52:42 GMT 51.456188 -0.394440 1,325 137 198 576
2021-06-23 15:52:40 GMT 51.457031 -0.395508 1,325 132 195 768
2021-06-23 15:52:38 GMT 51.459030 -0.398560 1,300 128 193 704
2021-06-23 15:52:36 GMT 51.459595 -0.399591 1,275 105 177 1536
2021-06-23 15:52:33 GMT 51.461124 -0.402832 1,250 118 187 576
2021-06-23 15:52:32 GMT 51.462021 -0.405158 1,225 114 184 640
2021-06-23 15:52:30 GMT 51.462383 -0.406265 1,225 112 182 768
2021-06-23 15:52:29 GMT 51.462803 -0.407639 1,200 110 180 896
2021-06-23 15:52:27 GMT 51.463348 -0.409686 1,175 105 177 1728
2021-06-23 15:52:26 GMT 51.463547 -0.410843 1,150 104 177 2112
2021-06-23 15:52:23 GMT 51.464336 -0.415115 1,000 97 175 2496
2021-06-23 15:52:21 GMT 51.464615 -0.417557 950 95 175 2496
2021-06-23 15:52:20 GMT 51.464664 -0.418625 900 91 175 2624
2021-06-23 15:52:19 GMT 51.464756 -0.419922 850 91 175 2624
2021-06-23 15:52:17 GMT 51.464802 -0.422592 750 90 175 2560
2021-06-23 15:52:16 GMT 51.464813 -0.423939 700 90 175 2560
2021-06-23 15:52:15 GMT 51.464859 -0.426388 625 90 176 2496
2021-06-23 15:52:13 GMT 51.464848 -0.427780 575 90 176 2432
2021-06-23 15:52:12 GMT 51.464848 -0.429230 525 90 176 2432
2021-06-23 15:52:10 GMT 51.464848 -0.431900 450 90 176 2304
2021-06-23 15:52:09 GMT 51.464848 -0.433197 400 90 176 2368
2021-06-23 15:52:08 GMT 51.464848 -0.434494 350 90 176 2368
2021-06-23 15:52:07 GMT 51.464859 -0.436781 275 90 177 2560
2021-06-23 15:52:04 GMT 51.464859 -0.439527 200 90 178 2688
2021-06-23 15:52:03 GMT 51.464859 -0.440864 150 90 179 2816
2021-06-23 15:52:02 GMT 51.464893 -0.443573 100 90 180 2944
2021-06-23 15:52:00 GMT 51.464859 -0.444798 -25 90 181 2816
2021-06-23 15:51:59 GMT 51.464905 -0.446282 -50 90 182 2560
2021-06-23 15:51:56 GMT 51.464893 -0.450668 -200 89 179 960
2021-06-23 15:51:55 GMT 51.464905 -0.452073 -225 89 176 576
2021-06-23 15:51:51 GMT 51.464893 -0.456619 -175 89 161 0
2021-06-23 15:51:47 GMT 51.464848 -0.460739 -150 89 148 0
2021-06-23 15:51:45 GMT 51.464859 -0.463133 -150 89 148 0
2021-06-23 15:51:42 GMT 51.464848 -0.469437 -150 89 130 0
2021-06-23 15:51:39 GMT 51.464848 -0.469437 -150 89 127 64
2021-06-23 15:51:36 GMT 51.464802 -0.472412 -150 90 116 64
2021-06-23 15:51:35 GMT 51.464802 -0.474625 -150 90 100 0
2021-06-23 15:51:31 GMT 51.464813 -0.476627 0 90 100 64
2021-06-23 15:51:30 GMT 51.464813 -0.477448 0 90 94
2021-06-23 15:51:29 GMT 51.464790 -0.479594 0 87 86
2021-06-23 15:51:27 GMT 51.464790 -0.479594 0 90 82
2021-06-23 15:51:25 GMT 51.464790 -0.481339 0 90 68
2021-06-23 15:51:22 GMT 51.464779 -0.482229 0 90 60
2021-06-23 15:51:21 GMT 51.464779 -0.483208 0 90 51
2021-06-23 15:51:19 GMT 51.464779 -0.483685 0 90 47
2021-06-23 15:51:18 GMT 51.464779 -0.484011 0 90 42
2021-06-23 15:51:17 GMT 51.464779 -0.484382 0 90 38
2021-06-23 15:51:15 GMT 51.464779 -0.485106 0 90 26
2021-06-23 15:51:13 GMT 51.464779 -0.485588 0 90 19
2021-06-23 15:51:11 GMT 51.464779 -0.485744 0 90 16
2021-06-23 15:51:10 GMT 51.464779 -0.486031 0 90 11
2021-06-23 15:51:07 GMT 51.464779 -0.486183 0 92 7
2021-06-23 15:51:05 GMT 51.464779 -0.486293 0 92 5
2021-06-23 15:51:01 GMT 51.464790 -0.486412 0 92 0
2021-06-23 15:50:53 GMT 51.464779 -0.486431 0 92 0
2021-06-23 15:50:43 GMT 51.464779 -0.486431 0 92 0
2021-06-23 15:50:37 GMT 51.464790 -0.486431 0 92 0
2021-06-23 15:50:34 GMT 51.464790 -0.486442 0 92 2
2021-06-23 15:50:31 GMT 51.464790 -0.486479 0 92 6
2021-06-23 15:50:27 GMT 51.464779 -0.486609 0 95 7
2021-06-23 15:50:26 GMT 51.464767 -0.486720 0 98 8
2021-06-23 15:50:24 GMT 51.464767 -0.486795 0 101 8
2021-06-23 15:50:23 GMT 51.464767 -0.486851 0 104 9
2021-06-23 15:50:21 GMT 51.464756 -0.487017 0 115 9
2021-06-23 15:50:19 GMT 51.464756 -0.487080 0 120 9
2021-06-23 15:50:14 GMT 51.464836 -0.487423 0 140 10
2021-06-23 15:50:13 GMT 51.464848 -0.487461 0 143 10
2021-06-23 15:50:12 GMT 51.464870 -0.487518 0 146 10
2021-06-23 15:50:11 GMT 51.464905 -0.487555 0 151 10
2021-06-23 15:50:10 GMT 51.464985 -0.487685 0 160 10
2021-06-23 15:50:00 GMT 51.465282 -0.487889 0 182 9
2021-06-23 15:49:58 GMT 51.465363 -0.487919 0 188 9
2021-06-23 15:49:48 GMT 51.465778 -0.487804 0 199 5
2021-06-23 15:49:46 GMT 51.465778 -0.487804 0 199 5
2021-06-23 15:49:41 GMT 51.465855 -0.487760 0 199 3
2021-06-23 15:49:35 GMT 51.465931 -0.487709 0 202 0
2021-06-23 15:49:20 GMT 51.465942 -0.487709 0 202 0
2021-06-23 15:49:05 GMT 51.465946 -0.487704 0 202 0
2021-06-23 15:48:55 GMT 51.465942 -0.487709 0 202 0
2021-06-23 15:48:46 GMT 51.465946 -0.487704 0 202 0
2021-06-23 15:48:05 GMT 51.465935 -0.487704 0 202 0
2021-06-23 15:47:55 GMT 51.465942 -0.487709 0 202 0
2021-06-23 15:47:50 GMT 51.465935 -0.487704 0 202 0
2021-06-23 15:47:35 GMT 51.465942 -0.487709 0 202 0
2021-06-23 15:47:26 GMT 51.465935 -0.487704 0 202 0
2021-06-23 15:47:16 GMT 51.465942 -0.487709 0 202 0
2021-06-23 15:46:46 GMT 51.465935 -0.487704 0 202 0
2021-06-23 15:46:36 GMT 51.465942 -0.487709 0 202 0
2021-06-23 15:46:25 GMT 51.465935 -0.487704 0 202 0
2021-06-23 15:46:17 GMT 51.465981 -0.487685 0 202 6
2021-06-23 15:46:11 GMT 51.466118 -0.487648 0 210 7
2021-06-23 15:46:06 GMT 51.466270 -0.487576 0 225 7
2021-06-23 15:46:02 GMT 51.466396 -0.487480 0 264 7
2021-06-23 15:45:56 GMT 51.466492 -0.487309 0 264 7
2021-06-23 15:45:50 GMT 51.466518 -0.486999 0 270 8
2021-06-23 15:45:46 GMT 51.466518 -0.486739 0 270 7
2021-06-23 15:45:41 GMT 51.466518 -0.486516 0 270 5
2021-06-23 15:45:36 GMT 51.466515 -0.486317 0 270 3
2021-06-23 15:45:30 GMT 51.466518 -0.486238 0 270 0
2021-06-23 15:45:20 GMT 51.466518 -0.486219 0 270 0
2021-06-23 15:45:15 GMT 51.466515 -0.486221 0 270 0
2021-06-23 15:45:10 GMT 51.466518 -0.486219 0 270 0
2021-06-23 15:45:05 GMT 51.466518 -0.486219 0 270 0
2021-06-23 15:44:55 GMT 51.466515 -0.486221 0 270 0
2021-06-23 15:44:44 GMT 51.466518 -0.486219 0 270 0
2021-06-23 15:44:40 GMT 51.466515 -0.486221 0 270 0
2021-06-23 15:44:35 GMT 51.466518 -0.486219 0 270 0
2021-06-23 15:44:30 GMT 51.466515 -0.486221 0 270 0
2021-06-23 15:44:20 GMT 51.466518 -0.486219 0 270 0
2021-06-23 15:44:10 GMT 51.466515 -0.486221 0 270 0
2021-06-23 15:44:00 GMT 51.466518 -0.486219 0 270 0
2021-06-23 15:43:51 GMT 51.466515 -0.486221 0 270 0
2021-06-23 15:43:40 GMT 51.466518 -0.486219 0 270 0
2021-06-23 15:43:30 GMT 51.466515 -0.486164 0 270 3
2021-06-23 15:43:21 GMT 51.466518 -0.485941 0 270 3
2021-06-23 15:43:10 GMT 51.466518 -0.485700 0 270 6
2021-06-23 15:43:00 GMT 51.466518 -0.485254 0 270 7
2021-06-23 15:42:50 GMT 51.466526 -0.484715 0 270 9
2021-06-23 15:42:39 GMT 51.466526 -0.484047 0 270 8
2021-06-23 15:42:31 GMT 51.466518 -0.483640 0 270 7
2021-06-23 15:42:29 GMT 51.466518 -0.483547 0 270 8
2021-06-23 15:42:21 GMT 51.466530 -0.483083 0 270 8
2021-06-23 15:42:17 GMT 51.466530 -0.482842 0 270 8
2021-06-23 15:42:11 GMT 51.466530 -0.482508 0 270 11
2021-06-23 15:42:09 GMT 51.466526 -0.482044 0 270 15
2021-06-23 15:42:01 GMT 51.466530 -0.481487 0 270 18
2021-06-23 15:41:59 GMT 51.466530 -0.481301 0 270 18
2021-06-23 15:41:51 GMT 51.466541 -0.480151 0 270 18
2021-06-23 15:41:49 GMT 51.466537 -0.479984 0 270 17
2021-06-23 15:41:41 GMT 51.466537 -0.478916 0 270 16
2021-06-23 15:41:39 GMT 51.466537 -0.478745 0 270 16
2021-06-23 15:41:35 GMT 51.466549 -0.478306 0 270 16
2021-06-23 15:41:30 GMT 51.466553 -0.477720 0 270 15
2021-06-23 15:41:28 GMT 51.466553 -0.477516 0 270 15
2021-06-23 15:41:19 GMT 51.466553 -0.476532 0 270 15
2021-06-23 15:41:11 GMT 51.466553 -0.475660 0 270 16
2021-06-23 15:41:09 GMT 51.466560 -0.475464 0 270 16
2021-06-23 15:41:01 GMT 51.466560 -0.474491 0 270 15
2021-06-23 15:40:59 GMT 51.466553 -0.474305 0 270 15
2021-06-23 15:40:50 GMT 51.466560 -0.473404 0 270 14
2021-06-23 15:40:39 GMT 51.466572 -0.472355 0 270 12
2021-06-23 15:40:29 GMT 51.466572 -0.471363 0 270 13
2021-06-23 15:40:19 GMT 51.466564 -0.470371 0 270 11
2021-06-23 15:40:10 GMT 51.466572 -0.469837 0 267 10
2021-06-23 15:40:08 GMT 51.466560 -0.469723 0 264 9
2021-06-23 15:40:00 GMT 51.466530 -0.469164 0 236 10
2021-06-23 15:39:58 GMT 51.466541 -0.469090 0 230 10
2021-06-23 15:39:50 GMT 51.466736 -0.468616 0 182 9
2021-06-23 15:39:48 GMT 51.466793 -0.468597 0 180 10
2021-06-23 15:39:40 GMT 51.467216 -0.468608 0 180 12
2021-06-23 15:39:38 GMT 51.467297 -0.468608 0 180 12
2021-06-23 15:39:28 GMT 51.467827 -0.468616 0 180 12
2021-06-23 15:39:20 GMT 51.468330 -0.468616 0 180 14
2021-06-23 15:39:18 GMT 51.468430 -0.468608 0 180 15
2021-06-23 15:39:10 GMT 51.469013 -0.468626 0 180 15
2021-06-23 15:39:06 GMT 51.469177 -0.468636 0 180 15
2021-06-23 15:38:58 GMT 51.469780 -0.468626 0 180 14
2021-06-23 15:38:46 GMT 51.470547 -0.468626 0 180 17
2021-06-23 15:38:38 GMT 51.471191 -0.468636 0 180 16
2021-06-23 15:38:29 GMT 51.471786 -0.468655 0 180 14
2021-06-23 15:38:27 GMT 51.471912 -0.468655 0 180 14
2021-06-23 15:38:17 GMT 51.472485 -0.468655 0 180 12
2021-06-23 15:38:07 GMT 51.473030 -0.468663 0 180 11
2021-06-23 15:37:58 GMT 51.473461 -0.468655 0 174 12
2021-06-23 15:37:56 GMT 51.473564 -0.468636 0 171 12
2021-06-23 15:37:49 GMT 51.473938 -0.468750 0 168 10
2021-06-23 15:37:42 GMT 51.474197 -0.468849 0 168 9
2021-06-23 15:37:37 GMT 51.474380 -0.468960 0 182 8
2021-06-23 15:37:29 GMT 51.474705 -0.469074 0 230 9
2021-06-23 15:37:27 GMT 51.474781 -0.469035 0 241 8
2021-06-23 15:37:15 GMT 51.474937 -0.468311 0 264 12
2021-06-23 15:37:07 GMT 51.475021 -0.467548 0 247 10
2021-06-23 15:36:58 GMT 51.475159 -0.466696 0 270 11
2021-06-23 15:36:48 GMT 51.475159 -0.466325 0 270 11
2021-06-23 15:36:41 GMT 51.475159 -0.465805 0 270 10
2021-06-23 15:36:36 GMT 51.475159 -0.465469 0 270 9
2021-06-23 15:36:30 GMT 51.475159 -0.465069 0 270 9
2021-06-23 15:36:28 GMT 51.475159 -0.464172 0 270 8
2021-06-23 15:36:16 GMT 51.475159 -0.464172 0 270 8
2021-06-23 15:36:12 GMT 51.475159 -0.463943 0 270 8
2021-06-23 15:36:09 GMT 51.475159 -0.463783 0 270 8
2021-06-23 15:36:05 GMT 51.475159 -0.463560 0 270 8
2021-06-23 15:35:54 GMT 51.475170 -0.463022 0 270 6
2021-06-23 15:32:42 GMT 51.475170 -0.462261 0 267 1
2021-06-23 15:32:26 GMT 51.475170 -0.462494 0 267 3
2021-06-23 15:32:09 GMT 51.475021 -0.462666 0 241 3
2021-06-23 15:32:01 GMT 51.474964 -0.462762 0 236 3
2021-06-23 15:31:50 GMT 51.474857 -0.462875 0 225 3
2021-06-23 15:31:44 GMT 51.474800 -0.462894 0 219 3

Making use of Plane Finder data

You are free to use the raw flight data, aircraft information and images provided in this report for your own purposes provided the data is correctly attributed to Plane Finder. We ask that you please credit Plane Finder and link to planefinder.net in close proximity to the content.

Optionally one of the following logos (no smaller then 150x24px) can be used and must link to planefinder.net

Embedding the Plane Finder map

You are welcome to embed the Plane Finder playback map on your website to offer visitors a more interactive experience. We suggest using the following HTML code:

<iframe src="//planefinder.net/data/report/VS687-G-VINE-7700-squawk-2021-06-23/map" width="800" height="600" seamless="seamless"></iframe>

Where our data comes from

Plane Finder has a global network of data feeds and antenna radars that receive data broadcast directly from aircraft. The primary technologies used are ADS-B and MLAT. We also show feeds from the FAA and a FLARM glider feed.

Click here to find out more about the Plane Finder network.

How we collect our data